GFSMW_con_3kmhel_000.txt.gz
Helicity
117 129 135 121 98 102 100 114 115 100 38 39 37 22 3 9 20 31 35 43 46 56 62 74 71 83 97 93 100 127 130 123 154 160 147 140 156 167 183 202 197 183 200
146 134 126 127 125 114 123 130 115 93 43 5 6 21 43 74 87 111 137 140 134 136 116 96 84 78 68 73 88 107 101 109 112 153 126 107 94 128 131 163 210 179 189
83 84 110 112 114 126 107 89 80 85 79 53 34 69 99 147 167 168 154 140 106 103 94 83 70 68 60 52 59 69 63 75 99 113 150 143 144 133 144 188 180 177 191
56 78 86 106 87 57 54 69 78 69 69 66 90 117 97 90 65 56 56 81 89 87 91 91 89 81 77 94 92 97 96 112 117 128 136 154 162 170 133 150 159 166 180
56 73 88 72 55 57 57 52 65 86 82 110 91 73 82 48 53 76 89 90 86 79 78 81 74 79 76 89 94 109 119 107 128 138 149 161 163 168 195 162 152 140 166
64 85 78 68 71 64 72 60 75 86 104 107 103 93 99 91 93 95 77 60 38 27 38 44 35 33 48 61 63 72 82 101 117 133 149 160 161 153 168 168 138 122 102
58 67 77 85 76 76 68 71 77 84 64 76 93 91 78 79 81 73 67 62 46 27 42 40 41 33 40 43 44 50 59 71 93 112 125 139 161 167 170 176 157 141 122
51 69 82 82 75 91 100 101 92 91 77 71 72 72 82 61 63 66 50 40 36 29 52 59 53 46 42 41 47 45 54 65 93 114 134 139 148 161 170 170 177 128 98
67 91 104 91 102 132 133 109 92 84 76 61 58 69 69 69 55 45 33 47 55 64 79 64 52 47 46 47 44 30 40 62 81 98 108 119 116 139 160 175 203 223 196
97 121 118 128 156 156 143 139 116 98 82 81 78 73 69 62 64 69 80 80 86 91 79 73 65 59 52 41 44 35 50 61 73 76 81 78 100 111 123 151 155 158 173
101 124 150 181 183 184 183 158 142 124 113 97 91 96 95 78 63 67 73 109 102 78 60 58 51 47 40 36 33 34 28 57 59 54 57 68 84 91 109 111 107 100 97
123 176 186 224 225 209 208 184 159 142 122 132 139 96 68 69 74 72 92 76 67 74 69 65 53 45 32 19 8 7 29 21 34 28 20 28 46 56 58 59 44 44 56
223 238 239 257 230 213 229 198 178 165 161 148 122 103 85 58 46 54 122 100 90 92 90 67 48 37 32 30 19 37 43 48 60 54 60 47 33 33 20 30 27 13 43
213 239 274 254 240 247 235 215 207 202 181 158 132 92 62 54 69 77 82 95 93 80 83 85 74 66 64 62 76 101 110 109 100 94 62 34 33 33 35 13 24 40 35
194 233 254 259 252 257 251 251 262 227 180 147 102 76 83 89 79 85 92 95 104 113 101 93 90 81 78 77 112 126 129 126 128 100 65 54 44 49 69 75 60 71 76
154 209 249 249 267 271 278 271 235 182 119 81 76 86 94 92 85 92 105 115 112 99 94 96 89 102 111 101 122 134 133 126 116 97 67 61 38 34 68 57 66 72 88
144 205 237 261 270 276 254 240 191 111 66 81 66 84 98 93 104 111 114 113 111 114 118 120 125 129 130 83 96 91 109 113 109 103 99 91 86 65 25 1 22 34 33
145 231 281 299 275 256 238 184 124 96 103 37 36 79 114 120 113 112 109 121 130 137 136 138 141 141 131 73 74 75 109 117 115 111 110 121 103 44 35 34 33 17 27
150 231 244 261 282 251 206 184 140 132 65 50 80 125 123 120 111 119 132 135 139 142 154 158 150 140 131 66 71 90 123 136 130 122 124 106 73 38 21 40 21 20 24
188 223 259 265 247 228 197 169 155 115 73 114 119 117 110 115 137 131 123 149 151 164 177 174 150 112 123 51 56 93 139 133 135 128 113 49 76 29 30 24 33 5 -18
157 202 225 224 217 200 199 182 144 108 118 112 115 120 132 133 120 138 153 154 166 176 180 182 167 133 100 86 56 64 100 113 126 129 121 149 67 66 40 8 62 -3 -39
160 191 221 217 211 220 207 168 132 118 117 119 122 125 126 121 129 141 148 166 180 184 192 185 177 144 106 75 65 35 37 44 100 112 149 167 138 70 18 53 -24 -12 -10
167 201 220 233 222 201 183 158 136 132 125 125 126 126 118 128 125 135 146 178 185 207 206 189 174 159 154 141 55 28 30 44 86 121 110 141 45 3 40 29 -4 -10 -32
166 205 223 208 198 186 154 145 138 132 132 125 121 122 127 104 138 156 177 201 203 207 184 170 175 167 151 133 129 119 114 93 116 108 141 98 50 24 50 63 85 9 -16
177 207 214 199 176 164 170 157 142 141 138 132 123 116 123 124 132 156 179 185 196 167 169 170 170 156 145 127 64 79 112 113 105 76 125 102 69 67 85 93 17 41 45
189 198 186 182 171 161 146 145 150 145 132 119 105 107 117 134 146 162 173 133 110 80 64 55 97 120 73 43 49 52 48 69 49 95 126 111 89 86 -23 -2 58 85 95

GFSMW_con_3kmhel_003.txt.gz
Helicity
92 105 136 131 122 142 134 140 121 86 46 59 84 124 137 128 138 136 149 144 127 126 112 81 79 70 59 57 52 39 38 40 22 34 23 17 40 5 51 78 103 94 122
135 130 139 137 126 107 114 126 118 96 79 47 34 46 81 126 127 136 152 137 125 111 86 73 61 62 47 56 45 37 12 22 40 16 33 -2 38 24 98 68 93 72 123
99 111 143 133 114 127 110 93 94 92 73 34 39 75 96 120 134 138 116 116 96 86 74 60 43 39 29 29 33 43 49 37 53 82 70 62 106 75 94 130 100 119 123
86 90 100 101 84 62 62 78 89 85 93 99 132 157 127 115 81 73 67 73 86 81 77 65 58 57 44 63 56 69 75 86 104 99 114 124 144 138 60 135 171 109 168
70 76 73 56 50 63 66 58 75 91 108 120 92 70 67 41 48 63 84 83 70 61 58 27 7 1 -7 19 34 48 53 52 69 76 91 106 125 132 166 117 144 117 109
76 66 57 46 67 63 63 66 92 85 88 90 78 75 70 72 77 86 77 48 10 -12 6 11 22 43 62 67 58 56 57 70 80 93 105 121 138 154 158 160 120 98 75
78 64 52 52 67 65 64 84 111 102 84 86 85 76 75 79 75 60 47 45 26 25 62 86 92 76 65 59 57 53 56 61 62 67 87 106 121 122 131 136 127 109 98
76 61 56 62 74 70 89 131 122 109 102 97 98 86 75 51 50 50 37 42 49 38 71 71 72 80 79 73 54 25 8 12 11 26 66 76 78 77 96 107 110 126 130
96 76 74 87 93 103 131 169 154 137 113 104 93 88 72 63 41 55 65 58 57 65 101 97 89 77 59 38 21 15 20 31 40 40 54 46 47 54 74 89 141 140 155
111 103 103 112 129 160 186 219 178 166 139 131 108 100 95 77 67 76 88 90 101 112 89 84 70 48 36 32 27 17 17 34 36 39 44 40 53 75 75 104 119 151 182
107 121 134 150 176 223 234 224 200 184 180 164 152 144 107 83 81 78 82 99 100 79 73 63 52 49 42 36 25 20 21 48 45 48 58 74 94 95 84 89 95 112 120
126 144 170 207 224 255 242 232 230 209 195 179 163 135 108 103 98 83 100 103 85 69 60 64 64 56 42 35 39 57 77 92 112 119 96 100 92 77 68 72 64 46 17
170 214 258 247 246 277 233 241 249 218 196 183 168 146 122 112 101 91 91 92 80 75 80 72 61 57 61 67 80 108 141 145 125 113 109 101 97 82 78 71 61 60 59
216 254 260 252 269 245 245 247 236 212 184 177 158 133 125 85 68 96 101 84 80 81 82 74 73 72 73 89 130 147 133 122 115 116 111 100 90 90 89 90 84 89 64
203 210 241 252 252 261 254 237 231 203 179 185 150 139 65 33 105 110 87 87 86 75 70 74 72 73 109 139 135 140 144 140 133 121 107 113 104 89 103 118 104 94 106
147 152 197 227 249 260 248 239 225 212 187 149 138 73 35 70 99 91 91 84 78 79 72 74 85 108 128 110 119 139 150 139 132 116 114 121 102 94 53 52 38 49 79
113 139 183 231 267 245 239 237 226 191 148 138 112 94 70 90 100 94 91 97 83 68 76 91 102 109 115 101 107 106 145 155 136 122 123 125 103 66 87 55 46 76 39
112 155 237 272 256 249 242 230 203 183 152 112 98 75 94 120 108 109 99 88 73 75 87 93 90 109 131 91 108 115 137 142 121 104 88 81 86 80 65 74 101 75 79
86 159 211 240 253 248 236 223 210 157 120 122 78 116 127 118 115 106 90 70 76 89 92 97 100 116 129 95 103 103 137 125 107 96 75 72 83 56 18 61 78 68 89
128 177 220 249 255 241 229 218 195 151 133 105 115 124 120 110 100 87 75 67 81 94 112 111 116 103 123 79 64 93 136 121 126 92 77 47 52 36 82 125 72 69 68
150 180 203 210 217 220 205 213 176 154 128 124 130 120 104 99 83 80 65 77 91 101 112 123 120 121 101 90 57 64 100 114 121 120 110 127 60 92 126 46 65 75 56
141 162 196 209 210 212 216 192 161 140 141 127 106 99 104 101 93 69 72 82 90 102 105 109 140 139 98 74 61 35 32 37 104 113 141 109 69 74 41 31 23 15 36
126 159 182 206 210 215 208 171 157 142 112 104 111 114 103 97 69 66 78 95 100 116 117 135 160 153 138 128 53 28 31 45 95 138 109 66 37 62 63 17 14 26 107
137 171 189 191 194 204 188 169 134 106 108 111 104 102 94 65 69 86 97 109 108 105 112 134 151 160 137 126 120 124 127 95 121 121 95 64 57 72 50 59 81 104 10
155 177 191 193 198 179 155 127 114 118 114 102 101 91 76 72 80 91 96 92 86 80 98 117 140 144 138 119 67 81 110 113 128 88 116 107 75 68 68 79 92 46 47
193 203 195 188 153 136 131 125 113 106 107 109 97 78 75 86 92 93 103 69 46 28 26 43 86 118 76 51 52 39 45 85 63 108 103 85 66 59 18 24 64 83 101

GFSMW_con_3kmhel_006.txt.gz
Helicity
99 106 110 127 145 169 160 125 109 88 73 91 121 134 148 152 154 141 147 140 129 141 131 99 94 83 68 56 43 36 27 17 23 7 49 30 -42 62 58 217 120 71 66
129 147 148 159 166 148 130 111 105 105 93 83 113 116 132 154 147 139 145 136 121 108 89 77 57 51 35 39 37 41 36 56 71 70 67 30 40 109 191 96 65 94 75
123 147 172 166 146 137 108 101 98 99 91 74 67 73 87 97 102 100 89 98 94 82 64 53 41 43 40 44 45 54 56 61 64 96 91 90 99 79 57 88 40 174 154
151 148 153 159 135 101 79 80 77 78 82 79 96 114 104 97 87 83 72 64 74 73 64 56 49 35 19 36 43 66 69 73 80 70 76 81 93 94 87 98 118 90 159
146 138 138 124 93 74 73 63 67 88 104 120 115 97 88 63 55 59 72 73 65 62 46 1 -18 35 58 69 67 67 66 60 69 73 71 78 86 95 133 119 113 94 97
111 119 120 90 84 82 74 62 77 99 116 121 107 91 78 77 74 78 67 39 11 -1 24 36 82 101 89 79 68 64 63 63 64 59 51 55 77 76 100 125 117 105 79
77 95 100 91 95 89 78 77 87 118 125 121 103 90 90 84 79 67 47 38 40 63 102 114 107 94 87 75 66 63 53 40 41 26 29 52 59 78 96 115 150 144 118
69 83 104 97 97 91 89 99 115 142 144 128 118 114 106 85 81 73 50 59 79 89 92 88 89 88 87 84 70 48 44 43 42 43 48 75 78 96 113 149 179 189 189
75 100 103 95 109 117 123 131 151 173 165 152 133 135 124 122 98 77 77 86 91 90 95 100 103 103 96 76 58 58 56 66 72 78 86 117 132 138 145 191 201 223 235
106 104 103 112 130 148 156 160 190 217 186 173 163 155 153 135 106 96 106 108 106 111 105 109 109 96 73 62 67 71 80 84 110 119 118 125 122 152 163 158 165 171 183
107 106 116 133 157 169 164 191 226 218 204 198 179 179 168 147 123 118 118 114 123 118 107 108 96 69 62 71 79 88 96 110 114 101 106 126 129 170 168 160 147 166 159
110 120 143 169 171 181 191 213 230 222 229 214 201 202 165 131 115 117 135 134 134 117 106 87 65 61 72 86 89 100 108 106 107 125 149 159 168 153 139 149 152 153 138
143 170 176 185 197 200 209 241 231 238 236 225 222 182 147 126 112 111 114 133 119 98 81 74 75 75 82 81 84 113 109 122 140 147 158 155 154 156 162 161 151 146 143
156 176 185 188 208 212 242 253 255 242 238 228 197 156 136 119 105 93 125 110 101 89 88 89 81 69 76 81 110 126 135 140 154 165 160 158 154 157 159 140 117 108 112
170 167 174 200 205 243 259 267 260 251 229 191 156 142 115 107 109 120 115 110 100 90 89 77 60 69 88 105 139 137 135 144 162 159 163 155 150 106 98 128 104 91 112
147 157 167 177 212 235 251 267 269 234 184 173 158 132 118 94 119 125 114 94 88 85 81 69 66 81 113 115 106 109 138 144 167 184 157 146 121 120 81 56 42 51 74
159 145 142 157 204 230 266 265 234 210 195 175 148 120 95 106 120 104 90 96 106 86 89 74 76 90 107 92 89 99 140 164 185 169 152 146 131 106 94 73 44 59 30
164 132 133 182 223 280 259 253 237 216 191 157 128 110 109 115 105 108 113 117 111 96 90 76 83 98 100 89 102 124 145 173 163 137 125 108 91 87 73 78 87 75 113
137 112 137 186 232 225 242 246 235 209 184 138 112 113 111 120 119 121 127 113 109 99 83 82 91 99 98 103 114 118 140 150 133 109 92 87 96 59 33 68 98 107 86
103 113 160 178 196 222 223 223 220 218 191 144 135 123 123 110 114 119 108 101 98 93 103 93 101 107 87 86 64 87 140 134 133 95 101 81 80 38 29 82 88 74 60
92 129 137 155 189 207 212 230 236 207 166 133 136 118 107 110 111 100 97 97 93 94 88 94 107 111 85 70 72 95 127 121 129 142 142 143 74 69 52 37 86 89 55
115 112 139 180 209 213 213 234 211 181 124 133 120 110 113 113 102 95 92 98 87 85 90 101 112 108 82 77 85 80 70 68 126 134 153 131 85 56 43 61 47 24 38
107 132 166 197 209 215 203 205 193 143 130 123 118 115 105 102 96 97 87 84 85 96 96 103 104 103 103 95 76 68 62 62 118 138 138 82 54 48 51 36 24 34 77
120 149 177 201 215 209 190 172 147 130 123 118 111 104 100 99 88 89 90 97 87 84 88 95 111 118 112 105 107 112 119 96 126 140 134 81 64 48 41 38 47 64 2
139 167 176 179 184 182 170 142 135 124 120 111 97 96 100 89 83 85 95 88 74 73 84 100 125 133 122 110 72 83 116 125 127 116 109 107 89 69 52 54 15 13 21
160 166 170 178 187 176 158 139 132 121 101 93 106 106 95 91 91 91 92 79 71 65 54 57 99 118 79 54 48 47 51 80 69 111 107 96 81 43 14 21 38 54 75

GFSMW_con_3kmhel_009.txt.gz
Helicity
105 119 131 134 154 172 173 143 95 69 66 86 124 143 149 157 177 177 177 172 168 168 162 133 123 107 86 71 59 49 36 16 51 33 71 59 68 114 208 165 113 102 145
117 136 148 173 194 193 172 142 118 104 109 112 135 143 156 166 156 151 160 159 159 150 126 115 86 73 45 51 35 40 39 61 67 73 46 35 34 138 103 89 82 68 118
136 155 180 195 199 197 156 122 114 111 114 115 123 139 135 131 146 139 120 122 121 114 92 69 47 35 19 33 51 71 67 64 65 88 62 28 42 54 47 67 43 142 99
162 184 190 199 194 165 125 110 105 111 113 123 141 152 138 132 102 85 80 76 86 75 56 38 36 44 43 65 73 84 69 77 75 72 76 64 74 68 66 111 97 92 126
180 183 188 187 171 130 109 98 102 104 104 110 110 109 108 77 60 56 61 62 59 43 33 10 27 57 78 92 86 90 92 85 86 73 63 58 68 86 105 118 128 146 123
192 172 170 170 155 117 108 99 98 100 108 124 137 122 91 71 71 78 74 65 43 30 55 49 82 93 97 98 95 91 77 69 73 73 53 73 93 103 136 134 142 139 146
148 135 153 154 130 118 121 114 102 105 115 140 151 123 107 103 99 79 76 66 50 59 88 97 105 107 104 99 91 87 72 75 83 66 98 90 95 129 133 130 159 158 178
89 109 128 134 127 129 130 121 110 115 132 165 168 144 134 121 112 108 98 86 81 97 110 118 114 109 102 101 98 93 83 80 108 76 116 110 120 128 170 161 196 186 211
83 103 129 124 129 137 136 131 130 148 171 198 183 179 173 162 139 129 120 100 98 98 122 124 117 111 109 107 103 101 87 103 99 110 109 121 160 156 201 201 246 253 226
109 120 121 127 132 149 155 154 164 189 207 225 212 208 199 176 155 142 124 102 96 124 143 136 125 115 110 106 102 98 98 106 116 125 141 141 162 188 229 233 267 289 280
133 113 122 136 143 145 158 182 192 212 237 245 238 227 211 188 175 150 114 99 81 135 145 141 126 118 110 99 105 99 98 120 126 129 141 149 160 216 255 252 247 240 225
109 116 141 148 140 149 178 190 207 229 263 260 244 235 216 193 173 139 119 83 116 151 151 137 125 107 97 103 103 103 107 140 132 139 156 173 218 217 248 244 235 232 197
119 131 162 157 155 168 187 210 226 254 269 257 243 233 221 198 160 144 109 113 139 147 139 127 108 97 107 108 100 92 145 140 143 156 179 177 193 232 229 229 234 189 172
111 140 169 167 160 177 201 225 256 265 264 261 255 254 236 187 152 126 107 113 143 134 122 107 102 100 100 106 86 153 149 146 155 159 154 158 197 195 216 189 168 158 159
129 154 167 162 174 191 218 239 268 259 265 278 278 255 200 154 124 107 93 125 129 116 104 99 92 97 117 105 170 151 151 153 144 125 126 156 157 115 114 171 170 146 168
162 161 145 159 179 191 219 245 251 272 276 288 258 205 158 127 107 90 108 131 123 103 91 88 100 125 132 114 115 144 158 140 117 103 129 152 126 137 106 102 76 87 122
137 127 124 153 182 201 197 211 254 278 280 249 214 176 137 103 96 115 134 120 99 89 102 110 123 134 138 112 118 122 151 116 99 110 148 148 162 135 150 110 75 115 92
165 156 164 174 193 202 209 270 274 260 248 225 193 154 101 92 116 123 112 103 104 110 122 123 131 143 146 116 120 111 119 116 96 122 131 138 154 138 116 123 121 94 102
198 186 170 164 182 200 241 234 242 242 227 214 186 132 87 118 130 126 119 107 117 117 126 127 131 130 145 111 113 110 114 117 106 135 137 121 135 102 91 110 135 98 86
188 164 160 161 160 194 200 208 233 239 228 197 153 103 122 134 130 116 105 104 111 123 135 128 124 109 142 115 92 101 131 122 139 144 139 90 108 121 91 115 117 126 116
149 134 131 143 178 182 181 229 234 235 199 148 109 123 128 131 115 107 100 117 129 127 113 115 128 131 120 119 96 79 114 130 147 155 155 155 110 86 76 66 117 108 67
116 123 140 165 156 169 192 209 219 188 145 130 144 143 122 104 103 106 124 129 118 112 115 121 125 135 139 124 84 69 88 84 142 147 150 160 87 69 53 83 40 15 33
110 118 126 141 152 166 181 209 190 150 149 156 137 111 95 89 108 131 129 130 121 128 125 126 140 155 172 135 80 96 84 87 121 135 119 94 65 56 92 37 13 8 24
99 101 117 138 168 177 181 177 175 156 154 130 109 100 102 108 107 124 127 141 139 144 131 136 158 167 148 131 133 131 129 98 118 108 129 87 68 68 51 60 48 10 -2
96 100 128 158 189 160 178 178 152 138 122 109 109 108 113 111 108 112 127 135 125 146 158 143 150 151 153 139 81 86 114 118 105 97 111 105 95 91 71 14 18 24 41
113 130 165 185 183 174 171 151 131 114 110 119 121 116 112 110 114 130 140 99 85 110 119 87 93 134 86 51 46 48 45 53 48 95 106 102 80 5 -2 32 52 85 24

GFSMW_con_3kmhel_012.txt.gz
Helicity
121 89 103 127 171 149 138 141 142 120 120 177 235 244 232 225 237 229 207 211 207 185 182 150 119 103 98 80 75 40 35 33 60 42 45 15 70 78 84 59 95 89 102
137 118 133 163 183 206 231 244 250 225 231 218 198 181 175 183 174 183 186 169 164 144 105 92 80 77 69 72 60 45 29 44 54 23 25 5 32 80 63 32 42 34 29
175 154 191 199 221 235 230 198 186 198 208 215 201 162 134 149 156 133 110 92 89 92 80 67 53 44 41 47 62 60 66 48 69 82 54 8 10 30 -5 46 13 64 64
215 188 200 235 254 242 205 181 160 136 105 87 75 109 121 127 92 68 44 50 64 67 43 16 13 34 51 74 67 79 81 91 76 73 87 81 91 63 45 94 121 82 93
270 257 239 249 246 230 203 181 189 195 173 158 146 136 131 102 68 54 53 39 40 51 28 7 19 45 69 85 90 88 91 85 94 93 91 91 100 97 108 91 116 109 104
328 301 281 277 246 212 184 161 177 180 167 173 173 163 145 110 80 64 54 56 52 53 33 25 51 78 88 87 88 88 94 91 96 104 107 109 125 114 116 128 122 121 136
343 310 271 242 216 197 161 149 154 163 150 170 186 189 168 132 120 102 79 70 55 49 43 51 72 92 100 105 106 99 96 95 104 110 117 126 132 129 131 150 154 159 164
275 222 221 211 192 165 136 144 150 156 157 172 182 188 177 149 140 124 97 87 79 70 76 70 90 108 114 113 108 104 102 101 112 113 121 129 138 141 159 164 163 168 177
198 175 184 195 182 159 140 149 164 174 176 179 193 211 208 199 168 159 140 114 106 92 75 77 96 110 113 113 109 110 106 115 126 130 132 145 155 163 168 194 195 223 190
160 152 185 195 183 159 169 168 169 185 198 221 228 241 232 213 198 180 152 132 116 100 70 82 109 111 111 111 118 121 122 130 140 133 139 136 149 162 184 206 233 249 276
187 202 196 199 206 207 178 194 214 215 228 244 265 269 247 228 210 184 158 135 119 101 78 96 108 113 114 115 127 127 124 138 141 141 135 137 148 177 201 207 231 245 253
228 221 225 255 244 194 195 201 198 228 249 273 282 273 252 238 221 192 164 145 124 97 98 112 115 118 121 127 134 142 138 156 168 142 138 142 162 164 171 211 199 230 217
225 212 255 246 205 190 200 206 223 263 262 283 285 274 265 252 220 191 158 138 116 103 104 117 122 126 128 134 142 142 164 169 152 146 140 138 140 146 168 177 186 190 197
207 203 233 229 201 208 213 230 274 275 283 299 302 292 268 233 203 165 145 123 108 100 106 116 122 132 134 141 134 144 169 168 163 135 132 124 129 138 141 150 148 177 217
179 191 239 219 209 239 249 261 289 283 268 285 295 276 240 217 175 150 125 102 90 97 109 118 127 133 135 140 138 151 168 169 161 132 123 124 102 64 79 139 162 179 188
184 227 247 209 227 253 271 299 297 285 273 280 276 254 225 188 155 118 87 77 91 100 106 115 126 140 140 95 89 115 172 173 143 130 124 125 104 112 93 95 72 84 129
191 220 227 210 247 263 301 293 285 256 271 277 258 220 197 163 116 80 87 94 92 96 108 120 138 143 141 82 91 115 160 167 141 127 130 134 146 117 134 98 78 133 112
242 224 227 255 292 328 304 294 272 253 269 241 212 199 166 148 85 92 86 87 98 110 123 131 127 141 137 83 98 92 154 150 138 135 135 139 134 125 93 103 141 150 130
298 262 274 309 347 328 323 295 263 246 212 216 201 184 177 112 93 86 90 101 113 118 125 127 129 140 134 97 87 95 142 146 145 146 138 131 116 78 55 94 140 134 142
309 305 300 310 299 280 258 246 207 198 204 185 183 157 101 79 83 96 110 106 112 113 126 120 130 106 120 86 65 106 154 158 164 151 149 85 92 51 45 101 113 131 107
248 236 223 210 198 188 178 214 204 190 178 161 133 93 74 81 90 111 107 104 101 122 128 125 119 114 116 128 107 112 144 169 162 162 144 137 62 51 50 42 106 91 64
180 169 193 188 165 154 197 185 178 161 141 123 97 71 91 99 105 98 97 93 114 123 128 122 116 126 139 135 117 96 110 94 148 136 137 137 48 40 40 57 22 -9 -49
116 135 152 162 152 159 154 176 151 137 120 92 99 121 117 104 90 88 96 115 114 129 125 124 139 153 151 154 83 72 65 84 99 119 100 50 47 51 55 32 -16 -26 16
97 125 129 127 145 168 187 155 135 119 105 127 132 119 108 85 95 100 107 119 123 121 123 135 151 164 174 159 152 127 121 88 112 106 117 88 55 51 43 -8 19 86 85
90 99 97 115 133 129 141 140 127 122 142 137 124 104 96 101 100 105 108 114 106 99 110 140 165 174 174 149 63 73 114 111 97 80 112 94 86 40 1 39 96 96 34
83 96 131 182 141 142 149 127 129 135 136 130 100 92 104 104 109 119 123 81 67 62 72 66 96 136 84 46 47 61 49 43 47 92 71 6 -21 5 33 83 99 116 138

GFSMW_con_3kmhel_015.txt.gz
Helicity
154 104 113 122 121 122 129 152 227 331 417 425 388 397 325 326 293 260 241 224 187 170 146 120 113 100 93 84 79 46 54 54 64 30 40 19 53 83 74 69 84 77 77
201 145 167 179 189 164 166 210 262 301 296 281 252 254 255 255 227 201 193 160 143 119 101 83 72 76 67 75 69 59 42 26 32 -0 -18 -6 4 80 65 67 67 44 36
249 222 240 218 226 230 219 223 250 267 241 221 235 252 260 219 181 157 127 107 102 88 75 65 50 43 35 51 54 65 63 36 39 72 41 30 45 42 49 36 48 52 56
306 304 301 231 223 242 239 248 246 227 190 172 174 142 117 123 107 99 74 75 81 79 61 45 27 19 23 58 57 68 59 66 68 53 91 102 112 81 69 124 79 56 90
367 353 324 269 267 269 272 253 230 193 150 151 130 129 137 130 123 105 95 85 81 67 43 28 23 25 38 58 82 92 99 83 77 81 81 88 92 107 142 110 144 127 119
395 406 370 344 314 288 281 275 264 225 200 176 145 144 153 161 163 131 114 73 43 38 43 38 38 46 62 74 81 84 91 88 88 96 102 119 126 128 139 136 124 126 143
477 482 405 363 301 278 265 253 252 242 227 221 199 183 187 196 172 134 100 83 63 51 44 42 44 47 62 85 91 91 93 93 99 102 114 131 144 166 168 181 173 171 178
451 396 342 330 281 259 241 232 227 225 213 220 221 217 214 201 176 148 128 115 93 71 60 63 66 64 80 96 102 96 100 101 105 105 125 145 151 149 172 188 198 202 200
425 345 300 259 229 223 208 203 207 208 198 205 232 238 226 217 194 180 159 131 108 91 88 81 71 75 91 106 105 103 99 106 110 119 142 155 143 142 167 182 192 213 233
351 277 231 221 202 190 206 208 195 192 189 217 232 240 237 226 215 202 177 147 119 103 97 84 84 94 105 107 106 105 102 109 119 130 156 151 152 155 157 172 200 208 228
274 236 192 176 190 217 217 207 206 216 222 233 246 262 256 248 232 202 168 139 120 110 101 96 97 100 107 103 98 97 96 127 142 136 154 146 137 154 162 167 186 211 227
249 220 192 210 238 228 228 215 227 232 227 240 262 272 267 261 233 198 165 137 124 109 107 108 104 105 97 92 98 116 131 144 151 143 150 153 149 144 149 182 184 196 188
251 233 231 238 239 243 240 231 239 244 250 265 283 286 278 254 218 183 153 137 124 114 110 105 100 98 96 103 113 127 133 145 145 147 148 138 139 152 169 170 172 167 152
253 275 261 231 222 228 234 245 253 257 264 281 289 282 257 222 187 169 145 121 105 103 103 106 104 94 97 106 106 117 139 151 158 144 139 143 148 151 146 145 150 154 154
273 294 272 246 231 230 246 273 277 261 269 297 278 257 221 195 185 158 122 95 105 110 104 96 90 93 107 103 107 124 145 156 152 149 148 138 110 94 116 152 140 131 147
242 275 267 237 216 237 275 291 268 248 271 263 249 216 204 202 171 136 91 100 109 99 93 89 96 107 107 81 70 105 148 157 161 158 155 164 117 105 80 76 61 73 121
249 272 262 233 226 258 295 290 264 249 243 232 211 209 208 173 143 115 100 105 96 92 87 95 110 122 123 85 92 92 140 169 176 174 178 163 137 95 117 80 63 90 75
240 265 249 248 290 329 317 298 262 247 230 216 205 191 167 150 143 114 103 99 91 91 100 112 124 133 124 88 85 105 165 172 173 181 168 130 116 103 80 88 98 118 93
281 312 296 316 355 346 322 298 251 223 205 190 181 167 153 145 121 112 102 89 94 105 118 128 125 134 117 93 118 135 171 173 186 178 151 125 110 70 42 67 101 84 86
403 398 380 372 370 295 280 262 217 195 191 169 152 143 137 119 108 100 91 91 99 114 131 120 117 96 122 113 103 156 174 185 187 167 121 69 84 38 31 68 90 83 51
353 330 304 276 228 235 238 210 195 178 153 148 142 133 121 104 85 84 86 96 117 124 121 123 119 113 107 110 105 121 168 164 161 143 138 131 48 37 39 37 70 22 -44
235 212 216 194 172 183 206 195 180 141 145 139 129 116 102 81 80 84 98 112 113 112 122 131 133 118 101 71 90 89 110 78 127 133 142 133 56 38 -19 42 -2 -17 -38
165 152 163 178 161 165 167 155 122 134 132 128 129 108 87 81 91 104 106 105 104 118 120 135 128 107 106 144 81 86 53 75 107 126 89 77 50 42 63 -7 -10 -21 9
109 121 155 175 174 144 145 147 130 132 138 128 102 90 97 108 108 101 93 96 109 119 116 106 115 120 132 136 144 130 115 93 107 87 106 70 61 45 -1 31 53 26 34
103 120 129 129 134 149 157 142 136 127 119 103 99 110 110 111 99 89 87 102 93 99 108 111 121 136 143 137 95 104 107 98 85 70 91 95 76 12 69 80 81 96 91
92 101 104 122 116 144 150 129 112 105 108 119 118 106 104 98 96 100 104 80 85 76 65 75 117 148 107 75 75 65 54 48 42 94 106 -15 1 49 60 95 141 138 118

GFSMW_con_3kmhel_018.txt.gz
Helicity
145 145 141 126 155 159 156 177 277 360 468 486 431 443 339 290 312 266 235 220 186 162 146 119 107 98 96 83 86 65 86 71 66 51 61 59 104 119 135 64 105 79 134
187 196 169 155 140 150 167 218 268 350 410 410 376 376 326 273 263 249 254 205 172 150 123 103 89 78 67 84 83 82 64 53 47 12 -7 20 42 80 32 61 57 110 59
211 206 210 191 178 171 167 200 230 274 329 359 389 393 354 301 275 244 215 178 145 125 108 85 63 60 57 65 62 61 61 46 27 28 24 29 52 34 30 31 64 69 97
282 314 285 257 223 200 190 205 220 246 252 255 269 249 242 224 163 159 152 150 137 117 91 69 54 46 41 57 51 60 61 59 62 41 89 71 92 74 58 94 64 58 91
330 339 299 293 276 249 238 237 241 229 198 198 205 198 204 178 165 168 162 146 126 104 79 58 43 40 43 49 64 77 94 79 72 72 68 74 97 96 134 123 125 102 109
385 428 413 393 345 320 288 255 252 220 179 178 168 175 179 178 180 150 143 120 102 86 74 59 51 53 62 69 77 88 101 94 90 87 92 96 103 114 128 142 136 148 174
463 457 426 388 356 356 320 277 261 218 187 196 181 166 167 167 170 151 133 117 90 76 71 69 75 73 79 92 98 105 108 93 89 83 92 111 132 161 187 184 147 173 208
421 483 438 418 395 389 351 303 272 255 233 221 205 198 201 203 194 174 159 133 103 85 83 89 90 101 111 116 115 103 96 93 94 90 105 122 147 173 202 201 208 192 231
483 433 419 397 382 358 315 305 281 266 255 245 238 233 230 238 230 210 180 147 128 115 121 121 121 121 124 121 115 109 101 98 96 101 118 136 146 165 181 207 240 273 296
441 418 388 340 321 315 308 287 245 237 233 246 244 241 249 255 238 211 192 170 148 141 143 134 127 126 120 120 119 111 106 109 116 112 126 141 155 167 173 202 226 245 274
411 379 309 293 311 301 271 254 243 257 251 252 263 268 263 255 237 219 194 172 155 149 141 129 128 120 122 120 117 114 106 112 108 120 138 142 147 156 171 188 213 234 228
362 313 269 271 262 233 240 233 233 241 233 251 267 271 260 248 241 223 192 163 158 145 133 122 123 127 126 115 116 114 107 110 135 145 156 151 139 151 170 195 193 206 213
268 240 236 223 211 208 225 226 227 240 245 261 272 263 252 246 233 210 180 175 166 140 125 133 137 132 119 110 109 108 115 133 155 155 153 142 156 165 162 176 202 195 174
224 223 207 196 188 201 230 240 250 243 251 258 255 245 234 232 219 204 199 183 148 128 139 144 134 120 108 104 100 117 137 154 147 153 162 169 170 161 163 178 173 191 183
182 196 201 191 208 227 238 256 258 257 252 249 230 219 228 228 225 218 194 161 133 137 140 143 125 112 107 96 109 123 141 139 158 170 184 179 155 139 159 176 184 154 164
172 190 205 211 194 224 264 278 272 254 227 211 205 217 229 226 212 197 172 152 150 147 146 132 112 103 103 97 118 134 150 164 175 174 178 201 147 140 121 101 69 70 124
198 222 223 202 206 238 247 246 238 219 212 205 204 211 211 203 194 177 170 157 146 137 125 111 105 104 111 115 129 140 169 167 166 178 189 192 183 145 127 77 50 90 76
173 211 235 231 233 250 259 275 245 211 193 194 196 192 191 198 186 173 158 141 133 123 116 106 99 101 105 128 146 146 169 163 169 182 192 185 147 121 93 107 138 140 91
195 227 249 278 286 284 275 278 226 198 193 180 179 191 193 182 162 154 150 136 129 117 106 93 91 113 118 119 138 141 153 138 152 171 180 128 114 70 42 105 102 106 95
264 304 302 303 310 283 290 249 190 189 186 186 191 184 167 157 154 149 153 116 106 87 88 102 114 109 128 97 107 124 134 141 155 171 136 57 76 45 58 80 93 93 37
320 315 304 298 284 263 246 227 208 193 184 192 182 164 155 156 151 137 120 98 93 92 104 109 120 122 118 116 75 98 145 151 173 161 136 117 49 41 38 37 96 47 8
319 316 327 273 227 223 237 213 204 183 186 174 167 163 163 156 140 133 106 93 90 96 105 117 124 122 116 67 87 99 119 112 156 148 133 111 48 38 42 60 -7 27 52
267 246 254 234 193 185 202 217 167 166 166 168 178 174 160 159 134 112 89 92 103 111 117 126 121 112 111 127 77 86 100 112 121 131 89 72 51 50 61 29 33 -28 35
187 174 191 184 183 180 177 170 145 150 163 183 176 170 161 136 108 90 95 100 106 116 122 120 123 121 118 126 135 138 132 109 109 83 103 69 63 -25 42 69 44 58 39
131 143 160 164 160 154 165 155 151 157 178 175 164 149 123 103 102 108 95 107 106 112 121 125 131 135 129 123 131 127 117 109 83 70 92 91 3 90 94 62 77 78 66
123 149 147 154 130 152 165 153 146 150 161 154 133 109 103 107 112 111 118 113 106 95 96 114 136 151 121 111 104 84 83 56 51 86 91 -53 92 96 48 86 108 100 67

GFSMW_con_3kmhel_021.txt.gz
Helicity
67 79 134 139 139 142 181 219 300 345 427 461 482 427 423 378 361 287 236 218 206 184 160 129 109 95 82 75 87 74 87 68 65 51 77 89 113 120 133 85 104 87 131
57 100 145 154 139 141 162 226 297 363 424 442 427 409 400 329 291 243 251 242 210 170 146 111 91 80 69 81 79 83 67 65 60 35 26 43 74 103 87 109 92 92 65
99 150 171 154 163 148 164 205 262 345 409 462 481 490 424 380 284 251 271 245 196 163 133 113 93 83 59 55 52 59 68 62 54 64 48 41 73 68 37 95 85 61 66
120 203 236 204 181 150 181 207 233 274 309 343 375 309 281 269 219 238 228 212 179 159 130 116 97 69 45 58 52 61 59 56 56 61 93 78 92 101 100 75 108 42 65
132 193 222 200 190 204 194 204 226 234 241 260 291 314 331 302 273 245 233 205 183 160 143 112 83 67 53 52 68 78 85 79 83 83 83 87 104 89 129 133 92 70 69
107 210 332 300 281 251 240 228 234 233 219 224 239 257 284 271 251 206 200 175 161 154 132 109 94 82 75 73 78 89 100 102 106 104 101 103 104 112 109 123 114 107 106
216 304 328 314 282 260 266 265 259 254 220 216 210 231 237 210 189 164 160 157 150 138 130 112 102 90 86 95 105 113 116 109 110 105 106 117 125 140 144 139 123 126 146
211 284 346 362 326 307 296 295 298 290 247 235 223 217 211 198 185 168 172 175 165 153 136 125 118 118 120 121 124 121 119 109 107 104 113 123 134 152 166 168 154 125 159
199 279 403 404 374 349 329 325 335 322 282 267 244 225 222 220 205 210 214 198 183 154 142 137 135 130 132 134 136 126 118 107 108 108 114 137 140 145 159 172 186 208 222
210 300 410 451 410 378 372 361 320 295 286 284 253 239 238 234 232 234 225 211 188 172 160 153 152 151 147 141 139 123 108 110 117 124 133 141 149 147 151 171 173 192 227
301 366 435 413 421 404 362 361 328 322 306 291 280 272 263 258 252 245 229 213 197 191 179 164 165 160 150 148 135 117 102 122 118 124 137 132 139 167 162 164 179 196 211
284 377 456 422 381 372 341 338 318 315 285 280 284 274 261 253 254 241 230 219 216 198 173 170 175 166 152 131 122 115 114 112 122 125 134 136 154 162 166 185 184 208 225
258 315 346 330 344 338 325 296 277 282 271 283 284 270 256 245 237 240 236 226 219 195 187 189 177 153 135 122 114 111 110 115 122 122 137 146 153 168 178 190 201 192 162
222 251 285 289 292 280 273 257 269 261 262 270 264 250 226 224 232 234 239 237 212 202 200 177 156 143 120 108 102 108 113 117 119 139 148 149 174 181 188 171 169 193 191
158 195 231 234 250 252 244 245 255 255 252 254 238 220 223 228 234 246 245 226 215 200 180 165 144 128 110 101 104 104 109 123 136 135 144 166 174 166 175 188 192 173 175
124 161 196 211 208 212 221 243 245 233 225 220 219 216 222 227 241 243 227 220 211 190 158 146 136 122 107 88 103 121 140 140 132 140 162 190 165 151 120 114 88 86 120
124 159 179 192 201 212 243 230 214 219 219 217 207 210 213 225 228 227 231 220 185 153 158 144 118 107 95 87 110 114 142 136 143 164 183 182 157 136 151 104 64 89 141
109 138 180 203 217 225 226 243 219 210 216 217 208 199 206 219 222 227 215 173 161 162 145 114 105 103 103 103 93 94 141 153 166 181 165 153 145 122 90 115 138 94 96
143 171 189 228 223 233 237 260 233 223 215 201 190 186 197 215 220 201 185 178 159 135 113 105 101 108 102 87 98 121 153 171 164 159 131 105 105 70 41 113 105 103 113
189 225 225 246 264 231 255 266 228 220 199 172 181 200 214 204 194 195 181 136 118 110 109 104 107 91 107 95 104 132 163 161 153 143 115 77 87 42 60 87 100 108 103
214 224 227 247 243 252 275 264 221 188 174 198 214 214 208 207 194 172 140 129 119 110 111 110 96 100 113 120 112 124 152 152 155 149 143 121 58 41 42 46 98 95 72
240 250 298 284 256 252 277 243 210 186 204 214 225 226 219 194 164 166 138 121 114 112 100 96 109 116 117 98 108 119 119 115 152 140 120 114 46 36 43 57 39 25 13
257 250 300 301 253 225 213 224 181 205 229 242 229 210 191 176 165 144 129 113 108 92 94 112 117 121 114 125 91 100 92 98 108 134 82 69 53 53 58 39 24 23 95
252 248 283 269 231 198 213 220 206 216 226 229 216 195 176 156 141 127 107 94 87 99 111 112 126 128 122 129 143 138 131 94 113 92 121 78 73 52 55 67 74 96 88
198 189 200 208 210 218 230 200 192 200 225 205 178 167 152 144 127 106 82 89 88 95 111 127 132 129 131 124 122 126 118 110 96 89 109 94 84 80 78 81 89 93 94
141 177 186 204 184 203 210 200 185 177 181 176 158 144 134 121 109 105 107 98 95 103 113 108 117 135 119 122 114 83 82 72 66 102 94 94 88 79 81 88 98 124 98

GFSMW_con_3kmhel_024.txt.gz
Helicity
104 74 54 86 134 137 153 145 226 296 423 473 472 420 382 385 392 354 311 271 188 184 196 154 128 98 79 56 48 20 49 44 38 30 63 75 96 106 125 135 95 116 96
54 63 57 93 145 123 138 164 213 299 377 434 467 438 394 394 391 342 299 209 189 204 182 141 119 94 59 56 45 44 21 23 18 8 -5 28 55 109 87 84 96 117 98
59 23 76 87 132 108 138 177 217 307 384 455 522 553 460 461 376 290 247 205 211 212 170 139 111 83 49 34 23 22 33 31 21 32 22 6 35 58 72 121 79 104 67
141 54 69 116 112 125 133 164 229 300 338 404 445 431 367 305 261 252 241 237 223 200 165 137 104 83 59 50 26 26 20 20 37 36 71 78 97 72 74 96 112 78 84
150 109 111 126 175 161 159 165 232 249 294 361 364 386 373 283 313 284 276 248 230 196 163 129 112 101 72 57 59 55 61 48 49 54 71 92 112 117 159 155 127 76 69
157 136 162 240 234 182 171 183 214 222 248 285 300 305 333 305 297 263 268 233 207 182 157 140 123 104 88 78 75 78 85 80 84 85 85 90 109 125 123 144 111 88 71
158 193 212 223 229 182 183 195 204 213 215 218 244 251 257 276 273 250 223 200 186 164 149 134 128 109 108 116 110 102 96 92 96 97 104 113 116 130 137 133 105 97 85
146 159 189 214 223 224 212 210 210 250 209 219 248 266 287 279 236 208 203 200 178 159 142 147 149 146 139 128 125 109 103 104 103 102 112 118 120 143 159 158 123 77 116
115 138 195 212 263 266 254 249 264 297 254 255 265 280 287 267 242 237 230 208 186 169 171 171 170 162 147 142 137 118 110 107 107 109 115 129 134 157 163 178 184 176 155
141 168 177 268 302 318 369 322 291 300 297 291 290 290 285 280 265 252 233 216 204 193 191 188 180 160 156 153 135 118 113 115 117 120 125 134 161 167 188 197 204 216 218
134 214 269 304 380 397 357 355 345 354 354 317 318 326 315 296 284 265 233 216 207 201 197 184 175 174 163 139 127 120 111 125 118 121 129 134 155 187 195 216 220 211 210
184 226 272 331 356 362 327 339 349 375 354 316 323 323 308 292 285 261 236 218 214 207 197 189 191 172 139 128 134 123 117 113 122 122 137 141 153 171 194 205 192 199 208
209 292 286 315 358 336 345 334 343 384 357 333 323 308 288 277 263 252 235 221 213 211 209 203 184 147 134 134 123 112 108 113 117 126 136 138 159 175 174 171 191 205 201
139 166 222 295 325 304 332 333 359 356 333 314 293 275 255 252 247 230 223 220 213 213 204 185 153 138 131 121 111 111 106 118 131 135 144 157 156 144 138 157 175 212 214
138 118 161 213 261 302 311 310 324 322 284 276 260 248 246 241 233 232 228 222 218 206 188 164 147 145 128 111 98 98 114 126 133 140 143 131 102 82 146 195 211 185 167
108 84 120 164 217 252 272 299 294 255 229 233 238 228 230 231 235 231 219 217 210 192 165 154 154 139 110 78 87 102 128 137 142 137 127 139 100 135 126 128 97 81 103
54 37 73 135 185 212 243 234 208 205 222 230 216 212 224 237 227 217 211 206 193 162 157 155 131 107 89 77 87 94 143 143 132 122 137 157 167 150 171 110 66 70 61
45 49 111 166 193 216 220 226 205 201 214 215 214 216 219 227 216 209 201 186 164 161 145 119 103 99 98 94 88 95 140 131 125 140 151 171 160 144 88 97 125 96 106
80 96 113 164 189 201 210 241 230 230 229 212 199 192 203 203 195 196 184 164 159 137 119 101 101 98 86 88 106 110 124 132 135 152 134 132 126 65 26 97 107 107 112
138 143 148 183 214 195 233 257 228 221 203 181 190 193 196 195 191 174 166 142 122 118 110 99 92 75 99 100 79 80 120 140 156 138 141 96 86 24 47 87 103 103 104
144 159 161 176 191 216 248 259 225 198 191 215 225 224 204 192 171 159 129 130 131 116 102 86 91 112 105 93 76 82 134 151 158 154 138 115 35 35 42 46 95 90 62
160 181 233 233 208 224 268 251 227 207 237 250 237 213 192 174 149 152 137 128 114 99 95 106 112 106 94 65 80 107 128 125 165 134 116 106 39 37 46 58 31 12 19
208 199 244 260 236 219 228 262 219 250 246 234 212 191 177 163 149 147 125 104 97 99 105 109 108 110 93 105 89 103 103 102 100 112 66 50 50 47 58 30 15 24 83
207 205 258 264 259 254 266 247 217 220 222 213 187 166 165 163 137 114 104 102 104 108 108 108 106 104 106 115 126 130 119 82 92 85 107 77 64 52 36 52 67 89 88
199 208 239 254 253 256 261 213 186 188 202 189 175 170 145 127 118 103 93 101 89 89 94 93 103 114 124 116 110 113 105 104 88 82 115 86 73 67 66 76 84 98 115
161 223 236 256 239 237 206 175 157 165 179 173 141 126 119 108 109 114 110 101 90 83 85 85 110 135 112 107 105 78 80 65 61 107 93 81 78 71 76 90 112 146 123

GFSMW_con_3kmhel_027.txt.gz
Helicity
145 190 195 173 116 118 105 105 139 147 251 334 424 417 382 370 394 384 360 336 268 224 172 153 157 130 116 94 76 48 40 36 27 25 51 61 77 83 101 93 94 94 103
70 119 150 177 139 109 126 143 129 149 205 282 398 446 456 398 393 407 361 307 188 212 158 171 149 122 95 96 83 43 14 10 17 -3 -18 34 52 107 65 98 115 122 126
89 87 91 129 168 115 120 157 137 162 238 360 521 560 480 462 428 406 364 286 245 217 188 166 140 116 97 79 61 49 33 21 14 29 13 3 37 66 59 96 109 134 99
95 100 109 131 139 127 148 138 131 191 253 317 390 434 397 361 311 342 305 221 222 201 175 161 140 122 90 70 58 44 36 12 33 15 38 38 51 42 40 60 93 88 83
100 101 105 140 149 170 161 160 146 173 226 263 319 409 371 335 387 377 349 277 255 207 175 157 138 115 91 83 69 55 47 35 25 33 40 61 74 88 91 95 99 81 45
99 85 93 129 160 205 171 147 150 179 218 261 293 350 403 385 374 331 281 214 223 205 181 164 139 117 103 89 77 70 67 58 58 52 55 61 61 65 85 109 100 96 47
76 95 119 139 159 207 171 163 160 177 207 238 279 309 338 293 274 278 270 247 241 199 173 150 130 117 103 97 90 88 85 85 81 76 81 83 82 99 112 116 106 119 90
56 78 100 142 142 209 206 176 165 190 190 226 270 306 304 280 293 287 257 229 216 194 168 156 139 122 113 111 109 106 101 91 89 88 91 100 102 117 118 115 104 89 105
59 88 75 136 160 196 207 204 213 210 220 235 304 300 278 272 267 274 259 244 226 201 169 151 142 133 128 125 122 109 103 103 111 109 107 109 111 122 125 144 159 159 146
104 87 80 128 164 184 221 230 217 243 245 262 258 274 272 289 308 274 259 239 222 194 167 156 150 142 139 136 119 120 120 116 115 111 108 114 124 125 146 167 180 196 204
145 129 113 152 205 254 251 266 285 291 292 302 316 338 337 329 292 269 245 229 209 181 173 161 154 147 147 134 135 130 114 111 107 112 124 123 135 150 161 177 192 210 212
86 128 151 169 211 277 289 285 325 323 320 334 376 380 373 335 297 261 236 208 205 187 172 162 159 156 145 141 135 115 108 108 119 124 134 136 152 144 148 169 173 192 181
121 135 127 149 213 276 300 309 349 350 357 365 411 387 347 313 275 239 218 208 196 185 174 168 166 154 146 135 109 94 105 115 116 124 130 129 135 136 147 158 170 165 162
217 164 140 163 204 259 331 348 370 361 356 352 365 333 288 267 239 224 213 197 183 178 177 173 153 145 128 106 97 101 104 111 114 125 128 126 125 133 139 143 112 130 167
225 127 99 141 207 257 296 306 325 323 314 339 325 283 267 253 237 221 205 197 195 190 174 148 143 131 108 104 99 97 106 117 124 121 115 121 123 107 120 149 158 151 153
213 117 108 139 187 214 247 276 310 318 310 314 287 247 240 228 216 206 203 205 198 175 150 145 135 124 106 89 94 102 115 128 128 116 114 125 125 117 79 109 91 110 114
198 87 58 77 126 169 215 246 268 285 294 283 230 217 212 211 205 201 201 192 173 143 137 133 122 110 100 87 90 97 126 134 120 112 118 130 123 99 133 96 65 71 71
140 51 34 52 120 171 218 252 251 258 262 233 207 191 200 206 199 197 184 162 136 133 123 118 109 104 86 83 94 103 127 120 111 116 107 101 109 107 85 108 127 93 80
71 35 42 85 124 166 204 244 239 229 208 183 175 176 185 194 180 172 151 136 128 121 115 99 104 95 91 97 94 109 116 119 123 101 74 99 104 76 52 112 105 88 82
74 73 83 121 158 155 195 230 204 189 177 168 179 181 171 160 150 141 137 123 119 119 111 100 86 79 94 89 94 98 124 126 100 79 99 88 97 60 58 87 92 94 59
54 69 96 112 128 152 197 209 182 184 192 211 200 178 155 151 138 134 125 117 122 115 100 92 96 87 92 98 92 110 125 102 106 126 115 112 62 43 46 37 81 69 44
80 93 147 147 128 151 211 217 230 205 215 198 182 162 147 142 137 134 121 127 110 101 98 92 98 107 101 99 104 90 80 88 136 122 109 92 44 41 35 52 30 7 25
107 120 192 220 184 172 215 272 196 192 194 188 168 167 159 140 125 131 119 102 97 91 88 95 103 107 107 104 70 56 78 88 109 114 65 52 50 39 53 30 11 19 50
147 147 207 243 248 234 242 226 176 174 185 186 158 134 137 140 130 110 97 94 82 82 97 108 106 101 92 78 71 88 97 87 101 79 105 73 62 53 43 38 49 57 58
148 160 218 243 239 232 229 177 164 174 176 153 137 140 138 121 103 99 86 79 75 83 98 98 92 81 76 77 88 106 106 114 93 86 105 90 66 52 41 55 64 72 77
135 200 229 250 222 225 197 156 132 139 147 148 132 117 106 101 100 93 90 100 113 106 100 97 97 95 85 93 106 81 85 81 76 96 92 73 60 47 51 65 89 102 97

GFSMW_con_3kmhel_030.txt.gz
Helicity
96 136 251 228 198 180 159 122 105 96 126 160 159 208 304 315 352 371 286 294 240 260 176 142 135 114 103 89 74 62 53 43 34 20 40 56 72 79 92 87 97 118 94
62 82 113 212 222 231 177 159 128 117 122 163 170 200 320 417 444 460 313 308 318 226 175 110 134 117 105 102 87 57 38 37 37 27 24 56 63 87 65 101 103 100 113
62 75 95 116 181 229 235 174 152 137 143 144 239 335 436 484 519 427 392 351 312 258 209 143 150 125 110 96 84 67 45 38 40 44 35 27 69 97 75 87 106 109 120
61 54 70 102 129 177 212 192 162 157 162 202 185 226 370 489 382 340 349 337 285 253 127 172 149 127 109 96 80 68 60 32 48 33 60 68 83 75 73 78 25 102 72
42 79 76 78 117 140 163 190 158 160 165 136 146 196 302 425 379 362 369 357 249 183 157 161 145 129 113 100 79 64 61 63 57 56 56 59 64 68 95 82 90 90 75
96 70 77 100 103 144 155 163 161 163 151 134 140 191 316 413 326 358 416 343 237 204 176 171 147 129 117 97 80 74 73 72 71 69 67 72 83 85 95 91 85 87 68
75 122 95 80 106 157 152 162 149 162 142 135 144 188 261 258 229 319 342 281 219 180 165 165 143 132 122 99 84 80 78 75 75 81 88 94 91 99 101 106 103 112 94
83 52 108 83 90 119 121 145 137 147 137 142 165 196 256 239 287 331 303 250 207 183 179 171 150 131 113 100 91 90 90 93 93 100 106 109 109 112 112 119 114 101 92
59 90 64 73 86 96 119 126 118 128 142 151 208 234 329 312 396 320 289 271 244 215 188 165 144 128 116 104 96 98 99 98 114 118 115 113 121 119 117 123 125 116 108
20 112 89 89 74 80 112 127 117 132 159 194 201 235 285 349 318 323 292 240 226 211 183 162 144 129 116 109 108 103 113 114 126 133 128 121 127 123 125 132 140 154 166
7 42 123 105 94 105 125 139 141 157 175 187 225 256 333 321 297 297 288 240 224 198 176 155 142 128 120 118 109 116 120 124 139 133 124 123 127 127 136 145 169 187 193
-70 -24 137 113 113 116 123 146 173 181 193 216 258 335 333 317 315 276 255 222 217 194 172 157 145 138 131 123 120 118 130 134 128 123 124 122 137 130 147 175 176 191 197
-115 -51 95 118 92 101 112 155 172 198 218 261 349 356 368 304 276 267 243 222 204 191 176 161 152 143 136 121 113 124 125 118 112 121 127 130 137 148 168 166 182 193 202
-99 -20 103 124 114 95 117 179 221 222 296 344 358 366 275 277 286 260 231 209 190 184 176 169 161 143 123 113 121 115 112 109 112 115 114 130 143 144 151 164 174 187 200
-36 21 134 108 77 116 177 209 253 299 333 370 335 291 293 279 277 246 223 202 190 184 173 161 143 128 118 125 118 112 104 101 107 109 125 133 137 121 142 193 184 177 168
34 68 127 70 65 107 181 236 299 312 330 352 339 291 304 283 261 223 203 190 179 171 156 145 137 123 117 128 108 103 102 101 108 117 120 127 138 148 151 156 131 109 124
85 89 115 133 125 139 192 261 309 313 304 256 249 283 259 253 219 195 182 172 164 148 144 136 121 121 117 114 104 95 93 117 116 112 128 145 166 163 170 126 62 91 69
101 76 82 90 115 138 191 266 261 250 229 242 242 232 226 211 187 172 168 159 144 138 129 123 118 109 112 96 92 94 91 110 113 118 124 153 170 147 110 102 136 116 88
97 89 88 136 131 154 170 210 194 190 223 218 211 194 178 170 158 154 145 140 128 119 119 112 107 108 97 99 92 91 101 114 119 123 126 136 88 77 77 126 113 97 77
45 29 33 52 67 79 108 151 180 190 201 190 186 166 150 147 144 138 130 122 123 119 105 102 91 94 85 95 90 89 110 125 140 129 108 84 109 85 57 97 97 98 63
39 37 34 50 68 84 117 168 168 178 170 169 167 160 148 143 131 127 126 118 116 108 109 97 89 85 97 102 97 101 109 133 135 112 103 116 87 45 50 53 77 80 54
22 17 46 67 65 91 140 163 163 145 161 162 159 150 136 131 126 125 120 116 118 112 99 88 92 103 103 103 96 100 119 119 121 111 108 95 46 45 43 60 54 24 28
28 26 76 89 76 75 95 175 145 147 158 151 142 134 131 129 122 121 121 115 105 91 90 94 101 107 117 115 113 103 93 75 97 103 73 34 52 47 57 45 20 33 68
82 95 118 124 125 106 132 186 148 129 131 135 127 124 127 127 121 120 112 95 90 88 92 97 101 104 104 116 126 112 101 85 96 90 86 67 60 52 48 44 56 70 75
104 119 140 164 170 152 158 136 111 111 132 133 123 123 125 125 117 104 92 89 95 91 93 102 101 108 115 122 100 93 98 111 96 84 84 85 75 63 53 57 61 70 72
129 184 179 184 167 156 150 125 105 101 119 138 137 129 117 106 100 96 91 91 86 87 99 108 119 119 102 99 96 83 76 84 72 84 89 83 65 55 54 54 58 68 66

GFSMW_con_3kmhel_033.txt.gz
Helicity
53 66 100 201 204 173 169 125 137 138 154 157 151 154 257 354 317 336 317 230 249 248 220 201 187 140 96 103 89 72 61 60 43 9 35 40 64 56 71 83 80 83 78
47 53 67 82 148 202 213 247 195 184 171 186 166 182 360 417 408 414 338 367 329 288 222 231 180 166 113 119 93 67 55 52 45 20 -8 25 58 57 57 103 113 112 129
68 57 61 79 103 133 207 249 237 214 207 200 210 344 520 558 527 478 464 434 350 307 312 271 196 167 126 113 97 78 66 47 43 45 32 24 62 101 83 103 112 106 119
79 62 72 94 88 107 169 220 252 266 237 234 292 312 449 423 360 450 528 480 359 361 304 288 239 171 137 111 96 84 74 44 60 28 61 78 111 94 104 150 110 105 129
98 102 85 92 99 115 153 184 248 262 264 252 264 302 247 231 300 472 521 439 370 305 267 298 168 194 135 117 103 86 79 72 64 65 69 64 66 64 99 96 91 124 122
177 170 117 118 122 124 183 230 200 231 274 265 245 205 224 300 414 518 509 430 369 293 254 272 219 171 138 122 108 98 82 79 81 79 77 84 100 117 140 130 114 112 109
62 86 92 87 82 131 144 259 197 213 259 226 172 163 246 255 327 405 426 412 352 307 277 231 185 159 145 125 103 90 78 78 77 83 89 113 110 125 130 132 131 141 143
77 64 93 66 78 97 121 189 172 207 217 191 170 186 282 273 330 366 365 350 323 262 244 210 182 156 137 121 105 95 87 85 80 96 111 121 126 136 138 154 157 137 144
76 82 64 84 61 75 87 136 153 192 200 178 181 272 227 237 325 312 315 325 312 278 234 202 181 160 138 122 105 95 84 86 103 113 115 115 128 146 152 160 156 152 153
85 99 52 36 68 68 87 92 121 176 178 166 246 235 226 369 377 339 394 387 338 246 237 193 177 159 142 125 111 105 111 108 121 121 127 139 151 161 156 142 151 169 186
60 44 35 -44 81 75 93 106 144 162 170 211 213 240 237 303 358 386 422 318 245 263 201 193 176 155 136 124 113 121 120 115 119 131 133 142 151 146 143 154 167 186 195
2 -32 -5 -65 45 90 114 115 202 143 173 234 198 199 251 347 350 389 282 239 274 235 237 190 170 157 141 130 128 125 127 126 124 135 150 142 141 142 143 154 168 186 189
-22 9 8 -79 49 103 131 162 169 175 216 230 212 220 296 366 360 377 301 250 265 255 208 184 167 147 143 138 141 142 132 124 128 139 139 133 133 145 155 170 190 200 216
-6 -11 -23 -63 40 97 129 156 185 187 203 221 225 290 325 359 374 343 296 283 262 193 179 168 165 156 145 148 143 132 119 123 128 123 120 122 134 140 170 200 197 207 226
5 -9 -51 -21 72 112 128 173 165 182 193 237 262 309 366 363 351 364 276 251 218 188 162 166 156 149 143 154 146 125 127 123 115 112 118 126 149 151 137 166 187 203 221
28 -3 -13 14 84 139 179 152 158 208 237 287 356 386 393 326 247 256 226 212 198 186 161 154 154 152 147 151 129 132 120 106 104 122 132 144 141 151 165 158 163 153 164
41 2 -25 29 80 116 150 161 194 275 384 450 459 417 313 219 240 207 187 199 207 166 157 154 152 137 120 152 125 104 93 93 105 122 134 141 155 177 203 186 134 131 62
23 -13 -16 54 100 124 166 206 270 360 443 464 408 259 213 234 218 205 189 185 167 143 147 143 119 119 137 130 101 87 75 94 104 119 122 137 155 171 161 167 140 126 102
-10 -0 58 100 143 172 200 280 338 363 360 324 217 132 168 229 210 174 167 165 145 141 129 116 128 116 105 127 90 91 96 103 108 113 135 149 164 121 104 125 129 109 108
50 82 104 153 162 170 202 261 283 277 248 122 109 129 151 162 162 172 170 150 136 125 125 122 103 109 80 102 105 103 103 96 140 154 150 123 119 109 86 110 109 102 94
83 90 98 99 88 112 136 139 116 87 91 93 159 163 152 181 177 155 137 129 133 125 108 94 76 80 95 108 109 101 102 129 152 149 143 135 96 84 54 58 93 90 68
-4 19 30 35 27 21 68 116 124 120 163 190 178 179 169 147 143 144 137 129 117 110 95 84 86 101 104 102 98 99 90 97 134 135 126 118 63 46 43 61 45 32 34
4 24 57 78 82 95 107 163 137 136 149 166 157 143 139 134 128 124 118 119 104 93 94 97 107 109 122 115 110 106 111 114 129 124 92 52 43 42 63 43 26 40 85
32 41 90 121 118 108 134 125 113 124 144 152 135 129 135 129 120 115 106 92 90 89 94 103 108 117 122 131 167 157 144 117 121 104 99 75 43 52 54 54 64 76 80
91 90 118 125 125 138 161 145 140 138 142 134 131 126 115 121 113 105 91 87 106 106 103 113 122 124 128 147 144 135 133 120 103 83 103 86 81 75 61 64 68 73 82
108 137 152 163 160 170 176 153 129 122 129 134 121 117 111 99 90 83 85 87 95 96 95 104 116 123 118 131 118 97 65 62 60 99 89 83 72 57 55 64 69 88 86

GFSMW_con_3kmhel_036.txt.gz
Helicity
80 99 120 127 175 135 159 195 248 276 274 246 234 257 216 328 326 301 315 508 386 291 263 268 289 231 172 134 129 116 92 96 64 41 32 23 59 46 40 62 83 90 96
108 72 94 133 109 183 211 193 222 305 263 238 265 281 425 420 498 463 532 542 459 431 342 326 317 263 258 211 161 116 86 68 68 40 21 34 42 42 33 82 116 98 121
103 89 83 107 144 128 106 217 245 262 275 263 288 512 634 611 650 637 618 557 490 448 369 378 384 319 259 230 208 139 90 67 54 53 35 46 39 45 95 90 132 110 115
88 83 59 93 129 155 141 111 241 280 311 346 403 475 517 551 544 631 666 627 463 452 433 402 349 292 266 241 170 132 101 75 57 46 57 65 78 75 81 125 130 98 131
77 118 144 142 87 153 153 157 123 225 286 340 443 536 603 607 572 618 630 561 456 419 453 379 357 341 275 241 200 139 123 100 73 62 60 63 72 81 112 100 105 117 101
300 266 206 142 94 116 109 214 166 203 260 348 468 568 563 601 520 507 531 524 478 462 469 406 354 320 294 259 194 145 122 109 104 89 78 78 92 112 142 162 120 109 97
238 133 170 142 98 102 114 152 214 250 312 378 497 508 458 475 416 435 482 483 483 455 425 374 344 318 298 223 178 135 110 98 101 95 92 113 118 139 153 168 143 157 138
195 132 122 81 91 62 111 133 185 301 339 438 453 404 433 413 387 347 398 428 461 444 415 363 315 296 250 221 159 132 111 106 95 97 108 119 127 149 169 177 167 138 164
224 213 131 114 112 100 98 136 172 311 367 446 392 371 431 395 322 358 390 417 457 435 357 337 298 266 235 179 141 121 109 101 89 95 103 113 130 157 169 174 178 183 173
242 199 118 74 58 57 65 149 170 231 364 394 358 454 430 400 325 355 370 389 410 348 356 331 295 268 229 171 146 130 119 112 109 113 131 141 154 164 168 165 176 188 200
159 85 28 19 -4 18 52 143 193 228 299 340 438 523 467 379 358 362 353 382 426 405 353 347 273 249 181 147 133 130 121 110 116 133 139 148 158 155 160 171 170 181 197
83 53 8 -13 -18 5 34 176 178 204 385 542 570 493 481 397 375 376 399 436 417 378 355 288 280 219 172 145 128 119 121 118 127 136 158 145 163 161 158 164 161 184 194
114 100 18 -5 -37 22 63 157 198 361 489 510 477 381 329 352 327 383 425 405 373 363 281 292 246 219 164 152 151 142 132 131 128 139 136 139 150 155 161 169 190 203 192
86 120 42 18 -47 33 115 297 413 475 481 394 327 288 326 345 366 374 372 360 373 257 302 269 259 177 142 138 137 129 127 133 139 131 132 136 139 148 163 173 173 173 189
107 108 37 -44 -7 92 202 355 428 460 394 270 234 273 311 331 383 419 382 425 321 318 261 227 201 150 120 133 146 150 163 148 138 127 126 140 148 125 128 161 181 178 193
104 149 -3 -8 36 162 294 383 421 356 244 219 256 313 354 412 435 418 463 397 201 226 199 201 141 163 159 155 139 146 141 135 125 122 127 134 122 123 147 154 148 148 165
69 83 44 73 182 215 249 307 294 241 230 275 313 380 429 409 405 421 255 242 182 192 190 139 137 144 124 147 131 137 128 117 111 111 117 129 141 142 161 150 123 135 100
-42 -31 -10 160 188 176 175 244 286 293 327 385 435 452 492 465 285 175 173 146 134 133 128 150 128 120 127 135 137 124 114 107 94 97 107 137 142 140 140 171 195 169 143
-16 37 120 191 194 175 214 295 339 364 378 389 428 404 332 227 135 99 92 141 162 165 168 145 124 142 149 125 121 124 113 109 110 124 144 144 149 132 118 201 165 131 125
150 161 200 152 165 168 195 252 237 232 240 213 246 147 93 77 76 104 151 149 164 148 116 126 133 125 108 99 118 106 106 112 127 123 121 110 140 141 152 143 130 119 92
93 86 99 146 136 150 191 237 181 155 152 118 66 32 112 98 139 159 163 138 110 124 135 115 88 89 93 92 87 94 120 106 101 125 138 143 109 105 81 68 103 88 67
56 35 18 43 31 32 79 99 98 46 31 56 104 93 125 142 125 136 126 129 130 123 107 105 99 100 111 116 105 86 70 75 136 137 142 133 79 71 58 67 54 32 37
4 4 -48 -66 -74 -57 22 66 30 30 87 135 147 156 129 101 109 117 118 112 104 101 96 99 109 117 129 123 135 157 140 136 138 144 105 82 72 55 65 56 42 43 71
36 28 56 84 86 63 61 69 67 87 124 127 112 102 124 121 109 101 98 94 96 102 114 122 120 110 115 132 144 135 137 117 128 107 112 94 57 49 67 54 58 74 81
70 63 77 86 66 56 78 77 85 105 132 129 114 100 90 90 99 93 80 90 99 103 104 103 106 113 116 119 115 122 125 126 105 93 101 88 80 70 58 57 74 83 87
124 124 123 136 105 111 106 83 86 107 110 96 81 82 86 84 78 79 81 82 89 93 92 93 104 119 114 109 109 102 86 85 94 108 97 79 69 57 47 62 73 89 89

GFSMW_con_3kmhel_039.txt.gz
Helicity
10 65 79 103 135 128 111 132 196 267 353 381 328 240 300 247 279 310 283 339 389 361 347 286 270 262 268 227 189 187 149 139 108 87 76 67 49 39 25 44 67 65 66
22 -4 34 62 93 114 133 143 141 203 311 350 367 368 350 354 320 336 395 409 467 455 363 329 307 294 306 271 214 214 189 154 131 93 84 86 68 36 37 54 63 87 96
81 76 70 70 70 82 111 121 158 130 223 367 556 629 603 500 487 422 480 471 550 528 417 375 380 359 326 280 217 200 194 174 127 107 78 84 62 56 53 77 103 125 121
100 141 132 98 79 81 110 107 102 134 148 253 475 540 473 518 460 538 575 598 558 581 477 417 464 417 356 302 238 217 201 167 118 103 97 90 82 68 73 88 103 154 175
43 15 52 101 144 149 130 149 94 120 147 192 325 433 547 568 572 614 695 658 624 578 493 490 469 417 342 301 264 280 237 192 144 103 86 91 91 107 114 93 113 143 121
113 149 152 163 169 183 152 142 123 123 120 171 341 424 608 645 655 631 659 640 627 568 546 475 460 430 392 355 313 272 242 217 153 109 101 90 92 101 126 116 118 104 88
168 227 266 249 232 179 178 163 142 135 121 185 311 503 555 600 577 560 596 608 605 568 590 519 504 469 372 328 303 251 286 179 127 104 99 104 109 127 140 150 127 139 127
156 194 234 231 165 139 90 80 115 149 200 230 396 450 560 626 568 545 557 533 505 521 531 503 476 407 349 320 304 291 238 176 136 113 104 109 118 135 149 154 152 139 159
282 313 260 208 185 142 89 104 96 119 169 363 439 518 559 550 466 459 409 422 433 499 522 487 442 366 308 274 278 260 223 153 111 97 102 114 121 152 165 179 179 177 159
244 283 227 162 121 130 115 120 99 136 214 331 519 577 568 488 444 406 373 366 409 424 502 492 418 329 297 304 263 252 181 136 114 106 106 112 122 146 164 171 183 187 190
175 184 160 86 127 70 62 53 48 131 259 388 492 519 473 421 401 349 305 340 376 437 456 419 356 318 238 265 269 208 170 132 107 108 101 108 133 155 178 180 173 178 194
141 154 207 116 36 62 51 26 36 191 344 362 390 459 432 385 367 293 296 336 415 417 442 393 351 308 295 317 199 217 146 108 96 95 107 108 142 156 154 159 159 172 175
68 190 173 107 45 12 72 21 169 373 340 394 446 414 458 361 306 317 346 366 390 432 385 344 338 265 346 241 180 173 108 94 78 95 97 106 122 131 146 154 153 172 180
107 186 189 130 44 40 44 119 241 317 360 404 442 414 392 332 311 330 350 371 402 386 464 379 399 371 193 181 186 173 136 133 129 118 118 124 124 121 124 134 149 165 171
129 170 170 107 109 47 94 173 301 373 410 433 379 368 327 311 322 367 407 462 549 528 378 315 298 177 183 182 134 162 143 145 139 135 148 139 130 116 127 168 174 181 188
134 129 129 158 125 102 142 254 285 329 346 351 348 290 291 343 433 474 496 490 424 475 362 408 165 140 135 151 164 143 145 149 139 140 142 133 115 129 136 139 131 151 175
-36 57 69 113 88 118 224 222 225 260 292 280 270 310 362 461 460 460 438 393 253 238 287 115 96 136 115 128 144 157 154 139 133 128 122 134 146 158 158 137 130 140 123
-64 -44 94 166 182 227 249 201 190 235 244 290 340 391 469 469 517 337 312 206 237 171 84 79 113 137 129 135 147 146 130 138 131 128 152 159 146 145 157 185 214 184 161
15 73 102 113 86 210 221 220 238 277 318 349 407 372 287 287 203 184 181 108 106 60 47 94 131 121 106 115 118 130 124 133 139 141 140 136 148 155 150 201 199 175 151
75 129 95 96 193 166 179 211 202 205 208 165 156 173 188 165 85 43 54 2 66 79 95 109 100 97 89 71 96 105 114 135 122 110 138 138 153 128 121 155 162 151 109
82 91 112 82 72 100 113 145 154 124 76 86 74 49 85 41 7 30 55 95 85 101 93 102 102 96 89 93 102 88 104 95 114 127 141 146 116 107 109 108 142 117 93
43 22 34 29 22 56 88 77 121 26 -11 39 54 29 60 43 51 46 69 98 90 98 112 122 122 123 125 113 96 118 151 160 158 147 148 137 88 112 103 110 92 75 75
-35 -36 -25 8 57 27 -20 12 17 10 9 20 -5 22 6 30 54 92 96 109 118 108 107 115 119 112 116 127 162 163 161 156 163 159 115 111 126 116 114 87 73 59 66
-1 -20 -19 -13 -35 -47 -11 29 -11 -29 3 14 1 44 97 98 93 94 85 91 95 105 107 101 103 105 119 133 142 139 152 152 164 133 118 128 120 105 76 75 69 82 77
20 8 7 -9 -7 -9 9 7 6 20 48 69 83 98 94 99 103 98 88 92 79 81 88 94 100 107 115 126 150 165 158 154 129 139 113 98 84 82 81 73 71 74 79
71 46 22 30 11 32 27 10 19 61 90 105 103 95 88 78 78 79 78 82 90 104 101 99 100 97 113 138 155 136 113 167 163 153 118 88 73 71 56 19 8 59 80

GFSMW_con_3kmhel_042.txt.gz
Helicity
-19 31 95 133 128 135 112 155 171 197 346 365 345 345 296 261 246 231 202 242 276 272 277 291 319 301 286 251 238 224 184 170 138 152 135 115 100 79 61 63 64 64 71
12 36 63 73 84 109 154 129 157 148 274 362 340 376 349 319 325 289 255 280 350 330 316 324 345 316 325 285 253 235 214 186 168 154 151 136 106 97 87 76 81 93 100
22 5 30 47 64 87 110 120 130 125 158 260 394 556 529 521 444 344 340 342 378 414 355 361 399 370 361 305 252 238 223 209 195 182 161 140 110 109 98 101 122 130 139
80 98 106 106 74 87 86 81 102 123 127 202 373 340 338 430 404 369 425 439 423 478 425 415 439 438 401 349 302 269 230 193 230 211 173 172 139 105 100 95 115 160 158
45 39 81 117 138 122 127 133 107 93 130 180 252 306 284 395 533 544 539 484 462 431 444 440 483 498 458 417 346 315 255 218 250 216 214 188 157 140 135 122 120 137 144
27 39 71 118 120 131 119 115 152 171 111 132 218 269 304 468 551 571 535 521 506 486 452 450 501 531 503 473 377 347 277 248 248 247 241 181 145 127 135 133 124 129 129
36 91 127 135 117 119 119 111 91 117 176 165 171 212 355 435 476 523 545 547 541 545 508 499 561 579 550 498 458 406 317 293 317 240 237 174 146 134 140 145 131 149 134
53 89 124 136 152 171 166 150 126 80 63 94 138 234 323 429 487 499 525 501 542 582 579 560 544 529 521 492 453 394 322 271 307 263 202 172 140 128 119 124 142 150 158
109 129 116 108 126 128 118 94 82 71 73 62 153 257 314 419 503 504 546 577 582 555 537 490 451 435 479 466 439 372 367 291 262 257 224 171 126 123 124 139 155 159 147
188 140 122 144 94 88 76 45 44 39 61 72 191 297 384 368 465 567 546 487 486 468 454 422 436 461 454 458 421 395 308 262 250 268 215 157 122 117 125 143 157 177 181
72 86 140 152 95 90 84 76 66 54 42 140 268 343 399 423 448 457 436 413 404 387 367 389 430 455 474 445 388 454 266 258 240 222 149 117 102 101 121 128 149 175 207
57 69 56 147 89 97 87 42 79 53 56 214 330 380 421 397 366 372 375 328 360 362 365 429 472 491 461 408 429 295 203 166 241 133 144 121 73 89 98 123 152 183 182
102 51 123 117 87 113 74 34 32 60 152 276 350 338 313 365 293 313 318 355 345 369 405 495 547 493 455 373 373 312 275 223 150 121 103 95 103 113 144 174 166 173 177
83 37 104 165 69 138 98 48 48 100 209 282 316 330 300 282 248 237 285 307 326 399 482 495 505 557 342 454 373 359 293 204 116 113 119 125 126 140 154 150 146 153 165
34 73 109 119 63 104 97 87 97 159 234 249 339 332 345 349 343 363 325 373 429 479 503 563 625 440 399 336 321 259 106 97 117 133 147 151 145 124 120 146 154 169 190
50 32 21 55 95 82 94 86 120 184 229 253 305 328 318 376 337 365 387 408 437 442 466 395 323 239 197 217 164 126 113 111 130 142 154 160 153 160 155 158 148 165 209
44 -18 23 45 50 88 76 102 154 182 231 273 276 318 297 313 377 372 382 415 434 421 371 354 255 173 153 130 104 71 109 132 138 148 155 163 175 182 171 167 171 190 177
42 56 58 114 121 135 123 145 156 178 184 228 249 275 279 316 335 384 314 329 263 228 231 191 104 87 73 61 92 106 125 142 141 136 141 148 146 158 176 194 221 215 186
30 73 101 148 193 176 160 146 108 98 147 160 143 141 167 195 210 192 224 189 219 150 82 61 62 46 74 79 95 111 126 130 123 119 139 150 160 164 173 217 231 210 160
35 69 107 138 161 121 104 85 33 27 24 15 52 118 159 113 168 150 122 62 92 42 27 52 51 71 79 76 82 89 97 121 128 137 159 180 191 181 171 206 204 174 129
29 32 43 40 32 42 64 103 118 128 100 107 125 106 85 86 67 52 28 23 22 33 55 80 94 89 76 73 88 104 126 122 132 134 146 170 169 168 179 164 167 126 90
4 32 55 57 31 52 67 70 88 1 11 4 71 27 24 38 8 -0 38 63 51 67 76 89 110 125 137 145 149 172 168 168 151 148 168 177 149 174 139 129 85 62 79
9 -13 10 53 21 -10 18 59 -20 -13 6 -9 -21 4 22 28 19 57 51 59 60 67 82 97 110 123 135 144 160 158 160 157 180 196 162 185 163 131 119 70 71 73 70
-11 -23 -26 -30 -37 -56 -52 -19 -30 -16 -16 -6 3 32 36 30 41 52 48 60 67 85 96 110 121 122 126 124 127 139 160 167 183 169 178 158 135 101 76 74 77 76 69
25 10 8 -9 -15 -18 -20 -30 -35 -24 3 22 42 46 35 39 55 64 67 80 73 78 91 104 108 112 122 127 150 160 165 179 165 179 142 131 117 95 86 79 69 62 59
45 35 16 27 5 8 -0 -9 1 22 53 54 32 34 45 50 61 70 89 102 108 115 114 105 106 115 111 148 152 140 161 183 152 151 115 90 66 53 49 28 43 59 53

GFSMW_con_3kmhel_045.txt.gz
Helicity
-6 -0 59 83 46 118 158 182 214 178 263 359 357 294 262 245 239 212 176 202 219 220 199 187 232 269 285 254 244 224 192 171 150 159 141 131 128 120 104 88 78 71 76
55 48 62 67 83 105 168 211 214 179 199 295 306 370 344 279 244 263 224 231 256 274 254 239 226 299 333 313 289 253 243 199 166 166 161 142 145 150 134 119 107 101 108
35 39 38 44 68 100 107 136 177 203 189 205 268 411 450 454 389 324 253 246 307 303 296 270 273 314 338 338 293 282 277 256 216 184 181 177 132 141 148 150 142 144 151
69 78 94 125 134 117 106 113 131 150 183 197 292 324 394 404 391 316 290 303 355 346 331 313 271 364 368 376 358 339 323 307 266 238 200 212 198 166 163 155 141 157 165
85 109 122 90 92 81 92 148 149 138 133 151 203 275 292 315 352 399 349 390 421 374 392 400 348 342 394 414 399 353 348 327 295 291 238 240 225 239 235 166 138 144 133
108 98 43 41 57 78 81 91 108 137 160 160 153 182 206 309 379 407 398 407 429 411 401 425 391 372 407 415 410 382 359 363 342 302 284 235 225 177 225 227 179 149 153
87 92 95 63 67 78 84 77 84 87 83 81 127 167 162 259 301 353 382 413 469 478 411 471 471 435 407 432 444 411 400 389 377 304 266 257 262 235 216 223 205 166 152
144 130 102 93 74 78 82 81 71 66 66 49 37 73 123 215 247 337 382 363 396 391 483 495 459 463 460 450 446 435 421 429 427 382 250 289 269 215 246 172 189 172 166
48 74 140 168 175 121 102 84 86 77 74 67 55 40 95 176 217 249 347 371 409 495 500 513 496 484 490 444 431 431 453 485 452 358 300 299 202 195 186 185 135 157 174
-33 10 52 67 119 159 129 109 103 66 48 30 5 22 108 180 229 296 354 422 444 446 491 499 481 493 462 421 431 464 499 480 429 415 303 292 240 178 218 142 125 139 157
-6 -16 2 67 88 156 168 113 118 71 49 31 28 38 99 207 283 318 392 421 411 449 421 451 444 445 444 439 483 488 457 493 443 431 326 293 183 169 185 136 154 130 140
25 29 58 79 116 172 205 246 143 81 37 2 48 82 150 219 269 304 340 361 389 325 349 364 390 432 473 477 474 525 444 411 395 256 292 223 222 266 203 151 125 149 167
16 38 65 124 121 122 186 116 39 16 8 -3 37 100 169 228 245 248 270 316 345 337 327 379 453 508 556 559 541 530 484 431 406 395 353 313 188 129 97 115 134 157 177
45 50 47 72 93 109 120 4 19 -20 -16 -7 53 129 203 231 234 250 276 302 331 362 377 420 490 562 554 529 478 442 431 412 322 233 198 158 83 63 103 135 140 157 169
47 18 15 25 48 41 22 28 3 -11 5 21 94 162 184 225 252 275 276 298 318 351 408 457 549 542 502 451 427 320 318 270 219 141 86 82 104 117 117 141 145 162 180
30 15 -7 5 -24 -4 45 42 25 20 77 134 182 250 277 311 306 301 313 316 295 347 387 442 438 451 396 359 306 294 219 147 113 97 102 132 146 163 174 170 174 172 197
18 -4 3 16 17 13 32 55 55 92 152 195 204 215 262 303 325 334 325 321 350 372 357 326 312 288 214 227 149 133 93 81 93 118 129 144 150 161 156 153 162 173 155
4 -5 27 27 41 70 72 74 81 61 74 88 86 116 156 181 167 252 249 224 197 228 217 245 203 192 160 80 52 57 73 96 109 118 122 122 123 128 131 139 161 189 176
39 37 20 26 51 43 35 62 30 34 36 29 78 63 60 84 81 135 116 87 170 167 209 140 155 143 56 43 63 86 91 103 100 92 109 115 113 88 114 175 197 173 167
31 47 46 35 34 44 58 63 26 58 27 71 127 88 73 93 141 117 169 132 182 153 106 84 41 22 43 62 64 71 86 104 106 114 111 109 120 124 123 170 201 181 142
26 37 46 39 43 59 72 70 95 75 62 108 132 110 108 111 105 109 76 71 61 36 6 36 60 76 70 89 100 120 84 76 93 97 109 125 129 131 157 160 178 141 103
26 33 55 44 47 23 45 46 40 1 4 28 -2 -15 3 1 5 14 -6 10 28 39 49 72 89 96 111 110 115 116 122 122 105 104 117 121 108 160 150 146 100 73 86
-20 -29 -19 3 -9 20 11 4 -31 -40 -25 -4 -5 -11 -10 -10 1 22 29 32 32 43 54 66 73 77 84 97 121 132 143 143 147 125 120 169 163 154 140 97 69 56 50
-4 -10 -26 -21 -31 -48 -40 -32 -26 -19 -8 -5 -9 -0 13 23 21 23 24 38 45 57 64 73 78 80 100 117 122 121 121 123 143 162 182 161 154 135 87 52 35 37 34
21 -4 -16 -15 -23 -15 -20 -22 -21 -8 9 14 14 18 20 31 43 46 37 47 47 51 61 76 92 109 118 113 128 139 149 161 157 181 143 139 124 89 55 36 28 23 37
35 29 7 14 3 5 6 -11 -16 10 33 29 13 16 32 35 38 43 57 76 86 92 104 109 116 115 117 150 156 161 167 171 155 152 127 113 75 49 36 22 16 34 41

GFSMW_con_3kmhel_048.txt.gz
Helicity
31 53 99 120 129 162 193 216 226 217 245 266 249 270 216 215 240 232 227 216 199 208 208 196 180 201 231 233 218 261 227 206 187 193 146 129 120 114 118 119 110 104 103
37 32 55 96 119 127 147 164 191 192 227 284 284 325 258 233 245 268 240 232 251 237 219 238 199 214 258 256 274 311 281 232 188 187 183 141 140 142 154 147 127 121 136
107 113 112 112 94 94 122 159 170 148 162 229 309 438 409 377 283 294 250 253 282 284 255 251 287 260 263 251 283 302 313 315 220 202 196 172 130 156 163 154 140 163 171
137 127 156 152 128 112 106 117 162 188 188 190 255 277 291 305 295 295 278 305 336 342 320 287 289 305 306 295 303 345 344 288 229 210 213 231 209 188 163 174 165 178 178
137 165 167 162 162 125 84 79 104 155 211 186 201 246 246 275 308 272 276 313 341 341 342 325 324 319 354 340 328 333 359 369 322 327 316 298 264 266 282 197 189 167 166
114 93 93 113 127 134 147 136 109 98 109 153 171 204 187 202 266 273 297 349 361 364 353 343 327 358 392 374 359 339 344 368 323 338 327 311 316 262 287 272 244 201 188
92 105 131 166 208 216 178 145 145 124 88 91 106 120 127 172 206 231 247 279 295 343 332 367 359 386 418 402 389 368 372 356 336 355 319 317 291 301 283 279 273 230 230
36 77 89 97 115 122 132 146 144 143 101 65 52 54 52 98 139 166 217 258 270 263 307 342 382 413 421 464 438 393 404 377 372 361 367 409 317 306 258 339 201 300 260
-33 -26 -4 26 55 84 112 144 152 150 147 120 81 71 62 67 99 131 188 199 227 276 292 340 406 411 425 372 406 406 424 428 420 443 431 399 438 387 299 327 271 269 247
-13 -33 -36 -43 -5 71 115 147 159 157 160 159 144 102 67 42 56 122 167 217 254 303 312 353 403 424 437 415 395 450 464 481 465 446 479 385 427 437 367 408 318 232 249
-26 -17 10 21 59 106 124 208 271 235 196 175 149 103 94 62 93 124 182 223 247 268 262 291 355 378 409 393 451 460 482 510 502 472 419 466 367 425 391 474 349 238 171
-10 4 19 24 93 100 108 159 209 263 229 156 140 70 76 51 81 128 146 195 215 220 233 237 276 348 399 422 429 481 512 526 500 491 492 464 501 436 507 297 175 164 109
-15 10 24 72 75 100 125 157 183 176 242 157 99 42 39 35 75 109 130 155 168 169 184 248 321 368 403 421 452 498 545 533 522 465 397 453 395 390 253 200 127 98 116
21 1 11 50 59 52 72 50 97 117 61 -2 -23 18 30 95 126 172 199 204 218 271 315 337 375 385 432 496 535 597 604 474 387 372 339 289 238 174 124 89 75 99 148
4 -9 29 53 80 52 15 -34 -24 -10 -2 40 56 107 128 168 183 224 233 272 316 304 317 368 395 444 507 483 499 413 394 333 306 274 240 159 109 47 56 84 120 141 132
4 -7 29 64 85 57 19 -3 -19 1 34 56 85 111 163 196 221 228 244 272 285 280 284 340 437 458 372 300 268 249 248 247 213 218 125 68 83 116 129 118 107 106 127
15 -1 22 61 79 48 11 26 23 16 44 46 62 98 142 206 223 225 217 205 210 220 252 275 256 289 205 184 213 190 174 197 106 56 56 78 110 119 109 104 118 139 122
26 23 33 52 42 24 20 43 43 -26 35 46 33 58 94 110 97 202 207 256 241 258 240 282 286 290 204 200 204 157 101 62 75 79 101 106 99 88 99 109 113 131 132
18 23 26 24 22 30 40 48 45 29 48 31 45 116 125 169 150 177 212 190 242 267 213 199 162 183 188 102 76 41 53 103 102 80 80 73 78 71 83 129 142 150 166
32 37 30 29 27 18 32 57 54 47 40 22 104 63 77 87 131 131 119 103 84 87 90 115 97 60 33 30 27 44 55 73 75 76 78 88 97 88 76 151 174 151 128
50 63 54 19 22 18 27 56 72 27 20 39 44 88 126 109 55 60 40 46 41 36 30 24 28 35 25 46 95 80 66 74 81 80 84 80 78 113 152 146 157 139 119
22 22 19 20 21 8 32 24 26 -1 -11 -2 7 0 -8 -19 -3 10 3 -3 -15 10 23 40 67 74 89 101 87 89 90 87 70 77 97 114 120 132 124 132 98 93 107
32 14 -13 -22 -17 6 -11 -14 -24 -39 -30 -6 -6 -4 -3 -11 -14 -1 8 14 15 26 30 39 42 45 51 68 98 105 110 110 125 115 115 147 145 139 135 114 121 89 44
39 35 1 -18 -14 -11 -13 -19 -19 -12 -12 -2 -4 -1 12 11 5 7 8 20 22 29 31 37 47 51 61 76 94 113 127 142 157 148 155 157 146 122 109 101 60 29 16
53 48 29 -1 -2 5 -1 -20 -22 -3 16 19 12 14 16 21 29 31 22 25 21 28 39 49 62 77 84 88 126 148 150 148 131 155 133 123 112 112 81 47 23 14 15
66 52 58 28 11 3 -2 -9 0 19 38 33 18 16 22 24 29 34 39 57 57 65 69 63 72 85 113 142 158 160 168 148 132 130 104 93 68 43 35 27 15 20 16

GFSMW_con_3kmhel_051.txt.gz
Helicity
59 68 119 143 147 157 138 138 171 188 204 231 235 219 203 172 183 168 149 156 180 185 182 169 143 151 165 182 170 204 187 207 210 198 152 123 116 105 100 114 126 131 125
68 91 100 109 116 132 154 161 174 181 222 277 273 278 249 220 184 161 163 169 180 232 227 197 173 163 187 178 206 246 281 239 217 214 184 118 112 121 132 142 140 147 149
164 198 197 152 162 192 182 164 150 173 191 197 254 331 326 301 239 236 203 196 226 271 260 237 239 211 220 239 241 270 288 310 249 244 202 161 111 123 151 149 159 162 173
192 208 220 216 193 213 192 156 142 140 128 153 189 206 252 274 296 297 250 186 205 255 274 256 271 263 272 258 287 308 296 324 347 284 209 251 179 152 112 161 173 179 173
171 164 165 182 190 199 201 174 169 172 174 192 191 182 181 186 213 247 216 197 218 229 265 251 275 300 323 278 323 342 307 312 329 366 369 323 296 284 262 226 219 224 218
164 139 107 110 159 167 180 187 198 196 168 145 156 175 178 179 206 194 188 202 226 254 271 280 285 283 316 321 358 356 332 332 339 349 348 325 301 281 307 263 287 234 273
75 83 96 116 137 156 153 152 174 216 224 206 174 136 117 135 151 150 164 139 175 217 226 260 286 311 276 287 338 373 369 367 359 363 342 310 297 290 343 337 295 304 322
-9 10 24 48 70 109 126 136 155 171 194 207 220 198 173 146 108 98 140 177 199 187 151 178 212 246 294 327 314 337 365 363 386 390 332 353 325 331 347 369 392 373 369
0 -17 -17 7 45 66 83 101 129 158 166 186 193 203 188 160 130 103 105 127 117 159 163 163 195 225 259 295 317 360 358 336 342 359 377 387 396 419 440 453 430 367 392
-11 -8 0 9 35 43 66 104 123 155 210 219 209 209 191 152 115 104 90 80 100 136 135 147 195 245 270 288 296 340 359 340 329 393 435 474 487 515 500 519 422 570 504
-43 -60 -32 -4 18 45 83 114 130 150 193 252 320 283 243 212 165 142 126 98 108 126 146 135 147 206 240 259 317 337 337 440 492 427 485 507 506 486 522 456 483 410 374
-51 -34 14 25 34 77 89 101 103 114 134 157 207 286 278 224 170 114 105 81 128 142 131 141 164 162 183 241 291 327 363 449 509 535 564 576 568 479 404 363 334 293 274
-4 34 27 33 53 81 102 97 104 112 80 67 53 60 107 200 155 95 102 109 134 144 145 157 176 216 233 261 331 384 464 513 547 549 536 549 504 326 322 202 213 213 200
5 8 11 30 56 92 91 79 76 35 23 56 51 81 79 55 131 116 140 156 158 179 172 192 224 248 267 317 396 478 541 521 551 441 381 339 304 301 220 214 179 129 111
14 15 26 51 86 66 67 44 16 30 40 90 95 107 106 123 156 167 204 227 238 246 261 305 331 337 346 376 426 453 401 370 367 358 341 255 219 158 135 130 102 83 83
2 22 29 61 88 69 56 37 59 49 42 60 65 67 71 77 97 136 172 221 237 234 251 256 272 313 336 312 277 276 303 282 263 266 175 151 143 107 63 48 59 77 109
21 32 29 50 58 42 17 37 51 37 49 72 31 30 48 79 85 112 165 183 179 175 224 216 240 297 228 206 191 217 218 221 174 108 105 105 77 64 119 131 119 116 119
12 23 17 34 34 26 29 13 31 36 5 13 8 36 97 83 99 129 191 176 196 228 227 277 265 274 208 187 212 176 105 90 102 107 100 93 100 91 93 108 116 118 129
48 16 33 36 41 45 9 19 48 48 18 9 6 62 48 55 73 94 154 123 168 218 199 216 190 147 111 140 90 42 40 53 64 63 76 89 96 106 121 134 130 118 135
56 45 48 44 37 33 28 32 59 53 39 29 26 39 46 22 50 81 108 62 87 88 86 82 69 60 33 52 64 42 49 71 71 86 104 112 103 100 117 171 150 138 126
50 62 45 37 32 14 33 36 32 56 47 57 56 48 30 37 20 24 11 14 24 33 34 41 30 18 -4 8 43 63 64 65 73 88 108 120 122 116 110 115 128 119 111
28 37 41 40 32 15 9 -11 -21 -54 -31 -26 -18 -16 -20 -17 -13 -2 -3 -6 4 10 4 10 14 25 55 60 61 75 78 87 100 110 91 77 114 133 130 127 104 103 113
16 26 20 21 13 16 5 -1 -22 -25 -20 -12 2 2 -6 -12 -13 3 3 6 9 12 7 11 18 28 44 65 92 94 90 88 122 125 144 133 118 104 100 87 88 74 49
21 32 34 50 41 21 14 5 -8 -12 -4 12 5 6 15 10 8 6 8 14 14 17 20 30 40 46 54 68 79 97 111 134 128 147 145 126 97 75 63 51 33 23 20
65 28 33 32 35 22 14 0 -5 12 25 21 12 18 18 21 26 25 16 19 16 23 34 39 47 58 72 86 124 132 144 145 119 109 77 54 43 33 24 21 20 17 11
109 70 40 41 42 23 19 7 7 22 40 36 21 24 29 29 32 33 28 47 53 61 61 60 67 74 97 134 141 139 135 103 82 68 43 22 15 18 16 10 8 15 14

GFSMW_con_3kmhel_054.txt.gz
Helicity
101 130 145 166 160 164 155 152 158 143 138 178 195 185 185 176 173 152 113 107 90 90 104 119 116 120 134 149 143 134 134 162 174 186 169 144 126 112 112 110 103 109 108
93 114 140 152 151 150 180 187 182 182 182 191 202 203 188 177 152 146 153 150 115 100 129 141 150 146 154 151 167 164 208 183 199 212 195 183 149 127 115 117 112 115 129
177 183 183 209 211 194 177 185 210 208 204 204 219 233 234 258 230 189 176 155 159 170 168 159 168 204 205 202 218 208 223 257 216 227 221 250 212 208 161 136 150 139 144
223 223 217 219 235 232 215 216 212 186 160 162 192 184 208 210 200 186 173 180 185 201 188 221 175 186 242 211 256 297 270 284 282 283 238 311 302 277 240 183 261 158 153
229 211 196 188 187 183 176 166 174 183 178 164 175 203 195 175 155 143 117 111 122 128 172 143 163 223 240 227 246 293 304 315 304 350 387 321 305 281 303 241 265 217 209
181 165 134 127 141 143 144 140 157 152 160 164 150 153 173 179 173 157 146 132 131 131 127 149 176 185 239 212 226 260 278 327 298 315 332 357 353 302 303 244 232 185 236
105 97 94 100 111 125 134 139 148 175 180 187 187 169 154 162 181 194 187 168 174 183 175 157 157 183 203 230 254 271 283 314 316 344 358 353 383 384 297 289 260 309 345
50 47 52 54 70 108 134 141 156 162 170 175 175 163 160 170 172 146 146 157 169 161 120 111 135 134 154 182 208 258 275 281 333 351 317 318 409 404 320 365 373 364 367
15 20 22 27 51 91 128 141 152 175 183 192 200 203 190 181 174 168 147 127 99 100 90 93 121 138 177 197 235 264 246 253 298 319 328 347 375 384 337 300 330 371 387
12 7 3 25 35 54 81 107 130 147 177 205 236 267 256 236 218 210 205 188 157 138 112 95 104 117 174 199 221 237 263 301 346 423 471 504 440 376 341 387 436 475 386
1 -8 -4 25 29 45 77 100 116 126 134 144 163 191 241 274 243 196 187 186 181 163 136 109 102 101 136 178 195 250 272 284 299 298 335 372 444 577 446 429 440 511 478
-0 -10 -2 31 57 84 93 95 95 92 98 101 95 110 123 150 170 176 180 170 139 106 68 68 80 89 106 140 193 199 205 266 265 333 346 451 511 564 456 508 407 373 337
7 6 20 38 59 67 89 94 84 69 54 49 50 60 79 99 85 64 110 139 154 128 119 91 147 142 142 170 172 225 261 312 351 386 449 489 462 412 379 369 312 302 298
20 31 38 28 63 67 73 58 81 49 44 46 66 77 75 63 57 65 101 80 111 142 153 213 193 183 208 225 253 286 361 399 435 458 484 481 334 277 272 194 234 237 231
27 21 39 28 65 66 65 71 58 47 55 54 78 84 91 99 92 119 128 111 122 162 195 202 214 215 235 238 266 282 319 378 389 395 413 319 249 211 217 214 191 187 142
18 19 30 25 55 65 63 43 41 50 52 66 67 54 61 65 74 84 81 92 113 124 152 179 196 218 196 198 237 281 286 308 256 234 256 269 216 211 150 119 106 113 118
6 10 35 42 49 51 36 51 45 40 44 12 -5 18 -3 93 92 94 139 157 160 164 196 199 195 187 190 191 178 199 225 249 213 190 163 186 136 111 111 117 114 120 137
10 33 30 32 36 38 57 60 44 36 43 23 18 50 78 48 19 103 119 165 155 142 160 198 168 188 171 175 134 153 162 170 171 113 85 89 103 108 105 113 119 103 106
38 45 45 36 36 42 56 53 55 50 51 44 36 28 32 34 39 53 83 92 98 130 172 176 165 153 168 141 136 81 79 53 73 77 78 81 82 83 75 83 103 113 123
39 67 68 18 17 37 34 53 58 54 65 41 44 45 50 37 45 37 48 39 51 74 67 66 23 34 28 32 36 35 25 45 50 53 67 82 104 113 133 143 138 152 165
29 49 64 61 35 23 25 38 35 19 23 30 28 24 15 8 -8 -9 -4 7 17 17 9 12 13 17 21 29 35 39 40 52 68 85 100 115 137 164 173 174 158 146 114
7 34 27 16 2 2 -3 1 -6 -30 -27 -28 -16 -10 -14 -9 -5 6 -3 -0 7 15 15 16 14 20 34 48 59 70 78 76 88 114 130 146 158 147 131 113 92 62 48
17 16 30 24 22 10 -3 1 -8 5 -2 3 4 2 2 -3 -3 4 8 9 11 13 12 15 22 32 36 45 66 81 99 124 129 132 140 118 100 87 67 52 33 13 19
42 30 37 45 43 37 25 20 10 14 13 15 12 6 13 9 7 7 8 15 17 20 24 33 42 51 58 65 77 90 106 121 118 111 91 74 59 37 21 20 27 25 18
78 65 28 47 55 38 33 21 12 11 20 32 28 22 18 20 29 30 23 28 27 28 43 51 53 53 61 85 105 107 108 103 107 77 67 63 48 45 46 39 29 25 24
101 85 78 41 54 42 35 27 17 18 36 48 37 31 31 31 37 40 46 57 58 63 67 63 58 71 82 102 108 110 110 92 80 64 66 64 53 52 40 37 32 32 33

GFSMW_con_3kmhel_057.txt.gz
Helicity
77 115 123 136 150 133 128 120 113 118 111 142 155 219 196 162 162 137 113 105 128 131 148 173 129 141 160 171 190 150 178 185 203 216 210 196 165 156 159 150 164 156 145
114 106 119 106 121 136 132 125 121 138 150 165 171 209 165 165 188 171 156 173 168 174 181 187 172 170 183 151 202 149 219 218 243 309 232 221 199 170 176 184 182 170 173
124 96 105 133 143 198 212 185 182 201 195 217 246 271 247 212 210 208 202 175 165 198 187 182 189 190 218 221 223 233 228 265 292 276 313 267 281 248 204 219 208 189 199
151 151 161 172 176 187 184 180 162 148 161 175 210 226 248 223 203 187 183 144 123 127 149 173 167 200 218 212 239 288 304 319 318 304 250 295 374 308 274 234 229 234 208
184 177 170 165 163 167 163 156 145 126 121 109 127 163 176 210 212 196 151 131 143 95 100 118 200 212 218 216 221 255 289 372 329 369 374 314 364 380 344 314 301 273 282
169 153 129 113 113 108 109 110 110 110 102 106 102 94 114 148 185 186 181 172 153 152 145 141 144 171 203 227 233 213 279 384 333 335 354 380 418 417 436 371 352 285 243
118 116 115 114 104 101 101 100 109 121 131 124 125 122 118 117 122 147 177 152 148 160 178 192 170 161 149 165 191 216 258 305 336 302 339 337 375 399 351 352 427 384 384
82 66 57 54 56 70 96 116 130 135 159 164 172 172 166 161 152 137 140 150 153 144 142 150 159 168 167 164 179 216 229 269 303 282 274 354 362 448 484 474 497 513 428
61 43 32 30 38 61 93 119 150 183 202 208 209 226 234 244 224 221 204 198 184 187 187 169 134 126 136 139 167 205 226 262 262 231 231 349 435 429 450 502 569 568 328
21 12 2 8 25 59 85 93 114 136 148 162 174 179 196 212 221 222 235 249 234 212 187 163 147 179 133 126 140 171 215 250 269 273 266 444 444 417 442 496 558 451 377
15 -3 -15 -5 17 64 83 104 135 134 131 131 126 121 123 129 144 176 212 226 223 209 210 210 194 158 153 124 136 162 182 201 291 328 344 395 372 345 348 370 364 359 402
13 13 10 14 33 60 90 118 111 95 99 98 102 106 106 94 101 127 152 147 139 141 157 164 163 169 133 95 89 171 176 219 250 259 279 285 279 321 333 352 317 309 383
34 29 16 33 48 63 81 94 84 81 76 83 90 93 100 97 90 87 141 159 128 104 171 187 173 163 155 133 115 131 114 193 268 280 275 287 281 310 326 336 278 296 268
28 32 29 58 64 66 79 83 73 64 66 54 61 81 91 83 64 64 105 120 126 121 128 130 134 177 195 176 178 200 244 148 258 247 238 244 249 254 267 270 265 238 230
32 31 31 46 46 70 76 68 62 60 48 53 61 69 80 70 59 72 93 96 99 114 96 105 136 180 162 133 126 193 204 192 221 249 268 238 207 194 181 189 182 211 188
27 27 29 38 44 64 67 55 51 54 54 58 64 52 38 40 56 82 102 106 107 111 139 158 162 173 154 193 200 224 256 241 233 217 195 184 185 166 164 152 90 109 112
22 26 25 41 45 58 57 55 54 56 47 63 58 49 65 48 64 47 61 121 119 122 165 229 190 190 111 176 179 184 198 206 192 185 178 163 179 201 142 106 79 91 87
5 14 28 35 57 60 49 42 59 67 59 58 68 66 70 34 42 49 56 97 119 100 113 143 162 167 104 165 180 128 118 126 95 93 96 79 27 29 69 75 88 86 84
14 36 51 49 52 52 46 54 61 75 81 68 55 53 47 47 45 49 64 82 92 93 97 103 107 114 97 104 95 40 10 11 16 28 49 45 37 56 69 72 88 109 139
14 9 48 73 46 38 39 41 45 48 56 59 61 54 45 20 19 1 2 8 10 10 6 5 7 18 16 18 12 12 18 28 30 48 66 97 113 116 122 136 158 174 183
-7 6 35 46 27 27 26 23 12 6 2 30 5 9 -3 2 1 1 -2 4 5 4 4 9 14 25 32 37 46 49 52 57 67 78 100 123 147 170 164 151 135 135 119
3 5 38 43 35 21 16 18 9 -10 -13 2 11 15 17 15 10 11 1 2 9 17 18 21 24 28 42 51 67 73 81 87 106 123 136 158 142 116 101 96 84 63 56
25 12 30 51 33 23 21 20 8 11 20 15 26 24 28 21 14 11 10 14 12 15 19 23 35 45 48 63 67 74 87 112 120 137 140 111 86 81 74 79 58 49 58
52 49 27 38 45 35 31 34 32 23 29 31 29 30 31 26 23 18 13 17 23 26 32 43 50 59 62 71 81 87 107 109 113 116 101 83 69 72 69 58 60 64 61
78 90 36 28 47 54 51 43 41 30 33 40 35 34 36 34 37 39 30 35 40 45 58 67 68 65 76 98 97 87 93 109 101 85 84 79 85 94 87 82 75 63 65
115 96 74 77 49 49 53 46 35 36 48 49 38 37 43 39 43 51 60 74 71 75 84 87 88 79 86 88 86 80 81 83 83 86 88 90 96 98 94 94 80 73 63

GFSMW_con_3kmhel_060.txt.gz
Helicity
72 80 156 179 204 239 242 235 221 197 167 166 197 257 210 200 179 166 82 125 164 215 220 262 234 220 210 204 274 267 254 250 272 277 253 289 229 213 190 188 199 222 228
121 182 181 158 136 146 191 190 174 179 171 178 162 187 243 238 218 195 154 113 157 210 228 257 268 250 246 234 291 286 328 301 313 360 353 301 285 224 221 225 213 232 261
154 162 122 116 156 206 191 174 170 184 206 234 220 209 233 297 275 217 153 115 125 153 247 251 254 245 239 234 273 304 332 328 369 364 393 294 291 264 248 241 265 271 295
228 223 156 132 114 131 155 176 156 141 143 143 155 173 185 279 237 186 136 119 107 119 130 178 250 237 221 201 225 256 346 377 405 428 336 343 316 287 257 245 248 263 281
164 146 138 127 106 123 139 144 152 145 114 120 116 113 122 138 159 203 197 174 179 184 163 119 129 177 234 245 224 238 278 350 397 451 496 347 316 349 349 300 278 271 281
162 147 139 142 126 121 120 117 113 111 107 70 78 85 84 88 93 116 161 164 162 155 173 191 159 134 140 170 210 206 231 283 345 434 461 425 384 356 442 398 355 332 316
137 132 131 125 105 96 92 100 117 115 122 123 115 116 101 104 113 117 118 144 161 146 123 164 194 197 177 160 162 160 161 205 295 325 407 407 394 373 314 381 412 386 444
105 104 87 79 68 56 58 81 106 125 158 184 191 183 193 186 194 208 199 180 168 173 174 158 163 172 183 156 161 185 181 196 213 253 314 344 338 346 343 349 384 414 478
86 77 57 50 45 45 57 82 117 143 154 184 203 219 234 231 201 200 209 220 227 227 232 213 216 175 163 150 144 157 161 181 190 210 256 255 295 347 383 385 387 359 336
65 68 50 50 39 47 63 96 121 132 139 158 165 160 184 199 211 211 220 208 187 201 205 225 234 272 246 183 125 120 136 167 203 210 220 293 312 339 384 389 378 406 390
78 64 54 45 36 52 66 100 132 133 141 148 147 142 156 162 159 159 155 150 133 165 192 207 210 205 205 205 162 140 129 138 218 261 267 287 302 331 317 295 270 273 305
63 44 39 36 60 71 79 100 121 123 116 106 113 116 128 132 132 122 96 92 125 150 165 162 167 147 164 171 158 154 169 172 202 219 242 241 239 247 211 188 187 182 195
69 42 39 39 93 97 84 84 95 98 88 86 88 84 87 103 108 122 98 90 112 154 188 187 144 118 142 120 137 193 238 143 138 143 142 171 192 174 167 188 194 200 206
49 46 40 56 98 90 77 84 88 86 84 74 70 71 77 77 102 101 78 98 101 116 132 135 126 126 146 190 234 211 222 241 207 148 62 141 157 139 156 177 183 184 201
43 49 43 51 64 76 87 88 86 79 77 66 65 64 52 56 67 82 82 61 86 120 126 122 120 113 112 120 163 191 203 199 213 196 182 153 143 181 126 133 133 158 141
38 50 33 44 70 77 79 79 73 73 83 86 69 62 59 59 50 65 114 86 111 146 144 106 94 81 77 111 107 204 210 222 213 253 275 253 196 179 127 127 114 111 144
44 44 39 54 78 83 77 86 73 79 81 76 71 66 66 72 64 65 86 100 125 113 140 128 109 118 77 144 80 146 151 189 144 76 119 116 118 123 106 111 121 97 83
35 36 50 69 67 76 91 77 76 78 84 87 81 58 50 57 51 57 67 65 75 66 52 74 80 73 75 101 89 91 59 54 61 57 36 40 54 56 54 48 43 69 79
61 68 98 86 70 76 66 79 64 65 87 91 66 50 51 61 48 29 18 7 13 5 9 -2 2 3 -2 22 22 16 14 22 23 33 44 51 53 69 84 97 74 95 131
46 36 43 46 35 44 78 78 65 63 64 53 55 39 26 30 2 12 4 -11 -10 -13 -4 -28 -15 16 9 40 40 42 40 48 55 58 66 98 95 103 112 127 145 149 142
41 50 38 38 37 54 101 81 41 32 31 25 12 6 16 14 9 8 -6 -13 -30 -25 -15 -5 1 15 27 33 56 64 59 66 86 112 119 122 137 127 117 111 107 97 89
49 36 46 49 49 70 69 45 36 23 18 15 16 19 9 3 -1 3 -22 -15 -6 3 3 18 21 26 41 63 65 77 94 111 114 121 127 119 98 86 72 82 81 77 76
51 54 64 65 43 46 44 41 34 22 14 22 22 16 13 8 3 7 4 7 15 26 26 37 39 33 44 44 55 55 69 77 94 102 90 83 75 65 68 79 65 63 71
58 57 112 52 35 42 50 41 38 22 16 25 26 38 37 29 25 23 23 29 37 34 45 48 53 48 57 77 78 78 98 115 108 93 84 70 69 65 65 70 67 68 72
72 81 92 81 33 45 56 46 35 27 12 42 51 55 45 49 58 60 47 45 43 49 62 62 65 73 86 71 81 73 72 69 61 64 77 87 90 88 84 83 74 72 73
121 115 94 115 92 69 61 53 44 20 48 69 59 55 54 49 51 54 62 74 65 65 75 77 78 69 73 80 78 61 54 50 51 76 74 88 99 99 94 91 88 85 81

GFSMW_con_3kmhel_063.txt.gz
Helicity
110 124 172 203 213 266 272 234 233 281 226 208 171 158 133 147 112 97 99 132 177 168 190 240 229 248 226 210 211 230 265 259 316 345 295 264 203 207 215 226 264 255 239
116 185 215 235 237 205 211 217 215 205 221 223 231 227 214 194 174 160 143 129 137 169 226 194 230 265 269 248 242 267 323 342 389 391 367 302 290 243 234 244 248 270 307
123 165 202 193 182 168 160 175 190 171 148 168 191 210 220 229 235 221 180 138 115 113 165 209 227 232 272 279 272 277 305 292 385 419 416 325 325 278 269 257 282 284 326
147 157 145 118 72 97 146 175 195 186 152 121 124 137 131 158 152 151 169 154 123 94 90 139 175 212 219 219 220 263 280 302 312 345 364 434 323 258 241 218 233 283 279
148 154 122 81 113 138 149 160 170 175 168 160 147 130 117 106 121 141 146 128 116 96 91 77 102 145 172 184 220 242 237 298 297 378 427 414 461 406 316 232 254 266 294
159 144 159 141 126 134 136 138 145 144 143 133 132 129 125 126 122 124 116 116 145 155 119 92 124 133 128 152 151 166 171 207 225 290 357 420 413 358 425 368 304 289 305
135 126 135 130 115 104 95 94 112 127 134 135 140 144 145 130 138 156 167 192 183 196 256 223 146 132 144 135 135 155 144 159 195 197 273 322 427 399 380 320 308 277 324
108 95 84 88 87 72 65 73 96 117 134 149 163 168 188 179 170 168 171 177 185 197 204 210 236 195 140 130 121 142 136 131 141 144 184 255 279 308 336 391 407 320 301
91 84 78 70 62 49 42 54 86 106 132 160 176 188 200 205 201 205 179 165 167 171 173 177 196 228 228 201 185 165 129 121 120 131 155 182 232 298 306 292 333 257 266
96 95 81 64 52 41 45 77 95 106 136 164 154 132 141 146 146 141 157 166 169 167 144 143 161 211 251 251 211 208 187 157 126 121 129 198 250 287 313 311 279 251 241
101 97 77 61 59 78 89 96 110 124 142 140 125 122 123 121 123 129 127 127 121 117 99 100 123 161 185 195 159 139 148 150 165 174 167 195 183 205 201 210 209 207 161
83 68 58 64 83 106 113 101 99 112 113 105 100 100 97 102 116 118 124 109 90 81 88 99 124 147 157 139 118 136 147 155 170 179 211 188 130 161 149 147 145 135 174
84 67 73 73 103 117 106 106 97 94 90 86 82 84 89 96 107 111 108 100 78 86 98 118 136 141 152 134 124 143 168 176 189 188 209 176 150 141 137 157 171 163 175
64 63 74 83 105 96 88 98 95 93 75 73 78 76 76 82 90 88 105 115 98 111 122 135 136 119 121 130 132 151 183 187 201 203 189 164 149 173 246 289 216 177 174
61 51 51 73 96 107 99 94 85 81 70 78 73 63 70 95 99 91 100 154 147 115 107 109 126 97 97 85 101 152 150 160 185 179 209 249 193 149 157 215 176 163 158
54 56 44 69 106 104 97 95 84 91 93 82 78 67 75 97 91 91 95 111 110 115 142 139 121 100 70 90 106 70 75 139 123 128 122 151 202 157 114 122 110 99 84
56 57 51 79 92 80 96 97 85 90 94 80 73 72 77 82 84 73 67 76 86 106 135 102 80 74 60 71 64 61 41 47 55 74 85 83 89 87 67 80 89 81 89
50 51 69 92 94 101 102 93 88 92 87 100 83 87 74 68 60 49 50 46 55 62 35 32 14 -3 -7 16 27 37 16 32 37 38 40 56 71 84 85 76 83 83 89
62 67 83 86 95 93 87 80 73 69 78 87 84 74 58 63 35 23 5 7 18 6 -3 -21 -19 -12 -20 20 29 25 26 42 54 66 74 93 100 113 134 129 127 121 130
58 58 58 59 64 58 73 71 63 67 76 72 65 62 54 29 3 3 -5 -3 9 -6 -17 -19 -18 17 12 35 50 44 41 53 58 75 97 111 109 119 112 120 119 105 85
55 59 52 42 33 64 90 72 50 33 47 54 44 32 15 8 8 -3 -12 -16 -4 -4 -7 5 0 10 19 23 47 55 43 45 58 72 78 86 99 91 86 88 90 78 76
55 55 68 57 61 73 92 84 28 17 31 47 38 25 15 10 4 2 -7 -2 7 17 17 24 22 14 16 36 44 50 49 53 50 54 56 60 61 66 70 82 75 74 84
53 68 83 78 68 61 72 55 26 22 37 34 27 19 6 9 4 10 10 11 14 29 29 33 35 29 25 28 44 52 46 37 55 49 46 49 52 65 82 78 76 99 101
67 87 118 95 71 50 55 47 32 26 32 30 25 18 22 17 16 33 40 44 49 47 45 46 47 42 53 51 49 55 53 57 55 49 48 50 61 73 85 100 104 102 97
79 105 111 107 83 57 55 57 32 30 19 30 36 39 31 48 59 60 50 56 42 44 54 47 49 56 56 50 53 53 48 43 38 54 59 70 82 89 105 118 116 112 111
92 110 118 121 101 100 90 55 42 36 37 29 49 55 54 53 61 69 79 63 57 61 60 56 53 48 47 53 51 41 37 32 25 69 64 68 79 93 109 119 120 113 110

GFSMW_con_3kmhel_069.txt.gz
Helicity
108 135 146 170 187 205 183 183 155 152 123 144 143 136 116 129 134 134 131 131 132 129 169 180 182 187 189 175 204 231 216 191 226 223 185 175 174 195 218 226 213 217 257
119 118 159 189 205 190 195 204 207 210 200 178 163 161 143 133 117 117 117 127 131 137 148 146 153 177 198 192 213 258 254 238 247 253 262 202 190 220 230 266 264 248 302
113 126 135 173 183 170 159 167 189 201 191 181 180 201 210 198 178 161 141 137 128 131 146 155 158 155 179 185 192 233 245 198 230 255 237 230 189 195 197 175 214 222 283
144 138 143 161 168 177 170 154 141 151 160 183 182 182 174 166 162 167 154 138 133 136 131 141 164 173 190 187 174 183 202 224 178 225 210 258 265 215 165 199 214 201 171
137 141 138 154 166 168 174 172 157 170 165 158 140 149 161 161 162 163 167 153 169 193 192 173 147 151 159 153 149 140 149 168 180 211 205 186 194 227 219 158 201 184 174
184 188 190 178 175 177 174 174 168 186 194 179 161 141 132 127 136 135 132 133 141 178 200 190 185 157 134 121 122 118 131 135 132 157 154 167 176 182 187 198 194 208 203
257 227 173 145 134 139 148 150 167 189 180 164 161 150 142 142 146 143 137 150 149 157 184 192 205 202 204 188 164 148 144 148 169 159 154 149 139 145 169 189 168 215 208
182 152 121 110 107 122 135 132 134 137 134 132 143 146 151 138 145 158 150 152 146 149 169 186 190 197 209 214 202 203 207 217 219 217 216 186 148 135 160 178 177 194 181
177 137 119 116 115 112 100 85 88 95 103 108 115 137 144 151 145 152 144 140 152 148 153 155 162 173 177 180 187 185 186 188 218 233 199 160 156 167 185 196 196 195 195
129 107 103 114 108 87 75 73 64 62 62 80 94 106 124 134 139 142 146 140 137 138 138 138 145 153 158 158 143 138 146 167 183 166 146 133 124 147 177 187 192 208 242
101 94 95 97 88 79 63 54 47 47 65 80 93 111 127 135 137 134 133 129 123 128 122 119 127 139 142 141 125 127 145 146 147 139 128 122 122 132 160 167 146 195 172
90 86 95 96 91 80 77 67 61 62 65 76 92 109 118 124 127 126 126 120 119 113 104 104 115 135 143 146 141 147 159 157 138 138 134 150 141 133 155 162 170 180 136
102 101 100 81 73 71 75 68 57 59 74 92 102 112 112 110 108 103 105 116 120 127 123 119 129 129 126 127 144 148 167 153 147 156 168 144 143 131 142 159 134 113 126
111 105 88 67 67 79 84 76 69 71 84 99 105 103 87 77 75 85 106 126 136 141 130 110 111 106 112 137 160 153 144 158 172 168 134 153 138 102 98 115 124 88 132
105 96 80 68 78 93 98 92 82 86 91 101 90 78 71 68 65 76 96 119 142 149 131 117 110 117 139 132 119 117 139 144 142 138 128 142 115 94 64 64 75 95 113
88 78 71 79 82 88 94 93 88 87 97 94 82 67 67 66 69 84 101 120 138 137 141 137 134 144 123 127 121 105 95 90 70 52 39 34 46 53 87 112 136 134 127
94 96 78 68 81 91 101 88 97 104 100 88 62 55 68 77 80 89 101 118 122 123 127 126 111 109 88 82 70 58 30 25 33 43 40 41 52 68 74 107 137 145 156
93 93 88 74 74 103 121 125 109 93 89 79 66 63 71 85 93 99 100 107 106 96 90 83 57 47 35 51 52 57 22 30 45 46 44 49 63 40 76 82 99 117 135
95 90 95 90 99 108 122 125 102 93 85 70 64 62 72 84 77 78 83 66 62 57 59 56 49 43 26 49 49 42 36 44 48 44 45 50 69 73 73 74 87 99 111
116 111 105 100 94 89 112 114 89 81 74 67 70 77 67 63 61 53 43 30 35 56 51 54 45 50 48 50 52 40 30 41 36 38 48 62 63 63 61 69 73 80 86
108 104 94 75 58 88 105 94 85 66 62 72 67 68 59 45 33 33 30 35 42 37 39 47 37 43 45 36 49 48 30 29 30 34 35 38 45 56 55 64 68 67 82
84 73 74 62 66 77 91 80 71 72 72 56 63 60 55 31 36 42 26 36 37 38 35 42 42 36 34 41 38 48 44 36 33 35 31 30 22 35 52 62 47 60 97
68 63 63 68 73 77 86 88 69 90 75 54 51 61 54 55 54 49 37 46 45 48 51 58 55 47 43 42 51 52 49 47 42 30 28 35 42 53 61 48 57 99 99
107 95 85 76 72 81 82 75 93 91 76 56 48 54 69 68 52 37 36 43 48 50 55 62 62 63 56 50 50 45 42 38 42 42 48 50 65 72 70 79 87 92 102
70 101 109 102 84 105 93 94 99 100 78 69 69 64 72 58 47 36 47 48 40 63 70 64 74 83 70 61 50 42 46 47 40 81 69 65 62 59 66 79 91 105 113
75 89 99 116 117 109 110 113 101 106 91 86 71 69 73 63 58 65 64 54 47 44 39 48 72 70 64 60 43 44 45 48 58 91 82 74 68 59 66 80 96 114 117

GFSMW_con_3kmhel_072.txt.gz
Helicity
92 93 102 101 113 132 123 121 110 138 132 140 133 124 124 128 119 111 99 96 101 99 112 125 129 160 165 153 177 191 177 175 213 205 168 165 156 165 176 174 184 183 223
84 96 108 136 143 144 153 160 158 153 147 140 143 141 129 126 120 116 107 99 106 118 127 127 134 156 170 160 173 215 211 203 225 223 232 162 138 126 116 127 143 141 177
71 102 111 135 182 200 196 184 177 173 171 162 153 162 160 161 155 149 146 163 155 136 131 135 148 157 183 167 174 193 187 182 198 217 197 173 149 148 143 132 111 116 141
103 131 114 133 158 175 181 176 181 175 167 161 150 141 135 136 147 156 164 177 193 190 183 158 145 147 184 185 168 179 186 201 161 186 146 179 219 175 158 172 153 153 127
100 104 127 171 186 181 173 158 157 166 164 159 148 137 144 148 155 161 166 169 177 196 192 185 176 147 151 159 159 162 164 175 176 185 172 154 178 172 162 122 123 139 133
125 157 185 193 219 209 178 150 141 151 153 150 161 152 143 140 148 158 162 166 159 173 185 170 158 150 154 151 148 149 153 153 157 159 159 174 168 152 149 153 153 136 135
205 197 203 196 186 181 177 162 154 162 157 154 165 168 165 159 152 148 146 157 154 153 178 174 177 170 178 186 183 178 170 161 161 150 148 152 158 172 170 184 166 169 174
217 215 191 183 170 151 138 135 147 159 162 149 142 137 143 132 135 140 128 129 125 129 144 151 159 172 183 193 193 203 216 208 216 241 250 224 230 218 194 170 164 155 165
167 208 208 183 153 132 116 112 119 119 118 113 110 123 126 132 128 135 126 123 132 134 145 152 157 168 179 191 203 220 236 237 235 222 206 192 196 176 163 159 175 175 163
168 189 163 127 109 108 118 115 96 83 77 82 87 95 106 114 119 125 135 137 138 143 146 145 143 147 157 168 181 190 199 205 188 169 178 192 176 156 134 140 166 185 189
90 119 127 110 106 112 99 92 81 69 71 75 80 93 105 118 128 134 141 142 136 141 140 130 127 137 156 173 168 175 170 149 144 154 157 160 150 144 139 139 145 183 169
77 102 104 108 111 99 84 68 65 63 62 72 85 97 107 120 128 135 141 142 141 132 126 120 120 127 142 168 193 196 186 165 163 163 152 140 142 174 142 138 130 133 131
87 105 102 88 93 89 77 67 61 61 61 69 79 94 108 119 120 122 127 124 120 121 126 125 129 122 131 145 157 164 181 193 190 149 166 174 170 154 163 122 99 85 59
95 92 93 79 85 82 73 73 75 73 73 80 85 90 87 90 97 95 105 112 118 124 122 118 106 116 139 156 151 156 167 169 171 171 164 151 134 148 144 102 95 77 80
104 94 97 87 82 89 87 88 82 74 77 87 94 90 89 84 76 74 76 94 115 127 124 121 120 118 125 114 124 142 146 144 141 135 99 101 103 83 59 39 58 75 79
104 103 98 95 82 83 90 98 89 84 86 81 86 87 85 76 71 71 78 97 113 129 140 138 121 130 128 134 115 99 89 69 47 41 50 61 83 80 86 87 93 93 87
88 96 91 94 85 84 105 98 98 116 112 97 82 76 72 79 81 81 87 102 118 122 135 138 129 116 101 95 71 52 23 27 27 38 43 50 43 65 75 87 113 128 142
84 74 97 97 81 95 115 133 134 116 106 87 75 72 70 82 87 94 96 105 97 114 112 97 84 64 37 46 43 43 22 27 31 36 39 51 57 39 66 71 83 96 114
68 75 107 123 111 108 119 132 121 108 102 87 74 65 72 83 84 92 88 78 92 80 67 51 48 43 37 44 37 34 31 43 45 45 42 47 47 60 72 61 68 76 76
96 112 134 131 119 100 124 133 109 103 93 85 80 81 86 89 82 71 67 61 52 51 52 67 68 57 40 41 46 41 38 49 43 45 48 50 41 49 54 54 62 71 68
109 142 130 103 79 100 112 100 94 76 70 84 90 85 81 79 75 77 59 54 58 55 59 67 58 45 49 38 49 54 45 48 49 42 31 24 26 31 45 60 49 44 63
105 98 100 81 73 85 95 76 65 62 81 83 78 69 76 63 47 60 60 55 49 55 48 48 47 40 34 35 39 56 56 51 48 39 26 19 21 32 41 47 35 49 85
71 79 73 70 72 76 79 73 46 85 85 82 76 73 64 60 67 67 67 72 56 53 53 53 54 46 45 38 39 48 58 57 56 37 27 35 38 43 41 38 48 75 74
63 84 98 94 69 65 68 63 91 96 93 83 77 78 76 74 76 64 68 74 65 61 58 55 57 60 55 49 52 53 60 57 56 46 43 43 52 51 48 49 59 66 75
65 84 104 81 66 84 77 85 98 115 94 87 87 84 79 73 76 52 65 68 55 74 73 65 74 84 66 61 58 64 62 57 44 75 67 70 69 62 58 53 54 71 86
49 53 56 61 66 81 98 109 117 114 117 108 102 92 93 99 93 64 52 36 42 47 36 47 76 75 62 70 66 57 53 47 50 94 86 81 80 71 57 50 61 85 90

GFSMW_con_3kmhel_075.txt.gz
Helicity
175 113 114 104 100 90 74 61 61 74 77 94 94 85 83 78 72 76 71 74 78 76 78 84 80 92 93 84 93 111 108 111 122 132 117 119 126 136 124 115 101 89 76
175 95 101 100 98 96 96 104 100 98 94 107 115 117 102 98 105 98 88 87 88 91 98 102 106 104 110 102 114 131 156 152 153 169 185 157 115 111 96 92 91 67 102
208 117 80 93 107 112 122 133 143 145 143 128 133 136 134 125 120 129 140 161 163 161 142 124 113 109 121 118 115 136 151 158 164 135 178 183 142 140 138 127 116 96 84
137 85 94 107 123 153 182 200 206 187 178 157 140 130 125 120 132 141 152 164 182 191 194 181 152 133 141 142 135 151 153 179 172 176 140 152 210 169 154 160 136 121 91
150 80 84 128 161 179 195 207 209 207 190 168 150 133 129 132 135 150 170 193 200 213 206 195 186 167 145 138 138 152 168 175 179 176 181 153 168 158 165 166 158 138 110
105 99 123 148 170 178 174 179 185 195 187 179 182 172 160 149 147 164 169 173 170 179 200 189 179 166 154 144 134 134 141 161 178 179 169 178 186 165 163 152 112 88 89
88 149 142 161 156 155 161 163 156 170 168 162 165 167 166 169 167 164 163 166 164 160 176 170 166 153 145 134 142 157 173 190 196 190 174 175 167 175 160 137 121 127 125
100 182 214 251 223 183 166 158 133 126 129 142 155 157 157 151 153 159 150 151 150 152 165 166 165 172 173 175 177 180 200 217 227 234 216 208 206 192 161 165 163 133 131
104 176 277 293 263 209 164 135 130 136 138 135 135 141 134 130 123 125 123 122 129 127 139 147 151 160 165 173 180 190 204 218 232 236 223 204 177 155 148 144 140 151 163
128 169 224 227 210 188 166 148 135 130 130 128 118 111 107 109 111 115 122 119 120 128 131 141 150 159 165 165 172 183 198 214 216 192 184 166 150 154 162 159 150 141 149
114 151 169 173 166 161 129 118 113 107 100 94 96 98 103 108 114 123 127 131 133 136 141 142 141 142 140 152 170 200 205 203 212 207 182 181 177 178 167 151 142 135 144
108 109 118 134 124 111 103 90 89 81 72 71 78 91 98 109 122 131 134 132 135 142 138 132 126 122 131 146 167 189 205 206 198 183 170 169 159 173 158 149 134 126 97
66 87 89 76 82 94 95 90 78 74 76 76 79 91 101 113 123 129 135 137 132 136 133 127 127 125 133 143 158 167 180 185 176 153 141 137 139 136 140 149 134 97 76
63 75 83 75 73 82 85 79 80 78 76 78 77 84 85 91 95 100 105 115 116 113 114 122 128 123 118 129 139 148 154 154 150 132 123 126 106 99 102 95 84 72 55
95 79 80 71 79 84 86 87 91 88 85 86 79 77 82 85 88 86 78 77 89 106 111 117 118 105 103 97 106 110 111 109 108 103 79 82 85 88 70 56 61 70 72
91 71 79 91 92 86 89 98 100 94 92 85 80 82 81 87 87 78 73 77 90 110 111 108 107 104 99 100 85 61 55 50 42 42 53 73 82 75 78 80 85 84 73
78 76 73 85 93 84 107 101 103 122 96 90 78 76 76 79 83 81 81 81 96 108 114 114 101 104 83 71 64 48 32 38 43 46 49 58 57 65 61 76 92 100 108
58 84 88 85 93 114 119 138 138 118 111 95 84 75 72 82 89 83 84 94 108 115 114 108 95 79 56 45 40 43 34 39 42 45 44 46 44 41 62 59 66 72 88
68 89 97 116 134 123 128 143 133 122 108 89 89 80 66 78 84 87 89 106 113 107 102 77 57 46 39 30 37 36 31 41 45 37 33 45 45 48 61 56 57 59 66
83 90 116 134 133 122 132 133 116 107 85 85 82 90 81 96 88 89 87 83 83 83 69 51 42 39 34 38 44 41 33 40 35 36 36 39 40 47 48 41 42 53 60
116 127 126 114 119 118 117 108 110 84 87 98 96 96 97 96 81 92 89 68 52 47 43 48 37 37 40 40 44 42 32 40 47 41 43 38 30 17 25 40 26 27 42
106 107 118 117 121 104 99 90 67 66 86 93 93 86 89 78 75 67 49 32 34 37 42 41 44 45 43 46 42 45 48 50 49 51 48 34 21 24 29 28 19 56 50
78 84 90 89 85 75 73 78 53 80 92 92 77 77 80 76 57 51 43 44 34 45 51 58 55 50 48 45 44 58 65 59 59 55 41 41 37 39 39 35 54 52 43
35 49 66 69 70 69 68 60 79 87 93 78 74 83 90 82 64 58 53 57 53 46 58 65 55 56 56 54 53 63 68 65 69 55 55 48 48 53 51 47 48 44 46
3 35 63 76 78 75 85 78 88 104 94 77 88 94 90 85 81 68 67 60 51 59 71 66 66 73 67 61 58 68 72 69 61 74 70 70 74 72 68 64 51 47 52
39 42 40 40 37 61 55 77 106 120 117 107 103 101 100 110 101 92 67 29 26 38 26 33 64 66 52 72 69 64 59 58 60 102 88 90 89 88 79 70 55 48 54

GFSMW_con_3kmhel_078.txt.gz
Helicity
170 152 149 103 81 64 56 48 53 46 58 67 66 62 58 65 71 77 77 81 83 83 83 84 79 81 83 76 88 101 117 119 109 130 112 105 98 103 106 110 84 87 97
190 185 204 111 93 81 81 70 48 48 46 58 67 82 85 83 85 96 94 93 88 90 99 95 95 98 104 100 108 123 135 140 157 172 194 141 120 102 102 88 104 78 93
201 223 225 126 89 89 95 100 95 84 83 86 101 102 104 97 97 101 121 147 146 151 150 136 137 132 138 134 137 142 138 163 160 133 173 172 135 170 143 104 103 101 110
164 229 249 166 107 97 101 107 114 125 141 137 122 108 106 104 129 135 136 138 157 161 168 164 151 130 138 126 123 139 165 168 173 188 153 140 196 169 173 168 128 107 92
178 224 210 205 111 113 111 119 140 155 167 162 147 129 122 131 128 126 123 141 154 184 195 191 176 168 148 127 118 119 136 171 172 176 192 163 166 149 172 156 118 126 100
203 161 137 141 132 130 142 158 159 171 165 151 143 130 118 116 113 125 132 144 154 170 186 177 167 152 142 131 124 116 117 136 151 173 175 191 203 185 183 166 142 120 92
155 146 107 134 134 137 138 147 147 150 142 141 146 145 147 150 150 154 160 156 157 159 166 163 156 149 144 138 126 123 132 136 151 151 164 199 199 222 198 176 153 124 134
117 144 95 113 124 146 136 142 143 142 137 136 136 144 159 168 178 182 173 171 170 163 157 155 148 149 144 140 137 131 148 175 201 222 228 249 246 236 221 189 156 124 109
41 -19 52 79 141 192 175 171 167 171 158 147 143 152 160 158 152 151 149 149 149 152 149 149 146 144 145 147 148 153 163 176 200 224 242 244 232 208 187 157 138 150 139
71 49 50 110 186 221 229 209 177 141 134 128 138 143 142 142 137 135 138 138 138 141 143 145 146 147 149 150 149 149 162 180 200 203 202 196 179 158 143 133 142 138 141
84 91 100 155 225 232 214 187 155 129 125 128 124 117 119 117 115 117 120 123 123 130 133 139 142 141 138 135 131 144 148 166 183 195 179 172 148 140 144 155 147 127 133
98 82 115 163 174 165 155 138 134 129 126 115 99 97 94 93 98 107 120 123 121 128 133 133 133 135 133 129 126 134 145 144 153 155 143 131 122 142 145 137 124 122 99
36 63 96 105 118 111 105 100 110 107 101 90 81 77 81 90 104 113 120 126 123 126 131 134 132 127 125 126 137 144 156 161 156 141 123 114 115 122 111 102 98 86 80
57 40 50 60 76 83 80 81 80 84 86 82 77 72 69 76 85 92 102 115 117 117 115 111 116 111 112 113 118 129 140 140 137 126 116 107 101 85 61 56 54 50 49
66 73 57 55 66 76 86 86 87 85 83 83 82 79 76 80 83 83 84 92 96 99 98 100 105 108 103 107 112 113 112 106 106 101 104 93 79 77 70 57 64 65 70
66 86 72 70 69 70 81 92 88 90 95 87 87 93 87 87 87 86 85 80 85 90 91 107 111 111 116 109 106 94 92 82 74 61 46 42 56 60 80 87 102 108 92
77 88 77 70 74 82 82 77 88 103 99 98 89 91 96 99 89 89 85 81 80 90 110 114 111 125 116 105 81 71 54 45 41 43 41 48 51 62 59 68 81 92 99
62 61 54 63 83 83 83 96 116 109 110 110 100 90 92 96 89 83 88 88 92 98 119 116 111 111 99 73 48 47 41 44 42 41 45 43 47 57 55 57 56 57 68
43 41 59 60 98 102 114 127 118 115 117 112 109 91 88 88 85 87 89 105 106 120 122 106 102 79 56 35 29 28 28 33 36 38 38 50 47 56 50 45 42 47 54
71 110 121 108 96 120 121 127 120 113 100 97 94 91 85 86 96 112 111 113 101 100 92 83 70 33 32 29 22 18 27 33 36 38 45 42 41 44 47 30 42 46 51
148 143 118 106 113 117 122 117 112 83 83 98 99 93 85 81 97 118 116 112 102 80 70 55 37 35 33 33 27 23 36 38 45 48 47 45 36 38 38 36 44 42 38
158 152 135 130 127 118 109 107 84 84 87 90 89 85 87 94 96 97 106 91 66 35 32 31 33 36 35 30 26 28 33 43 48 53 46 48 49 53 52 44 44 52 41
93 93 97 101 100 98 96 94 89 84 81 78 78 72 79 81 82 89 71 55 33 36 36 41 39 43 41 41 31 32 42 47 51 53 55 61 70 63 56 61 62 58 46
64 67 69 85 81 64 73 94 109 81 75 68 66 75 75 79 77 69 54 56 64 60 47 46 51 53 54 51 51 55 64 58 59 63 60 72 74 72 71 66 62 56 59
54 41 5 50 58 59 64 87 117 92 83 69 75 79 81 81 74 63 71 61 54 59 65 61 58 65 62 54 52 66 77 74 70 76 77 76 81 82 88 84 76 70 68
63 39 36 50 48 59 63 78 107 111 78 71 78 82 106 99 79 68 71 42 44 45 37 46 58 62 49 68 50 50 62 73 82 85 84 86 89 91 99 94 86 76 63

GFSMW_con_3kmhel_081.txt.gz
Helicity
61 70 117 152 122 111 76 58 46 48 53 65 60 50 64 64 69 77 83 92 92 93 88 95 96 104 105 94 96 109 117 116 114 118 124 106 89 100 119 106 105 96 180
43 62 78 134 140 102 86 66 51 60 72 79 75 69 73 72 81 86 97 88 97 107 117 117 131 148 145 121 116 130 146 143 142 188 167 164 116 116 146 162 145 144 124
73 62 84 167 139 143 131 138 110 94 94 77 107 132 128 132 110 118 119 185 159 170 176 171 169 172 173 158 158 162 168 173 172 155 174 180 175 180 179 153 129 134 119
144 80 107 152 156 155 144 136 113 105 106 106 95 87 92 96 158 192 171 125 140 147 150 147 146 140 143 153 152 151 152 168 179 179 198 159 197 208 184 168 151 127 89
102 94 123 136 159 166 159 122 109 128 111 107 118 128 139 168 150 126 118 122 123 150 155 159 158 162 172 154 130 130 135 140 142 152 171 158 172 184 209 194 161 156 116
198 147 97 123 143 145 154 154 127 129 130 138 149 152 148 124 108 110 107 115 125 136 163 173 171 164 163 153 138 123 115 114 118 129 143 185 193 216 209 178 171 151 156
51 188 193 223 146 132 140 143 130 131 136 148 159 160 157 139 130 118 117 116 118 127 152 159 159 155 147 142 134 129 128 145 153 140 149 162 176 177 205 218 197 184 166
39 143 196 158 183 156 124 140 135 149 145 166 168 155 142 133 143 147 149 153 160 154 139 137 139 141 140 142 141 143 141 152 165 197 200 215 217 208 209 205 203 149 126
111 165 157 112 159 160 129 151 180 177 140 139 127 126 135 140 139 144 153 156 151 153 143 138 139 139 138 137 133 138 154 157 158 174 195 206 220 206 198 183 160 158 141
85 77 184 150 89 107 114 144 154 152 156 142 154 152 155 162 160 156 154 151 146 143 140 136 136 135 133 137 136 138 136 162 179 176 179 192 192 189 175 153 127 117 126
61 82 92 114 105 69 93 126 161 177 180 177 163 157 156 159 158 156 149 150 139 143 141 140 139 143 146 146 140 141 134 126 141 177 201 190 173 156 133 120 119 122 127
43 70 92 105 124 153 172 227 191 186 172 150 138 137 126 117 117 121 128 128 131 133 141 139 140 146 148 149 149 134 129 132 139 140 155 147 138 138 131 127 132 124 111
18 67 77 97 113 117 155 177 158 164 156 142 122 107 94 87 95 105 113 119 118 122 126 131 132 140 149 147 152 145 147 158 170 180 167 150 133 128 117 113 100 93 76
12 52 69 53 73 95 129 134 134 133 129 107 95 83 77 80 87 96 102 111 115 113 119 127 136 131 129 131 129 137 148 169 182 180 167 157 140 110 86 66 59 55 55
22 62 72 69 70 82 95 104 113 115 107 101 95 89 88 90 92 91 102 109 109 123 124 122 120 116 115 116 125 134 145 142 137 135 127 122 110 98 98 70 66 69 77
53 65 88 75 83 88 95 106 115 111 106 96 88 91 84 88 93 94 92 101 115 117 114 123 113 105 107 111 121 119 125 126 118 109 88 49 53 67 75 84 96 107 91
91 111 77 74 84 81 99 105 114 117 106 95 96 102 93 100 110 98 78 84 96 124 126 113 109 104 105 108 123 116 115 112 86 61 38 43 47 50 46 54 69 83 103
111 91 70 84 93 99 103 117 115 110 92 90 95 91 97 108 115 98 86 92 98 104 118 122 112 113 112 108 107 111 86 71 55 49 43 32 31 58 56 59 56 54 74
90 92 84 86 100 118 127 129 120 113 102 98 100 100 102 107 100 94 101 124 124 122 121 130 133 115 99 90 83 55 36 46 39 37 50 55 50 49 51 49 40 41 62
106 81 93 131 139 124 135 131 112 102 100 100 96 110 110 98 93 85 114 138 134 127 120 123 102 95 92 57 39 41 45 43 46 46 49 57 70 52 52 40 45 46 80
105 107 115 116 134 141 131 125 111 100 104 116 109 105 104 93 93 103 142 155 150 124 100 92 80 71 54 38 28 32 48 56 51 53 49 60 50 52 47 43 50 67 63
116 144 147 170 160 129 133 137 127 139 146 129 112 103 99 132 141 142 146 132 128 97 77 74 62 36 23 38 36 34 38 53 58 61 58 68 60 67 60 51 55 56 56
99 124 136 133 126 117 113 118 138 140 139 114 103 92 90 106 108 132 132 118 96 68 49 41 38 38 45 52 35 33 36 45 56 65 70 84 68 66 56 58 65 60 53
92 93 97 103 101 93 107 128 132 131 122 110 96 95 87 93 115 123 114 105 76 51 44 56 60 64 70 65 72 62 58 40 58 62 65 65 71 69 72 72 67 65 62
86 84 89 88 88 72 70 74 80 89 98 92 101 88 87 99 119 109 109 92 61 56 70 71 77 82 82 78 66 74 80 85 75 79 84 86 84 84 82 85 80 87 85
42 64 64 58 55 68 67 77 94 103 112 93 106 124 98 88 112 121 100 51 45 43 34 65 87 92 69 84 55 49 51 61 72 108 98 88 93 99 93 97 98 109 92

GFSMW_con_3kmhel_084.txt.gz
Helicity
42 68 97 142 146 156 146 109 93 66 89 88 102 100 94 78 54 72 82 128 112 104 118 113 91 111 121 115 116 129 140 145 140 150 141 136 122 118 111 120 109 85 163
113 34 31 87 138 143 127 106 83 78 96 115 90 84 91 76 71 78 123 160 167 187 170 163 156 157 156 155 152 160 155 162 154 174 169 156 136 102 108 154 221 183 179
157 92 49 50 106 146 139 149 121 104 120 111 154 194 190 166 163 159 177 180 185 166 173 166 156 151 148 142 150 160 168 162 167 160 185 187 172 161 142 199 194 203 175
172 175 83 91 103 144 210 231 221 195 190 210 159 137 139 143 163 194 197 175 179 172 177 182 185 171 152 146 155 169 164 176 164 161 159 174 184 177 165 192 180 159 128
165 168 225 95 117 193 199 204 202 202 179 153 150 150 170 181 179 189 187 164 149 159 158 162 164 174 175 177 169 158 157 155 162 153 140 150 153 162 191 179 161 188 158
99 188 266 199 224 202 186 195 205 212 176 175 191 175 167 164 172 164 156 146 137 124 147 162 164 172 181 177 163 143 128 125 138 138 139 149 162 173 189 181 184 166 201
90 171 276 305 264 209 183 183 196 221 200 192 196 202 205 188 177 168 167 158 146 154 156 157 171 167 165 163 154 144 136 141 158 144 138 129 148 191 176 190 151 140 192
124 141 237 317 206 200 216 200 177 194 189 208 211 208 218 214 219 216 187 184 198 172 151 150 152 155 159 155 154 149 164 169 156 161 169 171 184 194 204 211 187 187 177
179 133 182 220 233 213 211 245 247 213 209 206 216 212 205 188 160 164 178 168 164 155 148 136 136 140 139 144 147 154 170 187 166 147 165 177 190 200 197 200 194 198 172
91 175 178 241 274 213 182 189 226 213 219 217 231 217 181 152 148 145 155 168 161 154 153 151 154 155 156 152 153 156 139 143 163 164 168 181 183 189 185 174 169 159 159
71 105 124 216 282 211 222 186 182 177 184 215 188 159 160 134 131 143 144 150 142 143 142 144 146 149 160 165 163 165 162 141 140 162 183 183 181 167 163 166 159 149 141
35 64 114 205 247 254 231 291 167 71 85 104 116 127 105 133 172 177 163 150 138 124 131 135 142 153 163 174 181 165 166 165 165 141 161 159 170 198 177 151 137 127 115
65 49 78 147 175 197 184 240 328 364 410 378 325 206 147 125 147 151 144 141 135 128 126 140 158 163 163 175 187 198 199 208 208 208 186 179 177 165 148 131 117 105 87
-20 20 71 108 143 151 154 182 188 228 275 273 238 177 145 147 145 145 139 135 138 132 137 142 142 147 154 161 169 175 181 186 198 213 221 198 172 134 100 92 73 59 56
-7 3 67 115 102 114 119 147 173 216 198 182 171 146 122 117 121 104 102 105 117 137 135 119 114 115 122 125 131 146 146 151 165 160 147 128 122 117 105 61 75 77 83
27 33 97 111 116 140 147 144 163 167 152 140 125 125 124 127 116 119 116 123 116 116 118 128 123 122 119 109 104 117 127 142 135 132 114 87 80 64 78 88 106 92 74
82 93 152 143 151 158 172 169 193 185 163 146 129 136 123 130 134 127 119 106 94 108 109 123 126 134 122 115 124 121 139 137 124 114 88 53 46 46 52 76 83 91 107
86 99 122 146 158 172 190 214 209 192 167 147 147 154 143 148 152 139 118 118 112 107 109 114 109 123 135 111 119 125 139 136 104 80 41 36 45 58 67 64 57 61 63
47 67 85 95 166 193 236 249 234 199 161 143 153 151 151 161 157 131 114 120 121 118 121 131 145 144 126 111 109 113 94 64 48 35 56 74 50 59 62 54 57 52 47
124 110 84 75 212 281 321 289 235 210 155 139 140 156 162 163 148 135 123 112 125 138 163 168 135 129 118 97 86 78 61 48 43 52 57 64 64 61 63 72 59 63 51
109 141 151 165 271 320 284 243 204 156 137 146 153 165 171 156 150 145 136 123 147 155 135 122 114 111 86 75 57 37 56 48 46 53 52 53 59 55 53 64 62 62 59
111 152 184 238 257 229 202 174 151 149 173 173 170 165 155 141 156 155 139 130 133 119 109 104 90 74 62 62 31 25 34 54 58 57 65 66 61 65 61 61 54 66 75
63 106 131 163 162 157 146 152 142 174 176 170 158 155 156 133 129 123 128 134 110 106 93 87 81 63 49 41 26 24 32 39 60 68 72 75 67 61 63 56 59 66 75
65 60 79 104 114 110 120 102 114 134 148 145 144 145 145 132 121 100 114 120 112 96 66 70 54 41 40 44 53 56 56 46 58 73 74 69 65 58 61 73 63 74 72
54 64 73 84 81 79 78 93 99 117 129 122 128 134 126 100 99 98 112 107 94 92 91 70 62 68 67 62 60 72 73 78 75 90 95 101 88 82 75 76 73 79 81
63 54 53 68 54 60 67 96 97 82 91 100 118 143 117 96 114 106 88 45 55 51 38 66 82 65 52 54 50 47 48 50 61 109 116 108 101 95 88 92 95 99 87

GFSMW_con_3kmhel_087.txt.gz
Helicity
118 120 125 132 141 133 124 113 115 83 123 157 152 144 104 124 95 65 56 71 80 84 93 88 79 105 104 117 131 132 129 126 128 128 123 136 114 105 94 92 106 147 196
134 123 98 109 135 154 138 136 99 106 90 118 126 100 97 86 79 93 129 177 199 194 181 151 144 132 132 150 150 153 140 138 134 150 145 138 136 121 112 109 153 195 188
114 102 109 92 111 136 123 131 129 141 119 126 159 163 158 134 129 132 152 176 176 175 162 170 159 145 133 123 131 139 147 149 154 148 174 162 131 146 153 153 172 178 173
109 160 108 87 95 116 151 158 181 180 178 163 201 186 147 157 166 224 205 183 191 184 163 162 171 164 157 160 161 175 174 182 161 166 162 191 188 178 162 156 178 189 187
41 145 175 121 81 150 194 207 241 251 249 247 182 193 210 213 225 233 205 205 211 177 173 172 175 185 185 187 189 183 176 181 176 165 153 149 159 159 190 191 142 187 273
71 89 185 224 163 152 203 213 224 245 230 237 211 213 230 242 252 225 212 195 186 179 171 169 173 183 188 183 174 168 156 149 149 152 158 156 169 171 185 190 158 183 240
83 106 176 303 276 232 221 217 224 229 222 212 246 237 221 210 207 200 196 198 187 177 160 157 164 162 164 165 158 152 148 147 154 178 166 156 156 159 164 184 172 196 205
72 92 154 234 281 246 198 176 188 208 228 270 269 252 239 248 246 226 222 215 191 153 138 146 149 152 152 151 148 144 155 180 164 180 156 148 155 163 179 174 187 160 180
85 94 144 212 249 255 243 228 212 231 244 265 282 261 240 231 217 224 218 195 161 146 141 150 149 143 142 138 145 146 151 171 177 172 149 154 170 187 191 193 198 175 191
75 122 141 201 212 228 227 238 227 222 240 273 237 234 231 220 214 189 191 149 155 162 164 162 159 159 157 154 149 145 150 166 178 181 144 167 184 192 203 194 188 177 162
44 59 107 160 179 193 204 249 261 249 279 256 215 284 232 210 212 195 163 148 126 133 154 161 165 161 157 157 153 145 151 149 141 164 176 173 168 170 170 166 164 157 151
24 23 57 116 176 194 201 224 214 202 198 200 208 226 126 113 113 104 88 89 96 137 150 156 162 155 165 167 169 159 165 158 176 150 160 167 169 173 166 148 149 141 140
39 71 83 78 136 172 200 230 227 233 257 310 389 400 211 102 168 178 115 80 104 107 135 151 139 140 146 151 158 163 179 198 201 197 179 167 148 163 158 149 141 115 100
30 26 32 58 95 127 155 179 197 211 251 280 265 287 254 234 219 173 176 172 148 130 129 137 128 122 128 137 152 153 159 173 187 195 185 174 160 138 119 123 101 75 60
35 17 49 63 99 138 137 150 168 189 201 202 175 166 177 173 175 177 145 131 127 119 106 101 100 98 116 130 139 143 150 159 168 170 164 153 141 130 109 84 75 50 59
62 40 42 49 76 138 162 153 155 152 155 148 132 141 154 159 143 139 136 129 120 114 112 109 109 107 130 129 129 137 144 149 147 147 151 138 131 104 91 84 77 57 58
102 97 102 126 156 154 161 144 151 168 151 141 132 141 151 155 151 150 139 117 106 105 100 101 109 115 122 127 119 137 148 135 120 122 110 101 92 75 68 70 93 98 111
62 63 75 99 163 180 165 187 202 184 162 144 139 145 154 154 154 146 123 111 105 87 79 83 100 116 132 116 126 134 144 141 127 105 77 74 59 41 52 58 67 70 75
59 42 58 78 130 165 197 227 219 216 190 154 149 151 155 161 159 141 115 112 93 85 86 103 119 135 143 116 108 130 132 124 103 81 59 48 36 45 58 60 66 59 64
45 63 81 74 78 144 269 283 246 230 187 163 150 147 151 161 158 140 128 123 114 108 114 119 122 119 123 96 97 108 102 90 70 59 59 46 35 50 59 62 62 57 46
52 71 88 96 80 159 333 331 266 192 172 158 158 152 151 152 146 142 130 115 108 122 110 114 109 111 98 76 60 55 68 58 51 47 42 40 43 48 53 62 65 51 51
51 86 114 154 163 215 296 273 195 141 139 151 158 151 151 156 150 143 111 98 92 107 100 102 94 78 73 57 35 29 32 34 51 44 46 43 44 47 48 62 49 53 67
35 52 86 134 176 168 142 139 118 136 157 160 150 150 161 159 148 137 113 92 87 100 105 102 89 72 61 58 33 20 18 29 59 63 55 46 51 49 55 48 50 57 76
35 36 55 85 105 118 118 99 103 129 152 150 147 164 170 155 153 116 97 84 91 98 98 97 77 61 46 41 29 21 21 25 52 57 67 69 72 68 65 64 67 84 79
53 51 57 69 72 96 114 109 103 109 118 126 135 157 152 144 125 105 85 70 83 98 101 100 93 82 56 45 58 69 63 62 70 86 100 95 97 89 84 82 74 80 84
72 76 66 62 61 69 88 87 84 97 115 122 123 139 150 116 126 101 63 36 43 44 27 40 82 73 68 61 43 44 52 53 60 111 114 102 98 92 88 85 89 95 87

GFSMW_con_3kmhel_093.txt.gz
Helicity
132 93 82 113 139 140 146 98 90 103 102 82 84 111 66 155 213 220 126 99 92 102 94 91 77 62 55 59 61 68 58 65 76 70 70 69 58 59 76 74 74 85 114
139 106 82 94 83 107 97 126 127 148 150 133 149 157 171 168 147 147 135 115 113 117 106 88 66 69 80 74 81 78 78 84 89 84 69 66 73 94 84 100 126 148 164
80 93 103 76 77 61 83 92 96 124 142 139 198 224 212 202 190 224 187 162 138 126 125 88 77 94 109 107 114 99 88 82 114 135 139 107 78 103 101 130 140 152 194
102 105 104 101 77 57 72 60 93 118 94 124 140 159 198 238 193 177 184 168 162 160 152 131 119 153 136 149 126 120 124 121 103 132 165 201 185 125 110 144 171 191 228
75 82 81 69 74 77 80 95 76 100 118 141 126 151 179 164 191 199 187 208 242 288 292 268 188 131 110 115 132 138 114 123 123 137 147 163 166 174 182 139 186 245 261
40 40 53 57 78 101 105 107 79 81 120 132 154 154 137 175 211 229 245 237 213 246 230 208 147 116 110 125 132 131 124 116 116 138 139 147 152 159 175 177 160 191 243
48 57 49 45 48 67 104 129 151 136 126 125 153 164 135 148 187 215 236 222 213 165 157 115 101 105 129 126 139 130 116 117 132 135 130 149 161 174 168 180 166 180 242
48 35 42 58 75 62 93 117 143 151 148 144 129 144 180 229 224 220 247 176 137 127 155 148 112 110 122 131 114 106 105 136 145 146 144 158 165 170 168 183 179 180 264
89 85 81 37 65 84 90 129 175 172 136 131 131 122 158 225 302 278 229 269 172 176 164 131 112 112 110 91 103 116 113 130 148 140 148 159 168 174 168 166 164 178 207
70 69 66 52 55 77 107 153 149 145 140 136 148 157 161 191 248 334 302 284 265 152 100 72 62 73 85 89 100 102 123 129 125 135 144 149 153 162 178 179 170 167 182
61 52 53 51 55 74 90 122 129 132 136 151 177 180 192 190 188 203 221 274 350 250 94 165 93 54 64 83 131 118 103 107 112 125 133 131 148 151 165 170 163 169 168
120 108 103 78 55 50 70 93 111 116 127 140 168 180 205 230 227 177 192 176 243 236 212 196 93 150 130 151 118 106 79 89 116 114 141 137 140 155 168 163 171 166 162
78 81 74 63 50 41 42 66 88 107 139 169 180 180 199 250 221 234 254 217 208 191 213 162 174 117 108 137 114 107 83 113 157 138 131 136 135 138 152 158 153 150 147
28 32 34 18 20 26 31 48 74 119 157 184 193 189 187 225 182 176 223 231 174 140 146 216 174 149 132 108 99 105 127 137 137 150 157 158 146 124 122 131 137 131 132
22 19 24 22 30 41 43 51 69 111 154 180 178 177 196 219 228 250 245 189 189 179 182 143 143 116 97 88 83 93 110 122 136 148 156 155 147 131 121 117 116 121 122
2 11 43 48 41 49 57 72 87 118 149 156 156 168 209 236 226 216 179 169 156 120 124 119 104 99 98 79 54 81 105 126 122 129 145 143 150 139 117 104 101 95 93
65 57 51 61 64 61 76 94 124 157 151 167 160 175 186 186 172 168 167 135 115 115 96 83 93 88 70 60 55 69 109 119 122 128 126 127 129 134 134 139 155 130 95
73 71 66 59 57 55 61 98 154 171 167 159 158 172 176 167 170 161 142 129 120 93 91 81 75 75 67 59 72 130 145 148 141 127 110 106 98 84 86 89 95 85 90
47 44 51 53 49 46 54 87 152 182 192 167 144 158 171 168 162 152 143 127 113 99 94 102 92 82 68 63 77 143 144 135 123 114 98 85 79 54 56 64 74 71 78
34 32 28 30 40 45 62 106 135 185 165 156 146 170 171 171 159 148 138 133 122 104 112 108 94 82 78 68 69 123 142 124 116 101 84 55 55 38 42 46 40 51 49
38 31 36 37 39 55 72 91 150 150 122 205 205 182 178 171 161 167 162 139 130 112 98 92 91 85 78 82 72 93 119 112 104 94 80 51 33 30 23 29 30 36 55
35 26 31 32 38 49 60 85 123 113 187 211 194 186 181 188 190 175 166 144 129 109 90 76 76 78 78 70 62 76 82 78 94 91 65 31 14 28 36 47 36 38 69
44 38 35 34 38 47 50 70 95 129 179 185 182 189 203 212 211 199 168 165 126 118 89 71 78 84 82 93 59 54 54 51 76 57 40 28 22 25 33 39 41 57 82
85 109 64 51 47 54 59 62 87 115 177 217 203 196 203 201 183 175 172 160 146 139 104 97 89 89 92 95 89 66 57 33 54 48 40 64 43 34 52 57 61 84 84
51 123 94 65 48 53 66 71 75 112 152 167 159 175 189 158 153 145 145 145 148 139 134 103 88 90 87 87 84 81 81 60 68 87 75 66 72 77 77 78 80 92 98
106 120 116 90 72 66 71 73 76 97 118 125 127 139 146 131 130 141 153 108 95 72 56 70 70 74 53 61 46 40 44 44 48 105 108 106 103 103 107 105 102 100 92

GFSMW_con_3kmhel_096.txt.gz
Helicity
140 117 142 141 157 191 129 156 127 22 33 -57 95 115 151 54 97 59 97 121 149 134 149 123 122 110 84 59 52 61 49 44 47 41 46 43 34 50 73 56 62 86 110
218 181 143 176 152 93 118 148 128 62 107 113 36 58 124 80 77 109 65 105 176 134 158 123 99 94 72 48 62 58 53 46 60 50 50 68 47 54 76 92 97 111 131
229 225 96 62 84 96 91 95 75 61 69 64 123 146 181 150 114 161 113 143 145 154 150 180 152 118 90 78 86 98 87 75 99 98 73 76 59 93 108 136 150 127 156
201 209 190 95 56 49 79 81 81 60 83 97 108 113 124 31 103 98 193 227 266 250 203 130 134 118 128 138 58 81 109 110 83 93 104 125 147 101 94 110 143 180 189
155 160 164 143 112 90 72 57 63 74 73 92 101 108 156 123 155 251 299 279 289 266 193 180 197 148 147 137 108 89 79 97 90 84 92 113 133 138 151 108 127 176 197
92 108 167 143 107 82 80 71 78 82 82 97 89 104 103 128 127 174 249 249 249 245 195 198 138 134 109 114 106 99 102 88 81 79 78 100 129 167 147 153 130 142 191
43 69 100 112 99 92 85 75 74 71 84 98 94 94 97 108 137 165 202 266 242 204 198 150 111 96 43 51 45 58 90 76 67 86 100 131 139 179 157 170 141 155 183
69 66 59 55 44 55 63 68 96 104 106 110 111 113 101 121 163 185 183 209 240 217 117 160 66 76 66 53 13 24 45 93 72 82 100 129 159 177 167 168 164 154 199
95 79 94 89 65 60 72 77 92 107 97 100 109 104 105 116 143 170 205 228 235 216 143 210 307 206 239 147 47 69 85 83 85 94 109 129 151 156 156 155 159 175 174
97 91 89 98 90 77 74 70 83 101 127 135 116 113 110 112 132 179 201 208 218 203 153 181 257 243 310 112 126 125 83 70 64 69 96 120 131 150 148 148 161 171 175
112 122 110 84 64 73 82 92 92 115 116 116 119 113 114 125 141 146 159 144 137 121 130 160 187 212 214 150 102 63 160 85 89 99 95 112 125 133 139 153 157 169 176
120 105 90 78 72 52 58 75 89 90 96 103 112 120 136 160 188 212 220 211 206 208 211 204 181 143 161 111 113 156 131 118 110 104 100 92 132 142 141 151 153 163 167
106 69 51 31 20 12 4 17 47 65 82 106 126 136 146 168 187 199 217 212 178 172 167 169 130 81 71 59 54 116 119 119 116 117 104 104 110 116 125 143 144 146 157
60 64 68 53 38 26 16 10 17 39 67 96 116 124 132 156 183 196 217 256 188 137 165 176 137 123 86 102 96 96 101 106 114 117 127 135 135 114 121 119 121 124 127
25 15 7 20 37 47 43 39 42 44 63 79 99 107 132 159 200 237 223 200 166 159 136 166 169 155 129 107 97 82 71 90 108 125 127 130 131 120 113 118 105 104 112
43 47 52 60 59 48 38 47 54 55 76 76 100 146 170 198 211 242 239 225 223 185 155 158 158 120 100 75 69 57 64 89 105 115 130 134 134 125 117 113 104 91 99
67 63 43 26 34 42 47 47 57 83 101 117 133 161 199 207 213 231 239 222 195 168 147 134 112 90 83 76 68 53 75 103 118 126 123 124 130 134 156 161 170 147 117
111 107 76 57 50 43 50 45 49 65 113 139 146 165 196 215 224 212 199 197 169 138 131 113 108 106 81 64 58 59 99 131 133 126 116 109 102 106 115 115 114 99 94
116 97 69 59 48 44 46 33 41 64 112 140 164 176 206 221 209 196 177 169 157 140 132 118 98 84 74 57 56 92 95 122 125 128 114 109 103 83 89 100 96 82 89
27 14 17 21 39 57 19 27 42 74 114 132 162 208 211 200 183 183 178 173 161 152 138 119 90 69 71 55 50 89 91 123 127 125 110 92 86 71 68 74 65 75 54
37 38 25 29 43 47 35 35 48 69 82 127 187 201 190 187 184 194 214 194 185 164 115 91 90 88 83 81 60 82 94 107 113 111 105 84 57 54 49 47 32 25 35
26 35 50 51 57 42 45 42 43 69 98 150 185 185 200 211 213 214 218 206 189 158 128 116 114 91 70 61 51 50 66 80 101 104 83 67 42 35 24 36 35 31 45
55 25 43 82 64 63 57 36 56 56 112 148 169 195 210 201 210 228 222 214 186 175 150 126 111 81 61 74 48 33 44 55 87 92 69 47 29 26 43 33 37 53 70
65 43 53 72 78 95 80 53 48 53 102 139 178 216 239 238 217 226 241 247 212 187 148 135 100 91 103 89 83 70 73 43 70 75 72 50 44 42 42 38 38 70 76
51 27 46 55 44 82 80 66 59 66 96 146 192 230 247 231 227 206 230 194 186 145 126 105 116 128 116 73 66 82 90 82 89 121 99 88 87 77 62 58 61 76 80
74 53 36 51 49 54 91 80 77 83 101 128 156 187 210 160 195 250 212 138 86 64 79 102 118 115 69 80 45 42 44 57 80 118 103 96 95 94 88 91 91 70 67

GFSMW_con_3kmhel_099.txt.gz
Helicity
177 24 86 93 196 131 80 105 134 -51 -87 -15 48 83 87 81 58 52 52 53 58 45 56 74 101 123 133 104 95 88 59 58 58 46 45 43 43 43 57 53 70 63 66
210 73 -47 50 39 73 -42 114 -8 -27 -58 -20 -7 51 126 110 73 105 58 76 76 104 88 71 91 90 110 115 96 84 92 63 61 61 58 53 40 59 81 101 99 89 74
185 162 69 76 105 138 118 -14 33 -24 -51 0 104 97 94 84 60 45 64 95 93 109 134 121 125 122 108 116 97 76 62 81 93 92 74 57 46 54 85 105 116 106 111
184 151 150 155 84 127 118 96 76 68 9 103 57 97 80 46 24 -4 -9 98 144 165 170 192 172 200 192 131 164 148 111 102 76 82 87 93 100 76 70 93 119 123 128
132 122 127 120 115 117 94 74 100 111 85 89 99 -7 141 206 73 52 65 71 165 191 189 275 275 283 249 228 194 178 89 85 43 58 88 86 83 84 85 78 112 128 144
110 121 143 137 146 132 82 70 44 28 44 62 72 85 114 126 176 163 190 199 262 329 323 333 257 238 209 188 68 79 102 78 77 60 54 61 60 75 85 92 99 120 144
63 135 155 151 154 131 110 97 79 74 68 61 63 76 82 92 99 135 190 226 262 273 287 269 226 256 103 30 94 161 88 35 43 56 57 42 51 85 97 127 123 146 156
122 147 158 117 116 131 122 98 88 90 98 90 73 83 79 100 105 129 164 159 200 210 192 235 206 112 234 254 206 137 172 79 43 39 41 60 72 91 114 135 146 139 157
128 106 99 93 106 105 95 92 91 105 121 154 146 126 114 96 96 110 136 175 199 196 156 159 164 208 195 175 190 176 116 173 239 114 92 101 92 92 101 131 139 151 156
148 139 116 102 97 101 103 89 90 86 95 109 126 140 129 128 130 131 157 171 185 173 154 152 157 161 175 196 184 191 151 130 125 133 90 68 87 105 114 126 156 154 154
97 99 112 104 85 71 91 97 96 95 99 116 127 122 127 131 130 119 123 141 166 162 185 173 159 143 154 173 200 189 150 106 82 70 70 116 136 133 137 126 149 141 153
158 153 141 125 120 102 71 70 89 88 83 90 110 114 116 118 123 136 160 197 223 210 190 186 176 155 162 145 121 115 108 96 84 95 78 104 117 123 133 142 145 150 168
90 86 87 86 77 69 60 49 54 73 78 84 90 95 89 98 118 142 168 189 215 213 192 183 151 151 142 117 130 108 71 47 86 109 104 113 119 117 118 108 123 136 158
55 54 52 49 49 43 50 53 48 44 46 64 88 100 110 112 122 143 170 185 194 200 200 175 176 162 142 139 127 93 90 104 116 123 135 135 122 107 104 104 112 127 136
92 75 62 69 73 76 76 76 74 71 70 78 84 83 92 117 153 178 200 219 201 201 185 142 156 143 115 93 103 95 88 95 116 118 114 122 124 118 109 104 108 123 132
162 158 151 150 144 126 112 98 96 96 107 99 93 119 133 149 154 180 207 225 231 205 176 156 143 128 135 103 99 112 88 76 93 111 120 127 132 132 121 120 122 122 124
135 152 144 112 103 99 86 87 77 68 81 100 102 118 138 166 194 213 233 240 234 227 184 157 133 129 121 107 111 96 82 72 92 104 108 121 135 146 161 167 174 158 130
114 117 93 94 79 64 60 55 69 66 68 82 116 146 171 180 223 249 244 245 242 222 206 170 132 128 112 96 89 63 70 73 100 123 124 127 127 130 134 134 134 121 105
59 49 39 37 33 49 42 17 30 50 59 77 97 135 175 210 234 228 227 242 231 216 195 161 136 110 110 98 109 118 85 81 97 113 119 125 124 105 111 119 113 109 100
30 45 40 31 36 56 26 23 39 38 47 76 99 130 184 202 207 208 235 230 196 202 193 157 114 106 121 99 85 96 77 75 95 103 106 95 97 90 88 91 94 103 85
21 60 72 56 69 95 88 63 58 50 53 49 74 120 165 187 187 232 234 239 243 207 184 156 137 128 117 98 60 59 72 67 93 97 98 94 73 75 72 73 69 62 54
54 99 14 13 66 86 89 97 78 91 53 46 78 117 155 213 241 230 249 247 225 192 170 154 142 129 113 75 45 37 64 81 104 101 91 86 72 59 54 61 47 39 36
102 102 125 80 80 103 108 56 77 92 50 41 82 114 161 215 230 244 249 248 209 195 180 167 152 137 119 97 68 51 56 85 106 100 89 63 65 54 46 38 41 63 54
80 80 71 123 97 39 72 103 66 73 50 53 78 134 171 212 219 238 251 251 225 214 206 178 172 149 117 83 94 104 86 70 80 83 82 71 73 64 56 55 46 59 59
84 92 94 76 58 71 80 83 58 51 69 76 101 142 176 216 282 243 226 200 197 201 201 194 204 177 110 56 71 105 110 94 105 123 102 97 105 98 84 75 61 62 61
80 81 89 78 62 62 37 23 35 42 76 93 111 140 186 223 241 266 253 167 191 171 175 170 180 156 78 66 59 55 62 71 92 132 108 96 91 94 86 78 71 70 72

GFSMW_con_3kmhel_102.txt.gz
Helicity
11 140 280 190 114 105 119 143 125 115 37 110 123 88 81 99 90 77 52 48 43 37 36 54 73 78 82 85 87 105 115 104 72 65 53 54 48 52 44 37 50 57 58
73 210 188 -158 170 234 171 151 114 140 127 109 59 77 88 73 69 67 59 43 39 44 35 45 66 70 72 81 103 126 128 108 84 89 99 82 56 58 52 59 67 61 55
97 97 38 -170 -20 112 125 109 112 115 138 214 89 75 69 95 107 78 78 45 48 60 66 73 90 89 86 95 113 108 96 119 126 85 94 91 74 66 62 55 62 64 68
154 95 -7 -58 -42 -115 30 32 -31 44 -21 45 97 70 103 125 121 116 106 90 48 45 90 73 74 117 163 210 214 206 195 208 154 107 100 78 83 85 62 32 48 65 84
38 29 50 66 40 -29 -31 -27 -11 -56 -66 28 -10 13 -9 3 49 116 103 30 29 69 96 102 195 231 247 214 254 290 299 323 270 213 101 48 48 48 53 62 32 65 86
57 46 55 34 22 70 83 55 5 -10 36 66 81 -5 22 2 3 34 76 144 97 107 124 210 294 299 229 227 226 283 188 186 159 199 65 96 27 38 41 37 40 56 86
28 48 82 74 63 64 62 53 60 42 55 50 18 49 54 14 82 75 92 194 232 220 226 276 304 312 315 329 306 265 245 150 289 171 107 200 143 52 53 55 66 96 88
80 116 113 104 102 93 89 70 67 65 62 64 67 65 64 97 77 90 108 131 146 202 186 184 202 210 194 167 217 206 223 183 108 124 199 143 85 85 84 104 95 90 90
119 139 119 106 89 82 91 84 85 79 79 88 97 88 101 93 94 94 103 120 141 183 183 203 221 205 184 182 156 177 182 166 160 166 123 67 90 99 108 105 98 96 90
135 127 118 121 113 102 106 115 109 108 112 117 132 146 144 137 122 117 129 134 144 172 233 221 168 164 157 136 170 203 206 196 173 149 101 106 104 95 74 75 101 116 122
114 115 110 103 102 89 86 90 95 97 110 110 117 131 138 147 142 130 126 135 151 180 212 180 183 180 150 143 162 164 161 157 149 135 109 96 96 97 107 107 155 157 158
154 147 140 121 113 120 101 87 82 85 94 100 101 114 132 137 137 139 143 151 168 191 198 211 179 151 130 128 117 136 141 142 141 141 127 121 130 129 113 109 128 135 146
112 115 127 138 139 123 118 114 93 89 83 76 81 91 104 117 123 130 140 157 191 201 204 188 169 156 154 139 126 115 101 122 118 99 93 96 95 101 123 124 124 138 155
93 83 77 62 67 76 80 74 79 75 71 66 72 77 85 94 106 118 133 146 157 172 180 185 175 167 168 156 154 138 129 142 130 114 120 124 125 126 127 125 126 136 144
160 150 133 130 114 101 96 100 99 79 71 77 75 72 76 85 106 120 134 152 170 190 208 228 202 190 169 145 142 131 130 118 113 109 128 148 163 168 154 131 118 122 134
156 162 160 152 140 137 132 121 117 122 112 100 94 97 102 99 102 118 142 165 195 220 222 201 186 181 159 151 142 129 121 97 93 118 146 161 167 148 130 125 129 129 118
115 125 124 105 107 123 124 115 102 88 83 75 92 103 101 107 113 126 152 180 196 208 211 198 181 164 154 132 108 87 96 81 88 115 137 150 150 147 152 157 148 141 132
61 60 67 75 93 95 90 90 93 99 95 87 81 84 94 104 118 137 150 173 204 211 216 200 181 174 155 104 81 88 127 113 92 104 130 139 141 136 122 118 124 120 117
32 39 62 74 79 90 118 136 127 98 92 92 84 83 90 110 126 140 162 197 209 217 223 208 201 169 148 113 105 106 97 84 72 89 115 127 124 113 121 125 113 108 119
55 53 23 28 21 54 70 78 95 129 136 102 107 97 83 97 136 154 160 188 197 217 219 209 183 171 156 123 101 97 103 89 93 106 126 115 116 102 107 105 108 101 102
23 47 50 28 3 18 23 47 74 71 94 92 101 107 104 109 118 167 205 220 240 225 216 197 189 170 141 115 88 99 116 106 100 109 121 121 96 93 89 87 92 92 88
3 18 43 25 29 49 71 77 78 108 103 72 57 80 89 109 147 199 266 241 251 239 226 202 186 148 117 115 89 87 98 94 84 84 108 117 100 96 88 86 73 85 81
10 32 56 61 73 54 86 93 74 74 85 71 49 47 67 88 133 215 277 295 267 255 242 224 185 152 138 132 104 86 88 71 76 90 125 138 106 92 86 83 67 57 60
26 46 72 69 71 72 73 83 58 69 71 28 61 30 47 87 134 205 252 296 310 275 241 221 199 168 169 158 136 117 115 84 96 127 141 125 111 95 91 86 68 66 71
61 77 68 67 56 66 80 95 84 92 73 4 43 9 62 108 144 184 234 243 231 262 272 238 228 220 183 144 120 111 121 156 136 168 155 135 125 130 113 99 78 75 68
73 69 52 71 65 61 78 89 90 83 53 -8 -15 38 87 138 154 207 239 220 221 232 222 185 204 214 211 185 128 84 72 97 152 201 136 121 122 123 113 103 95 86 72

GFSMW_con_3kmhel_105.txt.gz
Helicity
38 43 103 35 103 85 88 111 91 152 175 93 119 131 127 127 125 100 86 97 94 92 69 64 57 71 64 41 45 62 76 104 128 143 94 64 77 65 80 59 49 73 45
-0 126 155 343 281 150 97 123 148 118 206 143 86 107 106 107 123 130 110 77 71 63 60 56 58 39 47 42 52 76 108 115 113 113 103 177 107 104 85 59 70 71 51
-4 127 186 132 48 204 149 208 224 140 122 100 90 130 108 107 104 147 118 96 80 98 79 86 80 89 105 82 79 80 102 121 129 80 185 184 141 163 81 50 59 56 52
62 161 41 106 55 30 163 273 173 297 30 83 107 129 104 112 89 93 86 75 69 84 99 93 70 42 76 86 120 160 283 146 155 235 244 244 195 167 109 104 53 51 60
66 19 90 5 10 22 105 194 138 91 73 80 55 31 72 125 105 112 110 126 110 94 56 49 77 70 123 151 102 154 167 207 259 298 266 261 264 213 138 183 135 57 54
75 49 37 -60 -155 -137 -52 3 -58 -115 -96 10 77 17 45 107 104 107 98 109 106 137 101 101 93 142 235 253 267 230 234 215 155 173 251 262 280 200 138 166 112 80 104
61 36 -21 -52 -70 -49 -30 -35 -59 -8 -5 1 -14 -46 -65 6 81 77 147 93 141 258 163 191 150 198 269 322 315 297 238 260 244 165 238 197 172 151 205 198 184 135 115
80 18 -1 -28 -22 -16 -19 -18 5 17 44 19 66 40 22 -21 -38 28 125 -23 -6 150 154 264 254 203 244 244 218 195 200 153 195 167 206 153 111 124 153 131 109 123 89
22 16 35 52 51 36 17 15 21 26 27 26 37 74 67 51 72 91 130 179 163 199 184 208 233 226 229 214 201 168 166 161 157 163 180 148 135 153 148 138 154 151 149
83 102 109 94 97 96 86 80 85 79 85 88 98 113 115 110 109 126 140 143 152 155 174 211 216 213 206 202 182 170 153 164 192 201 196 189 171 162 143 136 131 142 119
140 138 136 140 140 129 114 108 109 101 94 100 96 106 116 137 143 150 164 160 171 179 206 235 229 222 197 166 170 162 152 165 168 161 160 161 168 148 148 173 170 156 139
112 121 123 130 131 121 107 102 100 103 118 123 117 108 108 111 129 128 138 159 189 198 202 220 232 222 188 190 162 146 142 140 139 125 118 119 138 113 106 103 126 135 149
100 101 97 95 107 97 89 84 90 103 108 104 107 106 101 100 104 119 122 144 168 189 217 265 262 214 193 176 148 147 134 123 92 96 106 109 110 110 129 134 132 121 127
68 68 64 60 53 50 51 57 61 48 40 51 72 88 95 97 101 102 100 114 147 188 220 234 233 208 208 182 177 150 148 140 130 134 123 119 111 102 117 125 125 129 126
85 81 83 77 73 73 76 81 77 64 64 53 41 47 67 83 91 94 101 107 132 170 198 211 212 241 246 228 192 176 159 146 145 144 139 151 172 204 209 145 122 125 130
110 114 106 94 73 69 66 69 76 89 90 87 96 94 76 79 93 106 105 115 140 151 170 205 235 254 241 187 175 194 177 154 138 140 140 162 151 150 161 166 163 167 122
65 59 66 59 56 56 54 42 47 54 62 71 90 90 86 105 117 118 123 135 143 168 194 200 214 218 218 177 185 198 175 165 143 148 143 139 149 153 157 149 158 155 142
61 95 118 113 99 90 90 101 96 86 69 65 67 87 102 104 105 128 163 175 176 175 191 205 216 215 227 165 166 166 218 183 155 149 123 138 148 165 163 142 146 129 122
53 59 61 63 63 60 84 97 84 93 109 92 99 82 95 102 117 143 168 214 238 241 231 231 229 236 240 170 184 229 217 177 138 112 107 126 142 136 133 153 136 137 140
45 45 29 9 9 26 68 82 87 73 34 46 117 78 64 87 107 116 166 199 232 272 310 300 260 224 230 163 182 188 191 145 139 129 122 95 117 113 110 120 131 135 140
45 48 53 28 18 32 33 74 68 69 70 80 68 101 138 96 54 69 102 173 225 251 311 311 292 255 222 189 151 128 176 154 148 122 102 102 87 96 102 109 131 123 161
15 12 -0 19 41 34 40 55 59 51 72 83 89 97 79 117 132 68 63 135 209 241 245 305 306 276 264 201 145 123 148 139 135 104 89 98 88 114 117 130 136 148 135
-2 31 42 52 50 41 34 34 43 69 82 91 115 125 95 94 92 96 76 133 209 223 306 313 375 348 286 267 140 108 109 122 142 123 128 125 107 127 130 126 125 128 128
55 75 71 58 66 46 26 47 77 87 99 109 101 106 103 76 64 93 91 143 207 239 254 322 317 368 336 285 233 180 151 126 146 161 163 149 138 148 149 133 125 121 114
84 78 65 78 70 40 46 77 89 86 88 110 105 96 57 59 87 87 90 159 155 223 280 302 340 393 359 275 221 209 208 193 160 175 184 188 180 182 173 150 130 127 115
94 87 77 78 47 41 55 70 77 63 56 46 58 79 68 97 81 16 114 103 114 105 126 170 282 278 246 213 155 146 177 167 144 182 184 172 180 186 171 149 150 158 124

GFSMW_con_3kmhel_108.txt.gz
Helicity
24 31 91 86 118 67 33 59 60 82 123 96 239 237 193 169 156 154 136 117 112 106 82 86 79 88 82 46 48 54 63 68 61 121 126 96 68 105 143 122 102 104 85
3 36 124 126 75 95 82 70 142 92 66 67 102 175 179 161 158 142 129 122 115 107 92 76 88 98 98 94 72 57 84 72 79 153 161 147 145 218 161 121 120 109 81
1 33 106 76 4 12 116 68 133 145 173 162 161 146 135 163 153 144 142 126 113 103 107 104 109 150 143 130 114 102 93 78 95 97 166 212 231 234 166 115 88 78 90
4 103 122 28 -23 -28 8 102 164 319 325 164 197 178 176 129 128 148 126 120 102 105 113 119 137 121 116 105 97 93 86 89 73 200 230 247 253 257 171 149 85 108 109
55 38 30 -46 -2 52 87 78 206 199 192 107 175 132 219 173 177 123 165 91 126 108 95 103 103 108 88 80 67 65 36 90 108 146 264 261 241 203 183 82 61 109 77
43 1 -29 -41 -33 -90 23 342 196 151 191 43 31 57 205 126 122 176 76 78 106 132 121 116 116 129 115 99 68 72 153 199 131 155 125 228 209 241 210 127 92 137 187
-55 -12 -57 -110 -142 -122 -144 2 -97 72 -44 31 116 76 82 87 16 132 153 97 112 131 116 111 141 199 152 107 103 153 159 147 174 182 164 142 127 173 182 187 178 200 252
59 -56 -64 -80 -61 -37 -27 -43 -43 -33 -13 -64 -74 -62 -14 74 118 45 93 136 106 70 87 165 190 266 194 178 152 64 175 266 211 167 149 143 126 133 151 164 174 192 154
-25 1 15 15 -2 -7 -21 -37 -27 -2 2 57 73 17 9 5 13 9 -16 -8 49 172 108 184 168 198 192 172 107 238 247 216 178 145 135 126 111 135 136 136 184 213 185
-3 25 41 31 33 34 38 40 36 23 16 36 34 16 -15 17 28 81 102 120 160 173 201 194 175 190 193 211 219 217 202 173 167 158 154 156 175 189 176 181 200 193 177
46 57 36 56 84 75 79 80 79 69 69 90 105 68 49 54 51 60 91 114 171 183 180 183 206 184 192 207 217 209 199 199 187 174 164 171 183 190 183 181 169 148 159
60 40 31 41 45 55 52 46 49 57 65 79 91 104 123 117 108 120 78 106 125 149 152 181 203 201 196 204 202 215 205 197 181 162 162 153 165 148 140 147 129 136 133
62 63 51 42 28 29 26 39 46 48 48 48 51 62 71 89 97 103 113 132 136 148 148 166 179 190 220 237 226 219 204 171 174 161 140 128 134 115 120 110 104 115 144
43 45 55 51 51 41 33 33 40 34 50 69 79 82 74 68 73 94 116 116 118 132 136 138 161 211 268 261 233 220 204 184 167 152 142 122 129 120 106 122 139 150 154
33 10 14 32 48 61 64 63 69 59 51 65 71 73 71 80 96 94 90 95 113 130 146 164 205 250 257 233 195 209 199 194 190 169 152 160 209 199 147 179 159 153 146
-24 16 44 33 40 40 55 58 70 64 65 78 84 99 106 108 105 103 121 131 137 139 177 211 216 214 223 209 183 228 233 220 215 200 187 200 210 203 193 221 201 142 135
-97 -35 -32 -5 9 20 31 35 39 38 35 50 64 83 99 109 119 153 158 161 176 197 188 210 240 226 229 175 162 199 248 240 225 200 202 191 169 160 167 166 162 157 147
4 20 21 8 3 5 22 5 -9 -12 -1 -9 -0 23 35 95 118 115 145 180 197 208 242 238 245 252 270 197 181 204 236 238 214 203 207 189 168 149 156 163 155 138 138
90 81 50 29 35 67 34 -11 -47 -57 -63 -57 -30 -9 -13 -11 52 126 133 132 178 226 232 260 277 262 254 227 249 314 304 276 242 223 200 189 152 112 111 158 141 142 156
178 163 119 106 111 102 85 85 60 48 12 -23 -56 -55 -6 74 55 98 126 171 201 164 238 251 247 250 292 223 241 360 406 326 268 236 205 141 135 85 92 150 150 149 128
111 122 127 100 73 103 88 40 49 47 66 58 32 -0 -12 -26 4 76 127 162 208 239 215 205 256 231 249 249 212 264 343 356 325 271 242 204 94 78 83 106 132 121 148
54 61 17 -7 30 47 33 35 39 44 35 43 58 70 73 65 25 2 12 116 152 247 302 250 244 251 262 218 197 208 251 274 340 272 225 172 90 81 72 101 105 114 161
45 34 7 -0 15 58 77 62 45 1 6 31 56 51 77 117 107 69 91 73 113 175 234 240 222 248 262 268 182 189 211 243 299 262 193 131 85 73 80 95 124 147 178
44 38 28 45 70 92 77 58 24 31 41 47 52 56 67 116 102 89 108 138 137 148 201 202 199 227 253 269 275 260 238 294 303 220 194 147 113 112 124 135 147 174 162
67 77 90 97 105 108 81 45 27 34 46 53 49 66 65 79 110 113 95 73 116 149 167 201 213 243 229 307 322 348 373 385 370 344 309 257 206 186 175 187 181 176 146
105 126 139 131 128 108 81 52 40 61 69 59 42 52 36 71 34 48 61 57 111 92 109 108 211 203 148 188 287 338 318 291 303 349 312 241 192 169 176 181 188 177 145

GFSMW_con_3kmhel_111.txt.gz
Helicity
85 38 12 60 89 80 73 58 25 59 322 332 280 263 182 218 259 235 205 179 147 132 125 128 112 108 88 53 67 79 60 54 67 88 55 80 95 100 147 164 139 134 117
52 20 6 69 107 112 73 65 63 70 129 390 285 192 108 221 208 202 157 137 148 135 135 118 94 95 87 92 94 98 93 74 82 90 93 127 169 166 180 176 137 128 115
45 14 30 75 107 97 89 60 43 99 152 242 295 133 96 131 159 161 172 150 133 134 119 98 119 127 161 169 136 136 101 95 149 109 111 130 156 204 229 189 143 132 131
45 58 35 47 33 -33 12 9 96 99 126 199 226 196 225 118 117 151 149 137 144 139 141 136 142 154 169 169 139 116 114 116 99 122 163 162 211 294 269 220 166 181 130
69 64 5 -6 2 16 54 62 55 104 174 151 187 239 227 202 235 150 188 181 147 127 135 129 121 115 107 107 83 72 91 112 102 129 162 273 427 168 205 117 153 155 106
41 8 2 100 19 36 59 66 182 202 303 210 163 179 257 266 295 190 218 239 130 127 143 141 119 110 108 117 108 127 101 98 59 88 123 163 230 295 174 161 161 82 103
47 3 48 -5 -69 -32 117 222 117 174 199 146 165 171 205 72 107 133 124 183 80 100 126 98 131 143 119 134 165 99 79 102 67 142 173 140 124 69 119 183 143 173 179
115 62 24 26 24 -45 -20 -52 43 117 20 37 1 -8 108 92 178 126 95 85 91 126 72 103 109 127 177 186 243 275 234 201 165 155 83 146 115 141 152 136 193 173 193
4 38 1 -22 -13 -32 -34 5 -17 -50 -59 -40 -73 72 23 -11 -2 44 64 68 69 100 -20 111 121 182 152 190 218 298 245 130 163 36 78 149 156 138 133 144 131 162 155
43 32 20 24 14 7 -4 17 10 -5 6 0 0 -24 -18 -14 -16 -22 -10 8 53 74 117 144 145 235 142 214 198 236 223 208 91 90 164 162 147 153 154 150 167 207 204
-2 5 22 26 12 19 39 33 32 39 38 28 38 54 37 48 41 40 50 36 45 111 123 159 168 161 153 181 203 180 166 184 188 197 159 161 206 214 199 195 198 183 206
26 26 24 30 38 46 53 58 57 59 59 58 54 57 52 63 51 45 47 76 83 94 93 103 107 119 145 169 174 175 175 200 203 179 187 180 192 186 211 217 199 181 186
42 46 54 67 64 59 76 94 83 89 79 82 94 91 88 78 76 79 78 79 75 83 101 118 118 126 140 150 149 162 178 203 199 195 199 189 197 187 189 174 170 172 176
39 27 33 25 19 25 45 58 67 67 75 85 87 91 94 95 92 90 74 68 81 93 108 113 122 129 133 152 160 172 209 193 190 191 185 186 177 167 164 161 162 169 179
-17 -49 -51 -78 -73 -26 34 50 61 72 79 90 115 125 134 133 123 120 110 103 98 89 93 113 109 120 171 215 240 225 222 190 190 189 176 163 153 145 143 161 147 161 163
-42 -66 -83 -79 -68 1 4 37 33 31 41 60 72 86 116 128 137 148 154 152 146 150 137 116 123 157 178 173 229 265 262 218 200 215 204 201 202 175 119 124 137 140 157
-49 -90 -68 -59 -42 -71 -85 -48 -22 -19 -14 8 49 80 113 129 145 164 163 165 175 163 165 170 175 172 177 177 184 204 289 315 210 219 246 224 211 201 201 186 181 160 132
-82 -94 -89 -91 -78 -76 -65 -64 -74 -81 -88 -88 -90 -85 -73 -43 15 87 127 140 159 185 193 177 185 198 214 169 173 202 252 238 241 151 216 221 210 204 205 214 201 175 160
-132 -110 -88 -59 -40 -51 -68 -83 -69 -62 -76 -81 -133 -145 -151 -154 -109 -95 -59 23 99 170 211 230 211 199 189 188 174 190 226 251 229 245 253 266 229 171 172 210 190 175 166
34 20 14 9 2 6 -13 -15 -6 -2 -15 -46 -29 5 5 5 -14 -50 -17 22 113 126 148 178 225 206 208 185 172 185 238 251 305 248 240 212 244 178 171 220 198 178 145
92 83 78 54 41 57 81 90 105 121 65 30 1 33 52 60 44 34 7 -38 -23 86 130 144 151 245 214 192 155 181 247 217 263 290 281 258 167 156 157 173 199 146 168
143 132 102 74 81 109 110 90 100 92 77 58 53 59 60 73 53 47 52 39 -2 -24 38 134 169 152 229 213 157 171 207 202 240 259 276 262 161 171 154 168 121 143 175
82 90 72 67 67 84 120 84 75 90 92 84 62 73 90 96 79 63 61 89 68 56 44 56 85 136 159 224 153 143 184 222 247 248 247 225 161 163 156 150 124 145 223
63 77 72 66 71 102 117 96 96 101 89 69 60 63 84 83 71 86 52 98 107 119 93 94 93 150 190 192 202 180 195 196 240 218 220 210 221 209 215 171 153 231 197
70 75 75 84 101 122 133 126 135 110 104 64 54 63 82 70 83 91 86 77 41 85 70 84 117 161 154 234 180 171 217 253 282 328 320 315 293 259 269 247 227 212 195
72 82 95 120 122 142 149 159 132 112 91 73 81 81 59 76 86 35 -16 41 20 -22 6 26 118 159 86 72 148 174 171 186 276 355 378 367 335 316 281 246 220 204 163

GFSMW_con_3kmhel_114.txt.gz
Helicity
197 164 123 100 78 39 59 96 84 82 103 28 159 177 165 198 251 304 165 139 135 144 159 161 132 129 116 105 106 118 93 75 93 103 77 80 101 106 130 174 180 177 153
192 130 82 9 -0 64 72 118 91 73 71 94 73 149 208 206 298 380 243 205 193 186 178 179 163 155 149 127 116 124 139 115 128 127 125 117 119 136 145 184 194 168 147
73 69 21 -40 -24 56 80 119 91 62 49 30 147 285 316 321 347 395 225 212 213 198 184 171 176 157 150 117 108 122 139 167 161 105 144 138 121 161 200 194 194 209 170
52 46 33 23 71 74 84 92 81 58 69 132 232 373 405 221 327 183 149 216 212 197 182 170 158 144 159 127 139 170 178 184 162 133 86 137 137 142 159 215 324 302 178
10 32 44 65 56 52 41 65 82 83 93 112 101 262 192 178 134 107 142 190 181 170 188 195 185 186 194 208 217 171 135 149 145 127 111 124 181 200 226 260 352 289 178
19 4 17 47 40 -37 23 24 67 95 72 118 144 187 167 124 190 196 163 159 121 123 141 140 158 180 170 150 175 187 155 148 128 122 164 166 160 197 174 166 255 222 168
-18 -24 69 28 137 202 251 57 88 88 109 109 188 217 146 126 163 193 173 187 180 142 156 102 139 165 205 145 133 132 75 102 124 182 195 189 218 217 232 264 304 148 207
152 142 114 76 37 11 184 250 239 105 399 145 118 121 164 189 151 167 155 143 129 108 162 134 107 100 160 109 132 142 156 201 195 179 207 207 230 269 283 257 214 172 333
201 137 91 70 64 86 56 -10 132 95 -19 -29 -9 57 77 53 104 92 103 203 159 113 92 61 49 84 81 94 147 149 199 216 223 257 271 282 188 269 200 165 215 214 134
90 68 78 97 66 59 42 42 49 49 33 19 -14 10 46 42 85 22 24 67 23 104 88 72 88 109 126 149 124 119 153 124 230 279 293 199 232 125 143 175 189 238 235
38 72 64 82 82 92 106 97 75 69 69 54 38 45 41 37 30 33 21 25 38 59 66 31 97 127 115 134 28 97 160 137 111 255 160 145 46 144 221 216 216 216 229
51 28 27 64 83 87 90 98 116 123 113 84 29 68 54 58 50 51 58 41 38 64 71 70 94 109 152 152 161 163 158 168 135 155 159 179 223 258 210 228 218 220 231
48 44 41 32 40 48 56 59 48 53 64 72 83 96 109 117 123 115 100 92 81 80 84 103 115 121 128 138 152 169 185 183 181 184 193 182 220 221 240 241 224 231 247
18 10 5 -7 -24 -25 -20 -21 -17 -25 -44 -92 -56 -17 20 48 71 97 106 104 112 110 115 119 120 121 124 132 144 155 169 187 195 208 192 207 208 207 227 232 231 241 230
-24 -44 -68 -62 -46 -42 -40 -41 -50 -72 -82 -68 -29 -0 25 50 63 93 121 139 143 128 114 105 108 125 134 131 128 141 157 167 176 226 230 205 196 205 208 247 231 219 223
-32 -74 -104 -88 -89 -101 -76 -67 -54 -28 -16 6 38 41 37 53 69 84 87 95 120 147 168 159 124 107 124 124 124 142 157 163 187 216 231 245 221 199 179 170 173 193 219
-57 -99 -93 -127 -101 -87 -97 -86 -100 -75 -56 -73 -53 -13 17 55 85 99 100 100 111 95 95 105 125 131 128 109 116 136 181 184 199 240 281 275 285 205 221 175 165 159 140
-53 -85 -104 -90 -73 -91 -71 -54 -47 -51 -75 -74 -66 -62 -32 -45 -59 -67 -41 25 81 99 101 106 106 123 120 133 133 132 199 212 199 213 241 300 306 232 192 220 219 209 208
-53 -68 -73 -53 -30 -30 -47 -64 -72 -58 -35 -17 -0 -20 -55 -45 -54 -89 -107 -131 -142 -53 63 72 87 92 96 100 138 165 174 202 194 160 229 220 259 303 174 195 259 268 241
-70 -78 -37 -23 -33 -47 -60 -48 -33 -21 -11 22 48 47 58 60 27 1 -35 -52 -51 -57 -34 55 83 51 90 90 100 154 178 195 209 180 170 202 194 187 189 225 245 238 245
21 44 40 15 14 12 3 41 70 88 75 84 65 59 59 63 73 71 58 36 19 21 -11 -8 32 89 83 94 77 104 208 202 210 217 218 198 184 122 158 167 188 196 234
67 55 31 28 51 75 106 106 122 130 121 125 118 114 113 110 93 60 57 74 79 55 27 15 10 33 57 56 54 77 123 179 235 227 242 215 180 154 155 168 121 164 252
106 104 101 100 109 117 107 104 119 122 107 103 104 108 112 107 104 112 96 82 71 78 58 26 4 11 34 57 40 58 83 136 221 239 215 204 209 212 171 160 115 150 268
85 94 99 103 111 120 119 121 137 127 129 122 127 131 134 114 102 102 92 88 86 73 53 34 35 53 72 93 88 115 122 97 160 194 219 207 207 241 245 212 210 221 211
108 112 101 102 111 124 144 166 164 157 146 147 146 130 126 107 101 101 111 118 95 80 15 -21 21 54 89 129 99 88 113 147 178 260 267 212 239 302 343 307 278 279 202
98 97 108 112 122 144 156 158 153 157 152 154 144 119 98 101 104 109 125 73 -2 13 11 7 -19 -11 -14 64 64 88 109 98 160 280 267 237 232 271 284 297 297 303 233

GFSMW_con_3kmhel_117.txt.gz
Helicity
93 99 98 67 92 94 108 88 100 120 144 121 135 126 160 182 176 210 102 163 237 250 216 177 153 143 141 117 89 108 99 82 110 129 100 98 83 62 53 110 154 179 166
102 123 165 133 132 101 54 60 85 115 126 158 148 130 149 137 259 229 165 192 345 287 300 188 140 123 149 132 118 119 149 129 154 153 152 138 133 104 103 147 181 191 192
99 99 159 192 146 59 -5 -15 36 66 98 120 112 102 104 246 242 164 187 308 219 226 208 132 110 139 159 158 158 146 153 159 162 170 187 194 172 178 158 153 162 188 227
67 63 100 109 112 70 13 44 80 66 91 97 84 51 123 280 247 210 237 248 209 261 225 182 107 150 177 177 175 190 187 193 181 197 173 201 183 199 182 192 199 223 235
38 35 55 78 79 69 80 97 88 83 101 79 70 90 116 266 255 261 212 273 299 213 113 141 144 174 189 176 201 211 208 227 216 248 220 158 179 163 175 179 167 242 257
31 38 63 63 122 115 91 91 55 59 89 83 97 127 117 493 465 354 313 294 256 255 240 206 142 193 205 206 202 206 215 209 185 224 163 170 122 91 193 215 195 246 249
-75 -16 64 134 88 104 117 157 54 73 131 92 99 127 162 247 195 177 195 261 241 267 290 148 118 105 153 176 212 197 179 158 195 185 193 127 111 154 224 231 239 323 320
-20 42 122 111 91 138 209 338 109 37 83 112 75 73 83 87 45 45 106 182 253 219 220 194 123 121 94 102 140 146 178 173 126 124 178 198 220 259 276 306 313 327 406
189 147 83 143 107 95 112 382 185 275 302 112 121 60 15 100 125 -2 7 62 148 72 92 57 79 145 120 92 66 108 114 210 167 130 151 212 193 248 300 293 299 286 329
180 150 85 62 57 66 83 123 73 53 101 97 49 84 59 56 19 48 43 66 60 55 83 106 91 123 106 66 62 137 71 90 140 167 154 193 269 260 315 349 354 278 309
125 125 92 90 76 77 75 89 106 108 102 79 53 41 183 145 108 54 47 -4 12 55 125 75 74 151 136 92 156 131 122 190 202 155 148 157 187 263 225 356 206 275 298
72 55 65 81 65 57 53 37 33 41 45 64 47 74 42 38 17 29 11 -34 20 41 34 19 51 96 96 110 144 155 163 245 208 233 180 211 181 141 239 206 258 247 230
40 50 37 11 12 16 -1 -3 -18 -16 3 3 -4 -11 -4 28 42 43 72 96 83 69 71 61 64 64 62 58 76 105 163 183 124 90 145 202 188 199 233 192 179 298 374
10 -2 -7 0 -2 -16 -8 -20 -37 -47 -65 -100 -127 -124 -69 -13 23 33 43 50 70 71 102 125 123 130 128 130 138 139 122 112 120 118 101 117 191 205 256 309 301 262 314
2 -22 -23 -13 -17 -12 -21 -18 -42 -59 -75 -96 -56 -16 -17 5 12 19 31 47 56 61 70 101 116 101 94 108 128 140 143 144 135 129 165 183 191 179 244 335 357 383 263
-13 -30 -46 -29 -39 -48 -63 -58 -60 -105 -25 -27 -7 12 22 36 40 44 54 49 55 73 96 123 115 113 123 138 126 105 105 132 160 169 179 188 177 198 212 236 245 274 320
-26 -49 -43 -34 -48 -52 -57 -72 -78 -62 -34 -41 -47 -45 -49 -38 -29 -16 16 54 61 67 81 95 111 116 110 113 137 153 160 143 132 146 177 197 215 176 208 161 222 271 248
-7 -33 -41 -39 -50 -56 -64 -58 -61 -48 -49 -32 -44 -57 -61 -66 -63 -67 -68 -57 -64 -8 40 41 73 93 94 104 122 129 127 149 152 159 173 183 187 197 206 232 275 255 318
-18 -36 -42 -50 -43 -33 -31 -31 -22 -14 -2 -2 -1 -1 12 13 1 3 -41 -61 -66 -78 -127 -84 51 110 134 97 99 136 154 129 113 152 182 188 194 183 156 211 290 406 424
-12 -25 -6 0 -8 -15 -18 -13 0 21 35 47 45 48 44 49 78 84 87 52 8 -25 -14 -50 -79 -101 34 102 78 60 113 144 157 156 154 128 137 155 104 171 274 220 331
0 28 30 18 10 10 12 32 49 79 78 82 82 91 109 138 146 137 128 97 75 62 59 20 -11 5 5 -4 75 60 92 104 106 175 202 197 130 110 128 198 247 243 285
67 56 48 55 63 69 63 71 100 111 100 102 106 116 112 134 149 148 134 127 115 94 64 35 29 36 20 5 20 62 72 81 100 117 148 205 160 180 123 190 199 227 212
56 57 52 47 70 73 112 121 133 144 117 119 97 101 96 95 109 111 110 115 92 91 85 76 66 50 49 35 16 33 72 83 87 99 137 103 116 199 194 198 207 232 291
79 81 82 80 83 108 127 133 129 138 130 126 111 107 106 111 132 131 102 97 102 101 117 107 81 70 62 53 16 39 61 73 83 78 160 154 117 122 207 252 258 368 269
122 120 96 86 85 96 112 120 132 137 139 140 132 123 137 137 132 115 110 98 116 121 123 128 74 -38 -47 -21 -10 -43 11 97 58 99 203 231 164 154 262 315 303 325 278
118 109 92 93 89 103 119 127 141 147 149 128 136 149 153 155 137 132 124 70 59 42 11 -4 -39 -43 4 25 32 7 -26 36 49 199 202 207 217 190 232 274 319 294 266

GFSMW_con_3kmhel_120.txt.gz
Helicity
111 115 81 131 166 131 121 139 110 111 112 119 107 108 110 95 99 128 131 136 183 211 190 235 296 307 329 262 143 106 133 74 118 124 78 80 78 79 77 77 76 95 122
113 130 111 52 162 166 114 114 97 129 133 129 138 133 126 118 108 112 124 162 181 231 301 246 312 278 272 284 173 117 110 73 144 159 141 130 133 88 95 103 107 122 180
96 112 92 68 65 203 148 114 85 77 112 108 123 130 128 135 131 95 124 195 164 230 330 278 320 298 295 411 269 89 116 93 170 173 183 175 146 131 174 143 139 164 186
4 55 71 61 64 139 166 106 52 50 82 106 121 133 101 79 67 64 133 215 172 285 250 224 279 313 347 313 229 122 133 168 146 211 184 210 175 151 166 187 187 186 183
-20 -17 16 39 78 140 218 204 164 131 90 142 130 127 97 53 -11 119 188 254 243 188 209 268 346 355 308 153 123 150 175 168 190 236 250 239 231 210 208 185 197 187 176
17 40 82 110 126 130 158 187 198 107 100 129 114 88 62 16 -23 182 261 206 207 186 204 305 353 131 83 142 127 150 174 182 175 210 259 270 282 265 259 219 194 123 144
14 104 105 108 104 126 138 138 71 99 118 103 100 83 69 110 129 400 273 346 193 404 297 240 182 193 125 112 124 110 129 177 189 220 252 272 251 245 251 206 203 126 151
33 -22 17 146 112 119 246 357 171 89 144 172 103 100 71 79 165 15 47 122 102 129 199 258 240 85 114 174 143 78 80 99 127 141 183 169 190 223 242 225 211 139 176
111 114 84 104 172 94 292 245 450 415 309 183 217 75 21 64 96 40 29 24 54 67 222 143 124 163 156 130 110 93 69 114 144 130 151 183 241 269 249 196 198 178 204
119 127 116 93 180 100 199 115 185 446 209 182 215 280 193 165 69 58 104 74 98 36 50 124 74 85 122 146 98 116 100 97 105 123 109 116 172 243 236 221 272 238 242
98 98 41 48 9 25 49 69 68 78 112 96 38 120 209 270 152 124 118 111 18 32 67 4 26 88 99 60 73 119 119 124 182 154 104 144 146 231 225 193 164 196 272
75 76 71 61 52 52 61 72 76 89 92 52 20 34 42 41 76 -5 -46 -65 -95 -18 -33 -57 -32 79 18 -1 62 71 100 226 223 128 171 164 176 331 265 254 236 317 251
67 60 33 21 16 22 24 26 29 41 37 32 7 -12 -13 -16 -0 21 32 49 61 50 61 52 39 21 16 44 48 82 148 96 104 104 123 157 229 195 252 245 260 226 244
35 28 18 12 -3 -5 -9 -14 -20 -10 -6 -14 -6 6 27 24 23 40 42 38 35 25 38 49 61 78 86 80 73 85 82 63 55 51 69 66 164 212 180 195 173 207 272
13 2 8 8 -2 -9 -16 -26 -36 -34 -43 -59 -16 2 17 26 30 35 50 60 69 76 82 69 82 102 111 109 128 131 135 146 125 111 111 126 114 97 146 175 149 230 318
12 7 -5 -13 -16 -20 -4 -0 -13 -13 4 20 23 20 19 34 36 42 42 31 34 36 60 81 73 99 107 132 167 175 157 157 152 154 155 156 144 137 104 141 178 252 235
16 -5 -25 -36 -47 -52 -40 -41 -56 -46 -37 -39 -57 -59 -61 -67 -57 -70 -78 -72 -65 -44 19 49 48 59 86 124 161 190 173 154 152 157 126 129 157 151 153 137 150 187 224
21 8 19 20 16 6 -14 -42 -51 -48 -40 -48 -60 -70 -86 -101 -118 -141 -143 -135 -146 -143 -140 -122 -123 -47 73 103 118 148 175 171 146 135 157 135 116 139 142 149 179 216 229
55 50 38 7 -16 -30 -37 -52 -36 -30 -35 -31 -22 -24 -26 -28 -30 -35 -23 4 6 28 30 5 -30 -75 -171 -204 93 131 125 112 105 89 93 121 138 121 88 141 222 245 318
54 30 -3 -23 -31 -32 -34 -20 -14 -6 3 11 16 10 10 21 42 73 100 89 98 134 135 120 76 30 15 -51 -91 36 102 90 79 49 58 78 100 123 140 138 190 243 270
22 16 1 -13 -10 1 -1 11 2 19 31 39 51 54 57 77 100 117 133 148 154 157 146 123 94 69 49 42 17 20 35 67 60 45 33 55 87 92 104 119 208 173 266
41 36 29 29 35 31 34 35 35 35 42 39 46 46 57 89 111 115 113 123 147 139 112 101 101 114 102 65 50 46 17 20 46 58 51 39 37 97 105 97 162 174 228
70 69 66 60 60 47 38 49 41 41 40 46 66 63 64 81 89 90 96 122 114 124 112 118 136 144 130 115 43 28 54 24 27 47 44 38 21 81 132 74 128 188 301
84 72 66 75 69 58 64 68 61 66 72 71 77 79 82 80 83 104 118 126 112 113 107 136 144 128 133 106 66 36 3 -17 9 75 80 72 52 78 143 105 152 327 286
86 72 76 69 64 64 67 68 84 92 76 88 84 82 88 88 93 102 123 111 91 71 104 135 138 158 102 119 83 81 66 27 -23 -65 10 117 94 127 188 202 182 285 339
89 95 97 89 85 87 80 82 103 112 92 84 85 89 96 102 107 123 119 62 31 19 43 39 52 14 14 27 50 61 57 32 -52 -36 30 78 108 112 179 218 188 234 254

GFSMW_con_3kmhel_123.txt.gz
Helicity
26 78 115 126 101 115 147 180 176 179 166 173 163 116 99 102 98 94 72 67 74 76 102 138 158 233 272 253 323 316 275 172 130 99 58 62 70 62 68 78 68 63 76
-33 55 110 111 97 79 110 160 177 174 147 157 164 149 98 82 82 73 60 61 51 98 144 143 174 195 292 289 268 359 353 285 275 117 96 80 88 71 79 99 107 80 106
-15 -2 71 90 93 65 56 120 151 167 152 118 143 138 120 99 93 80 79 88 98 111 171 178 206 228 285 298 306 313 329 390 327 98 146 121 143 92 110 134 132 119 137
-8 -11 2 46 77 49 30 111 141 166 137 93 108 140 140 106 97 80 85 98 105 147 175 145 208 306 355 344 381 340 328 436 378 204 106 180 169 91 93 118 161 178 153
11 29 33 35 70 132 137 172 201 180 107 26 40 110 109 106 76 57 35 50 106 117 139 150 183 314 311 307 334 346 280 391 294 409 198 129 157 159 130 115 113 159 175
28 147 79 103 130 131 157 191 194 144 86 51 76 77 42 53 50 17 0 18 73 135 113 129 188 250 263 291 328 329 307 355 303 361 141 140 212 205 221 195 180 190 204
83 25 57 201 155 71 110 140 136 107 91 61 27 36 77 63 16 -3 15 104 116 159 91 147 132 217 248 363 409 416 333 299 137 108 134 198 216 227 157 210 216 222 210
111 65 -4 209 154 84 265 328 282 215 223 206 111 73 73 68 85 95 80 20 0 40 99 131 202 275 350 152 172 186 117 104 101 79 32 70 117 180 184 148 193 206 215
-56 97 119 243 169 84 277 434 563 394 316 305 290 340 279 255 188 152 147 104 115 50 33 -41 26 35 78 120 100 80 153 147 184 107 84 44 17 117 134 198 264 202 188
80 170 231 248 230 168 249 295 510 384 277 269 308 280 260 215 193 139 146 165 156 160 163 108 22 43 45 77 83 137 172 147 132 128 97 119 105 122 126 158 252 270 261
70 91 72 45 41 -34 30 224 298 176 172 212 126 233 211 209 179 161 96 92 53 58 68 99 64 133 69 10 77 137 150 132 110 153 184 155 149 169 157 185 135 145 229
58 25 37 53 36 45 16 38 89 63 58 40 54 46 21 25 -2 -5 -5 -5 -4 31 -97 2 -21 2 31 39 138 189 98 -8 -7 6 85 128 159 221 309 291 208 184 236
55 57 49 59 49 48 69 49 46 29 11 -1 -18 4 28 34 26 14 12 1 18 33 48 57 42 28 -10 6 23 -13 17 78 125 104 140 152 111 234 271 214 209 206 303
65 53 45 36 25 11 8 29 32 41 39 25 20 27 42 27 7 13 29 56 72 81 97 92 67 62 76 71 69 89 104 81 55 38 27 34 42 65 127 163 290 303 163
46 35 18 11 11 12 9 -2 -18 -17 -4 11 22 29 24 27 39 49 67 81 88 84 72 77 88 94 106 117 145 137 147 139 128 129 117 111 123 125 92 107 93 193 148
49 23 11 1 -5 -12 -18 -17 -19 -7 -7 -1 -7 -19 -16 -12 -2 5 25 42 54 79 105 121 108 125 120 130 161 156 170 181 187 152 122 123 169 141 129 108 128 143 176
48 39 29 19 19 10 8 15 8 -1 -3 -10 -20 -24 -31 -41 -50 -61 -53 -43 -41 -54 -48 -33 -24 16 60 91 132 158 187 186 151 130 131 129 104 130 132 131 121 121 108
73 75 64 48 34 23 13 0 -11 -17 -29 -44 -60 -69 -69 -68 -59 -60 -67 -73 -81 -71 -58 -30 -7 7 5 -44 -67 -4 41 62 70 87 109 109 98 94 108 105 149 137 121
84 74 65 50 33 10 -9 -20 -25 -24 -40 -41 -27 -20 -23 -20 -4 13 13 13 36 53 71 84 84 84 77 49 40 37 53 42 35 60 57 39 47 43 71 102 116 118 142
94 75 59 52 19 -13 -20 -18 -28 -21 -6 0 5 15 14 21 26 26 40 40 56 72 91 109 88 78 102 55 39 55 79 86 99 101 90 28 3 36 62 108 135 116 132
88 89 76 37 2 -9 -6 -11 -2 10 0 4 14 26 25 26 49 49 51 56 77 101 115 113 91 87 100 81 36 42 100 126 125 105 90 25 28 30 79 90 104 143 111
108 98 70 33 21 20 33 27 24 19 8 23 41 51 55 61 71 65 63 76 94 110 137 122 103 98 78 38 42 17 22 44 141 138 81 61 36 72 44 97 89 120 130
98 96 79 65 60 63 55 46 45 36 47 62 70 70 67 76 90 78 79 88 98 95 83 87 120 134 116 109 34 34 31 31 87 92 61 -2 -26 73 78 52 78 113 177
126 123 119 104 91 75 67 55 44 48 58 55 57 55 71 85 80 72 74 74 74 89 91 115 130 121 131 131 122 115 118 91 110 106 95 38 -30 -71 58 74 69 92 225
150 149 136 125 102 91 82 72 78 81 75 58 55 68 66 75 58 56 77 64 65 59 77 86 112 116 113 110 61 58 74 70 84 57 87 62 -1 16 29 108 62 147 211
177 162 140 134 112 95 88 65 47 48 39 37 36 45 63 68 62 66 74 42 28 15 14 16 62 85 47 19 11 16 -10 3 25 79 45 37 26 28 66 92 119 140 182